GFSGL_925_thetae_003.txt.gz
Theta_e
354 354 355 356 356 355 356 358 351 340 338 334 331 330 332 332 331 330 331 331 331 333 336 336 336 332 333 334 334 333 332 330 330 327 326 328 328 328 328 328 327 326 324
353 354 355 355 352 348 352 353 335 335 335 332 331 331 331 335 335 335 334 331 333 334 334 335 335 335 336 335 332 333 331 331 330 329 327 327 328 328 328 328 327 325 325
353 354 354 352 350 351 352 347 331 329 333 333 331 331 331 335 336 337 333 332 333 334 334 334 335 335 334 331 332 331 330 330 330 329 327 326 326 327 327 327 327 326 325
353 354 353 350 349 345 343 336 331 333 335 335 332 331 331 333 334 333 332 329 331 333 331 334 335 332 331 331 331 331 331 330 329 329 327 326 326 326 326 326 325 324 323
354 354 352 349 346 341 339 334 332 324 328 334 329 327 330 332 332 330 331 333 335 336 335 333 331 330 327 325 326 326 329 329 327 327 326 326 325 325 325 325 325 324 323
354 353 350 347 343 340 337 335 329 328 331 330 334 330 332 333 331 330 331 335 337 337 337 332 330 329 326 324 323 320 323 327 327 326 325 326 327 326 325 326 324 323 324
352 351 348 345 342 339 337 334 332 333 334 332 332 335 335 334 332 331 331 332 335 335 331 331 331 331 327 327 324 321 323 323 323 326 328 327 326 325 325 324 322 322 322
351 350 347 344 343 341 339 336 335 332 331 334 336 337 336 336 334 333 333 332 333 333 331 331 332 330 329 325 325 325 325 326 326 325 324 324 323 322 320 320 320 320 321
350 350 346 343 343 342 340 338 335 334 335 335 336 334 335 335 333 332 330 330 331 330 331 331 329 327 324 322 320 323 324 323 323 319 318 317 316 316 316 317 318 320 321
350 349 346 343 342 341 341 341 338 337 335 335 335 333 334 333 332 331 326 327 330 331 331 328 325 323 322 319 319 322 322 322 320 318 318 317 317 317 316 318 319 318 320
349 348 345 344 343 342 341 340 337 336 335 334 334 334 334 332 331 330 328 328 328 330 330 328 324 322 317 317 318 320 319 315 316 316 316 316 316 317 318 318 317 318 319
348 344 344 343 342 341 340 337 337 337 337 337 336 336 331 331 327 325 324 327 331 329 330 326 320 315 313 313 315 316 314 312 314 314 315 315 315 315 315 314 314 316 317
344 343 343 342 339 338 337 336 336 336 335 335 334 332 332 330 326 328 330 329 328 325 321 318 316 314 313 313 314 313 312 313 313 313 313 312 311 311 312 310 311 315 316
342 341 341 342 340 338 337 335 334 334 332 330 330 332 334 330 328 323 323 323 320 318 318 316 314 313 313 315 313 312 311 310 309 309 309 308 308 309 308 307 310 314 315
343 343 342 341 338 337 334 332 332 332 329 332 332 332 334 332 328 324 322 320 319 317 315 315 316 315 315 315 313 311 310 308 307 307 306 306 306 306 306 306 310 314 315
342 341 339 336 334 332 328 325 327 328 328 331 331 331 327 328 325 323 320 318 315 312 313 315 315 314 314 313 311 309 307 305 305 304 304 304 304 304 304 305 310 314 316
337 337 335 335 334 333 329 328 328 321 325 325 324 324 324 324 321 318 314 312 311 311 313 313 313 312 310 308 305 304 304 303 301 302 302 303 302 303 303 305 310 312 312
334 331 331 330 330 328 327 328 328 327 326 319 318 319 318 317 315 313 313 312 311 310 312 311 310 307 305 304 304 303 301 300 300 301 301 301 302 302 303 304 308 308 308
329 328 329 329 330 329 328 327 326 326 324 320 315 314 314 313 313 312 311 313 313 312 309 307 305 304 304 304 303 300 298 297 298 300 300 301 301 301 302 303 306 307 308
331 332 330 329 325 325 326 325 325 324 321 320 319 319 313 312 313 313 311 310 309 308 306 305 305 304 304 302 299 297 297 299 300 300 300 300 300 301 301 302 304 307 310
331 328 328 328 328 327 327 326 326 323 322 321 321 319 316 316 316 314 311 309 308 308 307 306 305 303 300 298 296 297 298 299 299 299 299 299 300 300 300 301 302 305 307
327 328 329 329 327 327 326 325 324 324 324 322 321 317 315 314 315 313 310 309 308 307 306 303 301 299 297 296 295 297 298 298 298 298 298 298 299 299 300 300 301 302 305
326 326 325 325 325 325 324 325 325 325 323 322 321 318 313 314 314 312 310 309 308 306 305 301 299 297 294 293 294 296 297 297 296 296 297 297 298 298 299 300 300 301 302
323 323 323 323 323 323 324 323 323 322 322 321 320 318 315 311 310 309 309 308 307 306 303 300 298 296 294 292 293 294 294 295 295 296 296 296 297 298 298 299 300 300 301
321 321 321 321 321 322 321 321 321 319 319 319 318 317 315 314 313 311 309 308 307 306 303 300 298 295 293 292 291 292 292 293 295 294 295 296 297 298 298 298 299 299 300
316 316 316 316 316 315 315 315 315 315 314 314 313 314 315 315 315 312 309 308 307 305 303 300 297 295 293 292 293 292 292 290 293 294 294 296 296 297 297 297 298 298 299

GFSGL_925_thetae_006.txt.gz
Theta_e
358 357 357 357 357 359 358 358 356 354 348 345 343 338 337 336 336 336 334 332 332 331 330 333 334 336 333 330 330 329 329 329 330 328 327 327 328 330 330 330 329 328 328
356 358 357 357 356 357 359 358 355 355 346 345 342 339 337 336 336 337 335 332 331 331 332 334 335 334 334 334 332 331 329 329 330 329 328 328 328 327 328 330 329 328 327
356 357 357 356 357 357 358 356 355 349 335 337 324 331 338 337 336 337 337 336 333 332 333 334 334 334 334 332 332 329 328 328 328 328 329 328 327 326 326 327 328 326 326
355 357 358 357 356 357 356 352 350 338 330 333 323 325 329 338 337 337 336 336 333 332 334 335 335 335 333 333 332 332 331 331 329 328 328 327 327 326 326 326 326 324 323
355 356 358 358 358 356 354 349 346 330 331 323 325 327 330 338 337 335 335 334 333 334 334 335 335 336 333 332 330 328 329 328 327 327 327 326 325 326 327 325 325 325 324
357 357 357 359 358 355 351 346 343 334 330 325 325 328 333 335 332 332 333 334 334 336 337 337 335 333 334 331 328 325 325 327 327 326 326 326 327 327 327 326 325 325 326
357 358 358 358 356 353 350 347 342 335 331 333 334 334 334 336 334 333 332 332 334 336 338 336 334 331 332 333 332 330 327 327 326 327 328 328 327 326 326 326 325 324 323
357 357 357 356 354 352 349 346 343 337 334 337 338 337 336 336 337 337 334 334 336 338 338 336 333 331 331 332 332 330 328 328 328 328 327 325 325 324 322 321 321 321 321
355 355 355 353 352 349 348 347 345 341 338 340 340 339 338 338 339 338 336 335 336 337 333 330 327 326 332 330 326 327 327 326 325 324 322 320 319 318 318 319 320 321 323
354 354 354 351 351 349 348 347 344 343 341 340 340 339 339 340 338 337 335 335 335 333 328 331 331 330 329 325 323 325 325 325 324 322 321 321 319 320 320 320 320 321 321
353 354 352 351 351 350 348 346 345 343 341 342 340 339 339 336 338 336 332 333 332 332 332 333 332 327 323 320 317 321 323 322 319 320 319 317 316 317 318 319 320 319 318
354 353 351 350 349 349 347 344 342 341 342 341 340 340 339 340 339 338 333 330 331 332 335 331 329 326 318 315 314 317 317 315 317 319 318 315 316 316 316 316 316 316 314
352 349 349 349 347 345 343 341 341 341 341 340 340 340 339 339 334 332 329 328 329 332 331 327 323 318 316 315 313 314 314 317 319 317 315 315 315 314 314 314 313 311 312
350 350 348 346 346 343 343 342 343 342 340 340 339 336 334 335 333 329 328 328 326 325 323 320 319 318 317 317 317 314 317 317 315 313 314 314 313 313 312 311 310 309 314
348 348 345 344 343 344 340 338 339 336 335 336 335 332 332 334 334 331 329 327 326 325 323 322 321 321 320 320 319 318 316 314 313 313 312 312 311 310 309 308 307 310 316
346 345 344 344 343 343 338 333 332 331 328 329 332 333 332 332 330 327 324 323 321 318 318 320 320 320 319 319 318 316 313 312 311 310 309 309 308 307 307 306 307 311 316
344 343 342 340 339 339 338 335 332 325 328 327 328 328 325 326 324 322 320 316 314 314 317 318 318 318 317 316 314 312 311 310 309 308 307 307 306 306 305 306 307 310 314
342 339 338 338 337 336 335 334 334 332 330 324 321 321 321 319 317 315 314 314 315 315 317 317 317 316 314 312 311 310 309 308 306 305 305 305 305 305 305 305 306 309 313
334 334 335 333 332 331 331 331 331 331 329 328 314 311 312 314 314 314 314 317 318 317 315 314 312 311 310 310 310 308 306 304 301 303 304 304 304 304 304 304 305 307 311
332 331 331 331 333 332 333 332 331 330 329 328 324 323 315 314 317 317 316 317 316 315 313 312 310 310 310 309 307 305 303 302 303 303 303 303 303 303 304 304 304 305 311
332 332 332 332 331 331 330 329 328 328 327 326 325 324 321 321 320 319 318 316 315 314 312 311 311 309 308 305 303 302 301 302 302 302 302 302 302 303 303 303 303 304 306
331 330 329 328 328 328 328 328 328 327 325 325 324 321 320 319 319 320 319 316 315 313 312 311 309 307 304 303 300 300 301 301 302 301 301 301 301 302 302 302 303 304 304
329 328 329 329 329 328 328 327 327 326 325 325 324 323 319 319 319 320 318 316 314 312 311 308 307 305 302 299 297 299 300 301 300 300 300 300 301 301 302 302 302 303 303
328 328 327 326 325 325 324 325 325 325 325 324 324 323 321 319 320 318 316 314 313 312 310 307 305 304 301 297 297 298 298 298 298 299 299 300 301 301 302 302 302 303 303
325 325 324 324 324 323 324 323 323 322 322 322 321 320 319 319 318 316 315 314 313 312 309 306 305 303 299 297 296 296 295 293 294 295 297 300 300 301 301 301 301 302 302
320 319 319 319 319 319 319 319 319 318 318 317 318 317 317 317 317 317 316 314 313 311 309 306 304 301 299 297 296 295 294 293 292 293 294 299 300 301 299 300 300 301 302

GFSGL_925_thetae_009.txt.gz
Theta_e
361 361 361 361 361 362 360 358 357 351 351 346 348 345 340 339 338 337 337 336 336 336 335 331 332 335 334 332 330 330 328 329 330 329 328 329 331 329 329 330 331 330 329
360 361 362 361 361 361 362 361 358 354 353 349 347 345 339 339 338 338 338 336 335 334 333 332 334 334 336 337 333 333 332 330 330 333 330 330 329 329 330 329 329 329 328
357 360 361 361 362 361 362 361 360 359 355 351 347 346 340 338 338 338 338 338 337 335 334 334 335 335 335 334 334 333 331 330 331 328 328 328 328 328 327 329 327 329 329
354 355 359 361 361 361 361 361 361 359 357 351 346 345 340 339 338 339 338 338 339 338 335 334 335 336 336 336 335 335 334 333 331 330 328 329 329 328 329 327 328 326 326
354 355 358 362 361 360 359 362 362 360 357 351 345 342 341 338 338 339 337 337 338 338 335 334 335 336 335 336 335 333 333 331 330 329 329 328 327 327 328 328 329 328 327
358 358 360 364 363 362 361 362 361 358 355 349 343 339 336 335 335 336 337 335 337 337 336 336 337 337 335 332 331 332 331 330 330 329 329 329 329 329 328 328 328 327 326
360 362 362 366 365 365 363 361 359 355 352 345 340 335 334 336 336 335 332 335 336 336 337 338 338 337 333 334 334 332 330 330 329 328 330 330 330 329 327 327 326 326 325
364 363 364 365 366 365 363 359 355 352 350 345 339 335 337 338 337 335 333 334 334 334 336 337 338 338 337 333 330 329 332 332 331 330 329 329 328 326 325 323 322 322 321
362 363 363 363 364 362 360 357 353 351 350 344 339 337 340 341 340 337 336 336 337 337 337 338 339 338 332 329 328 329 330 330 330 328 326 324 323 321 320 320 320 320 320
360 360 361 361 360 359 357 355 352 351 348 345 341 341 343 343 341 338 338 338 338 338 337 339 337 330 331 331 330 327 329 330 328 326 327 324 323 323 320 320 321 322 321
356 357 359 358 358 356 354 353 352 350 347 344 342 343 343 343 342 340 339 337 337 337 338 336 334 333 330 329 326 325 327 325 326 322 321 321 322 320 317 319 322 321 320
356 357 358 357 355 354 352 352 351 347 346 346 344 345 344 343 341 340 337 337 336 336 335 333 334 334 328 324 321 318 317 317 319 319 321 321 320 316 316 317 317 316 317
357 358 356 353 352 352 352 351 347 346 344 344 343 344 344 342 340 338 337 334 332 331 331 332 330 327 323 319 318 315 314 317 319 321 321 317 315 315 315 315 316 314 314
356 353 352 351 350 348 348 346 343 343 343 344 344 344 343 341 338 334 330 329 328 328 327 325 322 321 320 321 319 319 318 319 320 318 315 315 314 314 313 312 311 310 309
354 353 350 348 347 345 341 341 342 338 340 341 341 341 338 334 333 332 330 329 330 328 328 326 325 324 323 323 322 321 320 319 318 316 315 313 312 312 311 310 309 308 309
351 350 348 346 345 343 339 332 333 333 333 333 333 334 332 332 333 333 330 327 326 324 324 323 323 322 322 321 321 321 319 317 316 315 312 311 311 310 309 308 308 308 310
347 346 344 344 344 344 341 340 337 329 328 328 328 330 330 329 330 329 328 326 323 319 319 320 321 321 320 320 319 317 315 314 313 311 310 309 308 308 307 307 307 308 310
346 343 342 340 339 339 338 337 335 333 331 326 323 326 325 325 324 323 321 318 316 315 318 319 320 319 318 317 315 314 313 312 310 308 307 307 307 307 307 307 307 307 308
343 340 339 339 338 336 334 334 333 333 332 329 318 317 318 318 316 315 315 318 320 321 320 318 317 316 315 314 313 312 311 309 306 304 306 306 306 306 306 306 306 306 306
336 336 337 335 333 332 332 331 331 331 330 328 326 323 315 313 315 317 317 319 320 319 318 317 315 314 313 313 312 310 308 306 305 306 305 305 305 305 305 305 305 306 306
333 333 332 334 333 332 332 331 330 329 328 328 328 325 320 319 322 322 321 321 320 318 317 316 315 314 313 312 309 307 305 304 305 305 305 304 304 304 305 304 305 305 306
333 333 331 332 331 330 329 328 328 327 326 326 324 323 322 323 322 322 322 321 319 318 317 316 315 313 311 308 307 305 303 304 304 304 303 303 303 304 304 304 304 305 305
331 330 330 329 330 329 329 329 328 327 327 326 323 322 323 324 322 322 321 320 319 318 317 315 313 311 308 306 303 301 302 303 303 302 302 303 303 304 304 305 305 305 305
330 329 329 329 329 329 328 326 326 326 326 326 325 325 324 323 322 321 320 319 319 317 315 314 312 309 308 305 301 300 301 301 301 301 302 302 303 304 304 304 304 304 305
328 328 327 327 326 326 325 324 325 325 324 324 324 324 323 322 321 320 320 317 315 315 314 313 311 308 307 304 301 300 298 297 296 294 298 301 303 303 304 303 303 303 304
324 324 323 323 323 322 322 322 322 322 323 322 322 323 321 319 319 318 318 317 316 315 314 313 310 308 306 302 300 298 297 295 294 294 293 298 302 303 302 301 302 303 303

GFSGL_925_thetae_012.txt.gz
Theta_e
368 367 366 366 365 360 362 356 359 351 351 350 350 349 347 345 341 341 337 335 336 336 334 334 332 333 333 333 335 333 329 328 334 329 326 328 328 328 328 329 329 329 330
367 366 366 366 366 365 361 363 359 359 354 346 348 349 347 345 340 341 337 338 340 337 336 335 333 333 334 333 334 333 333 333 332 333 331 330 332 330 329 328 328 332 330
365 365 366 365 366 365 365 361 364 359 356 353 350 349 349 343 342 341 337 337 337 335 335 334 332 333 336 335 337 334 334 333 335 333 332 330 329 327 328 327 327 328 328
363 364 364 365 365 364 365 365 362 362 360 357 353 351 350 344 342 339 341 341 338 336 337 336 335 336 336 336 334 334 334 334 333 332 333 333 331 329 329 330 329 328 329
360 362 364 365 364 364 364 365 365 363 363 360 357 353 351 346 343 343 342 342 340 340 340 336 334 336 337 336 336 335 336 334 332 330 328 329 330 330 330 329 329 328 328
355 359 361 363 365 364 364 363 365 364 365 362 359 353 351 346 340 339 340 342 340 341 340 339 335 335 335 335 335 334 334 332 330 329 330 329 330 330 330 329 329 328 328
355 357 358 361 364 365 364 364 364 365 364 362 360 353 350 345 338 335 338 339 337 338 342 338 336 336 338 337 335 333 332 331 330 328 327 330 330 330 329 328 328 328 326
359 359 360 363 366 366 365 365 365 365 364 361 358 352 345 340 337 336 335 335 336 338 339 338 336 336 338 337 335 335 333 329 329 330 331 331 329 328 327 325 321 320 321
360 368 363 371 370 369 368 367 366 364 360 356 353 347 339 338 337 337 337 335 334 336 336 336 337 337 337 336 336 334 329 330 331 330 330 329 329 327 324 321 322 321 322
365 365 368 369 371 370 368 366 361 357 354 353 349 344 339 338 340 340 339 336 336 337 336 334 336 336 336 334 332 331 332 330 330 331 329 327 326 325 321 322 323 322 322
366 366 367 367 368 367 365 360 356 353 353 350 346 343 341 338 342 343 341 337 338 338 336 338 338 336 335 333 330 330 330 329 327 325 325 322 321 322 324 324 322 322 323
365 366 366 365 363 361 357 354 354 352 350 347 345 343 342 343 342 342 341 339 339 337 338 337 336 334 334 333 327 324 322 319 318 320 321 321 322 318 316 316 315 315 315
362 364 363 361 359 357 354 353 352 350 348 346 347 346 344 342 342 341 340 338 337 336 335 336 332 330 332 328 322 320 319 319 318 320 321 320 315 316 315 315 316 314 312
363 361 358 354 354 353 353 352 349 348 346 346 346 345 343 343 341 338 338 336 333 332 330 328 328 328 326 322 322 321 320 319 320 321 319 317 317 314 313 313 312 310 309
356 354 352 350 350 349 346 347 345 343 344 345 343 342 341 341 340 336 331 330 329 328 328 328 323 323 323 322 320 321 321 320 320 321 317 316 313 312 312 311 309 308 310
354 352 349 348 346 341 338 335 338 338 336 336 338 340 338 335 333 331 330 330 329 329 328 329 327 327 326 324 324 323 322 321 320 316 314 313 312 311 310 308 308 309 310
351 350 349 347 346 343 339 336 331 328 329 330 330 332 333 330 333 333 330 327 326 325 325 323 322 323 321 321 320 318 317 316 314 313 312 311 308 308 309 308 308 308 309
352 349 347 347 346 346 345 341 340 333 330 326 327 328 328 328 328 328 327 325 323 320 318 320 321 320 318 318 317 315 314 313 311 309 306 306 307 308 307 308 308 307 307
345 344 343 342 344 344 341 340 337 335 333 325 321 323 324 324 324 322 321 320 322 322 321 321 319 318 316 315 315 314 313 311 308 306 306 308 307 306 307 306 306 306 306
344 341 340 339 337 336 336 335 334 335 329 324 324 321 318 319 318 318 317 317 320 321 320 319 317 316 315 314 314 313 310 308 306 306 307 305 306 306 305 306 306 306 306
337 337 336 337 335 334 333 332 332 332 332 330 327 322 322 321 321 321 322 321 321 321 320 318 317 316 315 314 313 310 308 305 305 305 305 305 304 305 305 305 305 306 306
333 334 334 334 334 333 333 332 330 329 331 331 330 325 322 323 324 324 323 322 321 320 319 318 317 317 314 311 308 307 306 304 304 305 304 304 304 304 305 304 306 306 306
333 331 330 332 331 330 330 330 328 328 327 327 326 321 319 323 325 324 323 322 320 318 318 317 316 315 312 309 307 304 302 303 304 303 303 303 303 304 304 305 305 305 305
331 330 330 331 330 330 330 329 328 327 327 327 325 323 323 325 323 322 321 321 320 318 318 316 315 314 310 308 306 302 302 302 302 301 301 300 302 304 304 305 305 304 305
329 330 330 330 328 327 327 327 327 327 326 325 325 326 325 325 324 321 321 319 319 318 316 315 314 312 310 308 305 301 299 299 298 297 295 299 301 303 304 302 303 303 304
326 326 325 324 324 325 324 323 324 324 325 324 323 323 324 324 323 321 320 320 319 317 317 315 314 312 309 307 304 302 299 298 296 294 295 295 300 303 303 302 303 303 303

GFSGL_925_thetae_015.txt.gz
Theta_e
364 363 364 362 361 357 358 360 352 354 351 349 350 347 347 345 341 341 341 339 337 336 337 335 335 334 334 332 333 333 331 330 332 330 329 328 329 328 328 329 329 329 331
365 365 365 364 363 362 359 359 355 353 353 351 350 348 348 347 343 340 341 340 336 339 335 335 335 336 334 332 332 332 334 333 333 331 331 331 331 328 329 328 327 327 328
366 366 365 364 366 364 361 359 357 354 353 353 350 349 348 347 345 342 339 340 337 337 337 335 334 332 330 331 334 334 335 334 333 333 333 331 330 331 331 329 328 330 329
367 367 366 365 364 364 364 360 359 363 357 356 352 350 348 347 346 343 341 340 337 337 339 338 338 335 330 334 336 335 335 333 333 333 333 332 332 330 330 330 328 328 327
366 366 365 365 364 365 364 364 361 360 362 359 356 351 349 348 347 345 340 339 339 335 339 337 335 334 332 333 335 334 334 334 335 335 333 330 329 328 329 330 330 329 327
364 364 364 364 364 364 364 364 365 363 361 362 358 354 352 351 349 346 342 341 338 339 339 337 338 336 335 335 337 336 335 334 335 334 332 329 329 328 329 329 329 328 326
360 363 363 362 363 363 364 363 364 365 363 364 361 358 355 352 350 345 343 341 340 341 339 338 341 339 336 335 335 335 335 333 333 332 330 329 329 327 329 330 328 327 328
356 360 361 362 362 364 364 364 363 365 364 364 363 361 358 353 350 345 341 341 340 341 340 340 338 338 336 335 336 337 336 334 333 332 329 329 329 329 329 329 328 326 323
354 356 359 360 362 363 364 364 364 364 365 364 363 360 356 351 348 340 335 336 340 338 337 336 338 338 336 336 334 334 333 332 331 329 329 329 329 329 329 328 325 322 320
352 355 357 358 361 364 364 364 365 365 364 362 360 357 353 348 342 341 336 334 332 333 335 335 337 336 336 334 331 332 331 330 331 330 331 328 327 326 324 324 323 321 320
352 361 360 362 366 366 366 367 366 362 361 358 355 350 347 346 342 339 337 337 338 337 336 335 335 334 333 332 331 332 331 330 330 328 326 321 320 320 321 321 319 319 320
364 366 370 370 369 368 368 363 360 357 353 351 349 346 345 342 341 338 341 342 341 337 337 336 335 335 334 333 333 329 328 326 322 319 318 319 320 318 316 315 314 315 316
368 368 367 367 365 365 358 355 353 353 351 348 346 344 344 343 343 342 342 341 339 337 338 336 335 334 333 332 331 328 323 319 319 318 319 320 318 317 313 312 312 312 310
364 361 361 359 357 355 353 352 351 350 348 347 345 344 344 343 341 341 340 339 338 337 336 334 332 329 329 329 326 322 320 320 319 319 320 320 317 313 312 312 310 309 307
357 355 354 354 352 351 350 349 349 348 345 344 345 345 343 342 342 340 335 336 336 334 330 327 326 324 323 322 321 321 321 320 319 320 321 317 313 311 311 309 309 308 308
351 350 349 345 343 344 342 340 342 343 342 344 345 342 342 340 339 335 329 328 328 328 326 326 325 324 325 325 325 323 321 321 321 320 315 312 311 310 308 308 308 307 308
350 348 346 343 341 339 338 337 330 330 333 335 341 340 337 337 335 331 329 329 329 328 328 329 327 323 323 322 322 322 321 321 320 313 308 307 307 307 307 308 307 307 307
349 348 346 343 342 341 341 338 335 330 329 328 329 331 331 329 331 331 329 326 324 325 325 323 321 319 318 317 316 315 313 312 311 309 307 306 306 307 307 306 306 307 305
349 348 347 345 343 341 340 336 333 332 328 326 326 327 327 328 329 328 326 325 323 321 320 318 320 316 315 315 314 313 312 311 310 307 306 306 307 306 306 305 305 305 305
348 347 346 346 346 344 342 340 337 333 328 325 323 325 324 325 324 324 323 321 319 320 321 318 316 316 315 315 314 313 311 308 307 306 307 306 305 304 304 304 305 304 306
342 340 339 338 343 342 338 336 335 333 328 326 324 325 326 325 323 321 319 318 317 321 320 317 316 316 316 315 314 313 308 306 305 306 305 304 304 304 304 304 304 305 306
337 336 335 336 334 334 333 332 333 332 328 326 325 323 324 323 321 321 320 320 320 322 320 318 317 316 314 314 312 308 307 305 304 304 304 303 303 303 304 304 305 305 304
334 335 333 332 333 331 330 328 329 331 330 328 328 325 321 322 323 324 323 323 322 321 319 318 317 316 313 310 308 307 303 303 303 303 303 303 303 303 304 304 304 304 303
331 331 331 330 330 330 328 327 327 327 327 327 327 326 320 322 323 323 323 322 321 319 318 317 316 314 310 307 305 303 301 302 302 302 301 298 300 303 303 303 302 302 303
329 330 329 329 328 327 327 327 327 327 327 326 325 323 323 323 324 322 321 321 320 319 318 317 315 313 311 310 308 304 301 301 300 299 298 297 295 301 303 302 301 303 303
327 327 327 327 326 325 324 324 322 327 326 327 326 324 324 325 324 323 321 320 319 318 318 316 315 313 310 309 308 306 302 301 299 297 294 295 296 302 303 302 302 302 302

GFSGL_925_thetae_018.txt.gz
Theta_e
359 358 357 355 355 356 356 355 353 352 355 353 352 351 349 347 344 336 337 340 340 334 336 336 336 333 333 334 333 334 331 332 331 331 330 329 329 329 329 328 328 329 329
359 359 359 358 357 355 355 354 354 356 354 354 353 352 349 347 345 341 338 339 339 336 335 338 337 334 334 335 333 332 332 330 334 331 331 330 330 329 330 330 330 329 328
359 360 361 360 359 358 356 355 354 354 355 354 351 350 350 348 346 345 342 338 338 338 335 336 335 334 334 335 334 332 333 335 333 333 332 331 329 331 330 330 329 329 329
361 360 360 362 361 360 358 357 356 354 358 355 353 351 349 349 347 346 344 341 338 338 336 335 337 335 334 333 331 330 334 335 334 333 333 332 332 330 330 328 329 329 328
361 362 361 361 362 361 361 359 357 356 356 356 354 353 350 349 348 347 345 343 339 339 338 336 337 337 336 336 333 330 336 335 334 334 333 332 331 330 329 328 329 329 329
362 362 363 362 362 362 362 362 359 358 358 358 357 354 353 351 349 348 347 345 342 340 339 336 334 336 337 336 334 332 333 335 334 331 330 331 331 330 328 328 328 329 325
362 363 363 363 362 362 362 362 362 360 358 360 361 358 356 354 352 349 347 345 344 342 339 338 334 337 337 337 336 335 336 334 334 326 331 332 330 329 328 328 329 329 328
362 363 364 363 362 362 362 362 362 363 361 359 359 360 360 358 355 352 349 345 343 342 341 338 337 338 337 337 336 335 335 333 327 330 329 330 330 329 330 330 329 329 328
360 361 363 362 361 362 361 362 362 363 363 362 362 360 360 357 356 353 350 344 343 342 341 340 340 339 339 337 335 336 334 331 329 331 330 330 330 329 327 326 326 327 323
356 359 361 361 360 361 361 361 362 362 363 363 362 362 360 357 356 352 348 344 342 340 340 341 338 335 337 335 335 335 333 329 329 330 330 329 327 326 324 320 320 323 321
355 356 359 360 360 360 361 361 362 362 362 361 360 360 356 356 351 350 346 339 336 335 334 334 335 335 336 335 333 332 331 329 330 329 327 322 319 319 319 318 315 315 319
353 353 354 358 358 360 362 362 362 361 359 356 355 353 354 351 348 345 342 339 337 336 337 338 337 336 335 333 332 331 330 329 328 323 318 318 319 319 316 315 313 312 312
350 354 355 356 359 362 361 360 357 357 352 349 347 347 346 345 343 341 339 339 341 341 340 338 337 335 333 331 330 331 329 327 322 318 318 319 320 318 314 313 312 310 309
357 363 364 362 361 360 358 356 354 350 348 346 346 345 345 343 342 341 340 341 341 340 337 337 335 334 331 330 330 329 326 322 318 319 319 319 320 315 313 311 309 308 308
362 361 359 355 353 348 348 349 348 350 350 347 346 345 343 342 342 342 341 340 339 337 336 335 332 328 328 327 326 323 321 319 319 318 319 320 319 313 311 309 307 308 307
355 352 345 339 335 334 340 342 348 348 346 344 343 343 343 342 341 340 335 331 336 335 332 328 326 325 323 323 323 321 321 321 320 319 320 316 312 310 307 307 307 306 306
351 344 340 339 339 337 337 334 325 338 343 344 344 343 341 338 336 331 328 327 328 329 326 326 325 325 325 323 323 323 322 322 322 321 312 308 307 306 306 307 306 305 305
345 343 342 340 339 338 335 333 331 329 330 333 341 339 340 339 337 330 328 328 329 327 327 328 327 322 321 320 319 317 317 314 312 310 309 306 306 307 306 305 304 304 304
344 343 341 340 339 337 336 333 330 330 330 332 331 331 334 335 331 329 328 327 326 325 324 323 319 318 317 316 314 313 312 311 309 307 306 306 306 305 305 304 304 304 304
346 344 342 340 339 337 335 333 332 331 328 326 326 328 328 329 328 328 328 326 325 323 320 321 318 316 315 314 314 313 312 310 307 306 305 306 305 304 303 304 304 304 304
346 345 344 342 341 340 338 335 332 330 328 328 326 326 327 327 327 327 326 324 321 319 320 319 316 315 315 315 314 313 310 307 305 304 305 304 304 303 304 304 304 304 303
337 338 338 344 342 341 340 339 336 331 329 325 323 324 326 325 325 324 323 323 320 317 319 318 317 316 316 315 314 313 310 307 306 304 304 303 303 303 303 304 304 303 302
335 333 334 335 337 338 337 338 336 332 328 327 325 324 323 324 322 322 322 321 319 318 321 317 317 316 316 315 313 311 308 304 303 304 303 303 302 302 303 303 303 301 302
331 331 330 330 330 330 329 329 331 330 328 327 326 325 323 323 323 322 322 322 321 320 320 318 317 317 314 311 309 307 305 303 302 303 302 301 300 298 302 303 302 301 302
329 329 329 329 327 327 327 328 330 330 330 329 327 326 324 322 322 323 324 324 324 322 319 318 317 316 313 310 309 308 304 301 301 301 300 299 298 296 302 302 301 301 301
329 328 328 327 326 325 325 326 326 326 327 327 326 325 324 322 322 323 322 322 321 320 318 317 315 314 311 312 312 309 306 302 300 300 297 295 295 298 302 303 301 301 300

GFSGL_925_thetae_021.txt.gz
Theta_e
353 354 353 353 353 353 353 352 350 349 353 353 353 353 350 350 350 346 340 336 338 338 336 336 333 333 331 331 333 333 333 331 327 330 331 328 328 328 328 329 328 328 329
352 353 353 353 354 354 353 353 350 350 352 353 354 353 351 351 352 347 343 338 337 338 337 335 334 335 336 333 334 333 333 331 330 328 329 330 330 330 329 330 329 330 329
353 354 354 353 353 354 354 353 352 351 354 352 353 353 351 351 351 348 345 341 337 337 336 334 332 336 336 334 334 334 333 332 333 333 331 331 331 330 329 329 329 328 327
354 355 355 355 354 353 353 354 354 353 354 354 354 353 353 352 351 349 346 344 340 339 337 337 333 334 335 334 334 334 333 332 333 334 333 332 331 331 330 329 329 328 327
355 356 356 356 356 355 355 354 353 353 354 353 354 354 352 351 351 349 347 346 345 343 339 338 337 334 335 335 335 334 332 332 334 334 332 331 329 327 328 329 328 327 326
355 356 356 357 357 357 357 356 355 354 354 354 353 353 353 351 351 350 348 347 346 344 341 340 338 336 335 336 337 336 336 333 333 334 332 329 328 328 329 327 327 327 326
357 357 357 357 358 358 358 358 357 355 355 354 354 353 354 354 353 352 350 348 346 343 343 342 339 338 337 335 336 337 337 335 333 333 330 326 327 330 329 328 328 327 327
357 358 358 358 358 359 359 359 358 357 356 355 355 354 354 354 354 353 352 348 345 344 344 344 342 341 338 334 336 337 336 335 335 330 329 327 329 328 329 329 329 329 328
357 358 359 360 359 359 359 359 360 359 356 356 356 356 356 355 357 358 354 347 344 344 344 345 342 341 340 337 338 337 335 335 334 332 327 328 329 329 329 326 326 325 323
357 358 359 360 360 360 360 359 360 360 359 357 357 357 357 357 357 357 356 348 343 344 347 343 342 341 340 339 339 337 334 333 333 331 329 329 328 327 324 321 319 320 320
356 358 359 361 361 360 360 360 360 360 360 359 359 358 359 360 358 356 354 350 347 346 344 342 340 340 335 334 334 336 333 330 331 330 329 325 318 318 318 318 315 314 317
353 356 359 360 361 360 360 360 360 360 360 360 356 357 360 359 355 351 352 348 347 340 337 335 335 336 336 335 336 334 332 331 329 328 322 318 319 320 317 316 313 312 312
352 354 355 358 359 359 359 360 360 360 360 353 352 351 346 350 349 349 347 345 341 338 336 336 338 337 336 335 333 332 332 330 327 323 318 318 319 318 316 313 313 311 309
350 352 353 357 358 358 359 360 360 360 356 352 351 347 344 347 347 343 341 339 338 337 340 339 337 336 334 332 330 331 329 327 325 319 318 318 319 320 316 312 311 308 307
348 350 351 354 357 359 357 359 359 355 353 350 347 346 343 339 341 342 340 338 338 339 339 336 335 333 331 328 328 327 326 324 321 318 318 318 319 319 315 310 308 307 306
349 354 355 356 343 338 339 338 345 347 348 348 348 346 344 342 342 342 341 341 340 339 335 334 333 329 327 326 323 322 321 321 320 319 318 319 319 314 310 307 306 306 304
358 351 345 341 340 343 343 341 337 337 340 339 332 344 343 342 342 341 340 337 337 335 334 332 328 325 323 323 323 323 323 323 321 320 320 316 309 307 305 306 305 304 304
341 342 342 342 341 340 337 334 332 331 332 332 342 342 342 341 340 336 329 330 329 329 328 325 325 325 325 322 321 321 321 319 320 319 312 308 306 306 306 305 304 303 303
342 341 337 337 338 335 334 334 334 334 332 331 338 340 339 336 331 327 327 327 327 326 326 327 327 326 322 320 320 318 316 314 312 310 310 306 305 306 305 303 303 303 303
326 338 338 336 334 334 330 331 332 331 329 330 330 334 335 333 328 327 327 328 327 327 325 325 321 319 319 317 315 314 313 312 311 309 306 305 305 305 303 303 303 303 303
333 338 337 336 334 332 331 331 329 328 326 327 330 335 337 332 326 327 326 325 325 325 323 320 319 318 317 315 314 313 312 310 308 306 304 305 304 303 303 303 303 303 302
341 341 340 339 337 335 333 331 329 328 328 327 326 327 329 329 328 328 326 325 325 322 320 320 320 318 316 314 315 314 313 310 308 307 304 304 303 303 303 303 303 303 301
337 342 341 340 340 338 336 334 332 329 326 324 325 324 324 325 326 326 325 324 324 319 319 319 318 317 315 315 315 314 313 311 309 306 304 303 303 302 302 302 302 301 301
333 334 335 338 338 337 336 336 334 330 328 325 324 324 324 324 324 324 323 323 322 319 317 319 317 316 315 315 315 313 311 308 305 303 303 303 302 299 298 301 302 301 301
330 329 329 331 332 332 331 330 330 329 328 328 327 324 324 325 324 323 323 322 321 320 319 318 321 317 316 316 314 310 308 309 305 302 302 301 300 298 297 299 302 301 300
329 329 328 327 327 328 328 327 328 328 328 328 329 327 324 323 323 323 322 322 323 323 321 320 319 317 316 313 312 309 309 308 304 301 300 299 297 295 296 302 302 300 300

GFSGL_925_thetae_024.txt.gz
Theta_e
351 351 351 350 350 350 350 351 351 350 350 350 347 350 351 353 352 351 348 345 338 337 337 336 333 332 333 333 333 331 331 329 329 328 329 330 327 327 328 328 329 329 329
351 352 352 351 351 350 350 351 351 350 351 351 346 350 351 351 352 351 349 347 340 337 337 337 335 333 332 331 330 332 332 331 331 330 329 329 329 329 329 328 330 329 328
349 352 352 352 351 351 351 351 351 351 351 351 348 350 352 352 352 351 349 349 346 340 335 336 335 334 334 334 333 332 333 332 331 330 331 331 330 330 330 330 329 329 328
348 350 352 352 352 351 351 351 351 351 351 351 350 351 352 353 352 351 350 350 349 344 339 337 336 335 333 335 335 333 333 334 332 332 332 332 332 331 329 328 328 328 328
349 349 351 351 352 352 352 352 351 351 351 351 350 351 352 351 352 351 350 350 349 346 343 339 339 337 335 331 335 335 333 333 332 332 332 332 332 330 327 328 328 327 328
350 350 351 352 351 351 351 352 352 352 352 352 351 350 352 351 350 351 352 351 349 346 344 343 340 339 335 335 334 335 335 334 333 332 333 332 331 328 327 329 328 327 328
351 351 352 352 353 353 352 352 352 352 352 353 352 351 351 352 352 352 351 351 350 348 346 344 342 342 339 337 336 335 336 337 336 335 332 332 330 326 329 328 327 329 327
351 352 353 353 354 354 354 354 353 352 352 352 352 352 351 351 351 352 352 351 349 348 347 345 345 344 343 340 338 336 336 337 336 334 334 331 329 326 329 328 329 328 327
353 353 353 354 355 355 355 355 355 354 353 352 352 351 352 351 351 351 351 349 347 348 348 346 346 344 343 342 339 337 336 337 335 334 334 332 328 329 329 329 328 325 325
353 354 354 355 355 355 356 356 356 356 355 354 353 353 354 352 352 352 352 350 345 345 345 346 346 344 343 341 339 337 338 337 334 333 332 330 329 328 327 324 321 321 321
351 354 355 356 356 356 356 357 357 357 356 355 354 353 354 354 353 353 353 351 347 343 343 344 344 343 341 340 339 338 335 335 333 331 329 328 325 318 317 318 317 315 315
351 354 355 356 357 357 357 357 357 358 358 357 355 354 354 355 355 354 355 352 351 348 346 346 344 340 338 336 335 334 334 335 331 329 328 323 317 319 317 316 315 313 312
350 353 356 357 358 358 358 358 358 358 358 358 356 355 353 353 354 355 354 354 352 349 347 341 335 335 336 335 335 335 334 333 330 327 325 318 318 319 317 316 313 312 310
347 350 353 357 358 359 359 359 359 359 358 357 357 356 353 345 348 352 351 348 346 342 336 335 337 337 336 335 334 333 332 331 329 326 320 317 318 318 319 316 313 310 308
347 346 350 354 357 359 358 357 359 359 358 359 355 353 345 343 341 340 339 341 339 336 336 337 337 335 334 333 331 329 330 328 325 321 318 318 318 318 318 314 310 307 306
356 344 348 352 355 348 340 340 356 356 358 351 344 340 337 337 338 344 344 341 338 336 337 334 333 333 331 328 327 327 325 324 321 319 318 318 318 318 314 309 306 306 305
356 350 348 351 344 339 343 342 334 339 342 338 331 330 332 330 331 335 341 339 337 337 336 334 333 332 330 326 325 323 321 321 321 320 320 319 318 313 308 306 305 304 303
353 351 347 345 344 347 343 342 338 333 331 329 332 332 331 331 335 341 338 337 331 335 338 335 334 332 326 323 322 322 322 322 321 320 320 319 311 307 305 305 304 303 303
337 342 343 345 345 337 333 333 333 332 331 328 324 329 332 336 340 340 337 336 331 332 333 333 332 326 323 323 321 321 320 319 318 317 315 310 306 305 305 304 303 303 302
336 335 335 335 335 335 334 333 333 333 328 326 328 319 319 331 325 328 333 331 330 332 330 326 325 325 325 322 320 319 316 315 313 311 310 308 304 305 304 303 303 303 303
332 335 336 335 332 332 333 333 333 330 329 329 332 324 329 331 327 327 327 326 327 326 326 326 326 325 320 320 317 315 314 314 312 311 309 306 304 305 303 303 303 303 302
332 336 335 333 332 331 331 331 332 331 330 329 325 324 328 327 325 325 326 326 326 326 325 325 321 319 319 318 316 314 314 313 311 308 306 304 304 303 302 303 302 302 301
337 337 335 334 333 331 329 328 329 328 326 325 327 330 330 328 326 326 326 326 326 325 324 321 320 319 318 316 315 316 314 313 311 309 307 304 303 302 302 302 302 302 301
335 336 335 334 334 333 332 330 330 329 327 325 325 325 324 329 330 327 327 326 325 324 320 319 319 318 317 315 315 315 314 312 310 307 305 303 303 302 300 299 300 302 301
330 332 333 334 335 334 332 331 331 329 327 328 326 325 326 326 324 325 326 326 324 322 318 319 318 317 317 315 315 314 313 310 307 305 303 303 302 300 299 297 298 301 300
327 327 327 328 328 329 332 328 328 328 326 325 323 323 326 327 324 325 324 323 322 321 319 317 318 317 316 315 315 314 310 308 306 303 302 301 301 299 297 296 300 301 300

GFSGL_925_thetae_027.txt.gz
Theta_e
352 352 351 352 351 351 351 351 350 350 350 351 351 350 352 349 352 352 351 348 345 344 339 339 338 337 337 337 336 336 335 334 334 334 333 333 329 329 331 330 330 330 332
352 352 352 352 352 352 352 351 350 350 350 350 351 351 353 351 351 352 351 349 347 346 344 340 340 338 337 337 336 337 336 335 334 336 335 334 332 332 334 332 333 331 332
352 353 353 353 353 352 352 352 351 351 351 351 352 353 353 353 352 350 351 351 349 347 345 342 340 340 338 335 335 334 334 336 335 335 335 335 334 334 334 332 333 333 330
351 352 353 354 353 353 353 352 352 352 352 352 351 351 352 353 352 351 350 352 350 348 347 344 342 340 339 334 336 337 336 336 336 335 335 335 335 335 335 334 333 332 330
351 352 354 354 354 354 353 353 353 353 352 352 352 352 352 352 351 352 351 352 351 349 348 346 344 340 337 335 336 338 338 338 336 337 336 336 335 335 332 333 332 331 330
351 351 352 354 355 355 354 354 353 354 353 354 354 353 353 352 351 351 350 351 351 350 350 348 346 343 340 338 335 334 337 339 337 337 337 337 337 334 333 332 331 331 330
351 352 352 354 355 355 355 355 354 355 354 354 354 354 354 353 350 349 349 351 351 350 350 350 347 344 344 339 339 335 334 334 335 339 338 338 337 332 333 333 332 331 331
351 352 353 353 355 355 355 355 355 355 355 355 354 354 354 353 351 348 348 350 351 351 350 350 348 346 344 342 342 339 337 335 335 335 338 339 335 334 331 332 333 333 332
352 353 353 353 355 355 355 355 355 356 356 356 355 355 354 354 352 350 348 350 351 351 351 350 348 347 346 344 342 341 339 339 336 336 336 334 333 330 329 332 332 330 328
353 353 353 354 355 356 356 356 356 355 356 356 356 355 354 354 353 351 350 350 351 351 351 349 347 346 346 345 342 343 342 341 339 336 334 334 332 330 329 329 329 326 323
352 354 355 356 356 356 357 357 357 357 357 356 356 355 355 353 355 351 351 350 351 351 350 347 347 346 345 343 341 344 342 341 338 337 335 334 331 329 326 321 323 322 321
352 354 357 357 356 356 357 356 358 358 358 358 357 356 356 355 353 353 352 351 350 350 347 347 348 349 344 343 340 341 340 337 336 335 333 331 329 324 322 322 321 320 319
353 355 357 358 358 358 359 359 359 358 358 358 357 355 355 353 355 353 353 351 349 348 347 347 348 347 344 340 339 338 335 335 334 332 331 329 325 322 321 319 317 314 314
355 356 357 359 359 360 359 359 358 358 355 352 357 356 355 354 353 350 351 350 347 347 347 344 345 342 339 336 334 334 335 335 333 332 330 326 322 322 320 319 318 317 316
354 353 356 357 358 360 360 360 359 357 358 359 359 357 357 349 343 342 339 336 337 337 339 337 335 333 331 331 332 331 334 330 330 329 326 323 321 321 321 319 318 317 314
351 353 352 353 355 358 361 354 359 359 358 357 359 358 354 349 340 343 346 338 330 335 338 333 333 333 333 333 331 330 330 329 328 326 324 322 322 322 321 318 315 313 312
344 347 350 350 352 359 347 352 345 345 355 355 356 356 354 341 339 336 334 333 332 336 334 335 334 333 333 331 331 330 329 327 325 324 323 322 323 322 318 315 313 311 309
343 340 341 348 353 348 347 345 338 339 335 327 335 342 340 333 331 330 331 334 335 336 336 335 334 333 331 329 329 329 327 325 323 323 323 323 321 319 315 313 311 309 308
340 337 338 337 337 339 343 342 341 334 332 330 326 331 332 333 330 331 332 330 330 333 335 335 334 332 330 329 327 325 325 324 324 323 322 319 316 314 313 311 308 306 306
337 335 335 334 330 328 331 332 334 334 331 326 327 324 325 325 323 325 332 332 333 333 334 334 334 332 329 326 325 324 323 321 321 319 317 314 313 312 310 308 307 307 306
336 338 336 337 336 334 329 332 332 331 331 332 328 320 323 328 324 328 332 333 333 333 335 334 332 329 325 325 323 322 320 318 316 315 314 312 311 309 308 307 307 306 305
338 338 338 334 334 334 333 332 332 331 331 329 324 325 327 332 330 331 332 334 332 332 332 329 327 326 325 323 321 319 317 316 316 314 313 311 310 308 307 307 306 306 305
338 337 336 334 333 332 332 331 330 329 326 324 324 326 330 332 331 330 329 328 328 326 325 326 326 324 322 320 319 318 317 317 315 314 312 310 309 308 306 306 306 305 304
337 338 336 335 334 334 332 330 328 327 327 326 326 328 329 327 326 325 326 326 326 325 325 324 322 321 320 319 318 317 317 316 314 312 311 309 308 306 306 305 304 303 303
330 328 331 335 336 334 333 330 328 327 326 325 324 324 325 326 327 327 326 326 325 325 324 322 321 321 319 319 317 316 315 314 312 310 309 307 306 306 305 303 302 302 302
323 323 323 326 328 329 330 331 330 329 327 324 323 322 325 324 323 325 325 325 324 323 322 321 320 320 319 318 317 315 315 313 309 307 306 306 305 304 303 302 302 302 302

GFSGL_925_thetae_033.txt.gz
Theta_e
362 362 362 363 363 363 361 361 361 360 360 355 358 357 358 358 358 360 357 355 358 356 350 347 346 344 339 338 338 338 337 337 336 335 337 338 339 338 337 336 336 336 334
362 362 362 363 363 363 364 361 362 362 361 361 359 360 359 359 359 360 360 353 358 358 356 351 348 346 344 340 339 338 338 338 337 342 336 340 339 339 339 338 338 334 334
360 362 364 363 364 363 363 364 362 363 363 361 362 362 361 360 359 361 361 360 358 358 357 356 353 349 346 342 339 338 339 339 339 339 337 338 338 341 340 340 340 338 337
358 359 361 364 363 363 363 364 364 363 364 363 362 363 363 362 360 360 361 361 360 359 358 358 356 353 348 347 344 340 340 339 338 338 338 336 337 338 339 338 338 339 339
358 359 361 363 364 364 364 364 364 364 364 364 363 363 364 364 361 361 360 360 361 361 359 359 358 356 351 348 346 344 342 340 336 337 339 339 337 337 339 338 338 336 336
359 359 361 363 365 366 366 365 366 365 365 365 365 364 364 364 360 359 360 361 360 361 361 360 358 356 353 350 347 347 346 344 344 343 341 340 342 340 339 338 338 337 337
358 361 361 363 366 367 367 367 366 367 366 366 365 365 365 364 362 358 357 360 361 360 361 361 360 356 355 353 349 346 345 343 343 345 345 344 343 341 341 340 340 339 338
359 360 361 362 366 367 368 368 368 367 367 367 367 366 366 365 364 360 357 356 359 360 360 361 361 356 356 355 353 347 345 342 340 340 343 344 342 342 343 342 340 340 339
362 361 361 364 365 367 368 368 368 368 367 367 367 367 366 366 365 363 360 356 358 359 359 360 360 360 359 356 355 354 349 346 343 340 337 340 341 341 341 340 339 339 338
360 362 362 364 365 367 368 368 368 368 367 366 366 366 366 366 365 364 362 359 358 359 359 359 360 360 360 359 354 356 355 350 346 343 341 339 337 338 340 338 337 337 336
357 360 363 364 366 366 366 368 369 369 366 367 366 366 366 365 366 364 363 361 359 358 359 359 361 359 359 359 357 355 355 352 350 347 341 340 338 339 339 336 336 337 335
356 359 362 364 364 364 366 368 370 369 368 367 367 367 366 366 365 365 364 361 360 359 358 358 359 359 357 357 358 355 353 352 351 347 345 344 341 339 339 338 335 335 332
360 363 363 365 366 364 367 369 368 368 366 367 366 368 367 366 366 365 362 363 360 359 358 358 357 357 356 355 355 352 351 350 349 346 345 344 342 340 339 337 335 331 327
363 364 365 366 367 365 363 365 365 364 365 365 364 365 364 364 363 365 363 361 361 358 357 357 356 355 355 352 352 350 347 346 346 347 346 344 341 339 336 332 330 329 326
360 360 361 361 363 365 365 360 362 362 361 362 363 361 361 362 361 362 364 363 353 350 353 351 346 343 342 344 345 344 343 344 345 345 343 341 339 335 333 330 329 326 325
362 362 361 359 360 362 362 364 362 361 360 360 360 359 360 361 360 359 360 360 357 353 351 346 343 343 340 339 340 339 341 343 343 341 340 339 336 333 331 329 326 325 325
355 356 354 352 352 353 357 358 359 359 360 359 359 359 359 358 359 359 357 358 359 353 350 346 344 342 342 340 340 340 340 341 340 339 338 337 335 332 330 328 326 326 325
346 346 349 350 351 352 354 355 356 356 357 358 348 350 352 353 352 354 354 355 345 351 348 345 343 341 341 340 339 340 341 341 339 338 337 336 333 331 328 327 327 325 323
346 345 344 344 344 344 345 345 345 345 342 338 339 339 338 338 338 340 338 347 338 340 347 344 343 341 340 340 340 340 341 340 339 337 335 334 332 329 328 327 326 323 320
340 339 342 342 340 340 341 342 342 340 340 338 337 335 330 327 328 326 324 326 331 340 344 344 343 340 339 340 341 340 339 337 335 335 334 332 329 328 327 326 322 320 317
342 342 339 340 339 340 340 340 338 339 338 337 334 329 325 328 331 332 329 328 336 337 337 342 340 339 339 339 339 338 336 335 334 333 331 329 328 327 324 321 320 318 316
341 341 340 341 338 337 338 337 338 338 337 335 335 331 329 332 333 336 336 334 336 337 336 338 338 339 338 338 338 336 335 334 332 331 329 327 325 323 321 319 317 315 314
339 339 340 341 340 338 338 337 335 334 333 332 332 333 334 334 334 334 335 333 335 336 337 338 337 337 337 336 334 333 332 331 329 328 325 323 321 320 318 317 315 314 313
338 339 338 337 336 337 337 336 332 329 330 331 332 333 334 332 332 332 332 334 333 334 335 336 336 336 335 333 331 330 328 327 325 323 322 321 320 318 317 315 314 313 312
330 333 333 333 335 333 331 331 330 329 327 326 326 327 330 332 333 331 334 333 334 334 335 335 334 333 332 329 328 327 324 323 322 321 320 319 318 317 315 315 314 312 311
324 325 327 328 328 328 325 323 320 318 318 319 320 321 322 325 327 330 330 330 331 332 331 330 330 329 329 327 325 323 321 321 320 319 319 318 317 316 315 314 313 312 311

GFSGL_925_thetae_036.txt.gz
Theta_e
364 364 363 364 361 360 361 359 361 355 360 352 362 358 358 360 359 360 359 358 359 357 354 350 348 340 340 340 339 339 339 337 340 336 338 337 337 336 337 336 334 336 336
365 364 363 363 364 363 360 361 362 364 357 362 356 358 361 359 360 360 361 357 360 360 355 350 351 346 340 341 344 339 338 339 339 341 338 340 337 337 335 338 337 336 337
364 365 364 363 363 364 364 361 362 362 364 361 363 361 359 361 360 361 361 361 355 361 360 355 352 351 347 339 340 341 340 339 341 339 339 339 342 341 339 337 337 338 334
363 365 364 364 364 364 364 365 362 362 363 363 363 363 364 362 362 361 362 363 361 357 361 360 357 354 349 346 340 339 340 341 338 339 340 338 338 342 340 341 341 340 338
359 363 364 364 364 364 365 365 366 364 363 364 364 364 363 365 363 362 362 363 363 361 359 361 360 359 355 350 348 344 342 338 343 340 340 340 339 340 343 340 339 338 339
359 361 363 364 364 366 365 365 366 367 366 365 366 365 364 365 365 363 362 362 364 363 362 360 361 360 359 355 351 347 343 342 341 340 341 342 341 340 341 339 339 338 339
360 362 362 363 364 365 366 366 366 367 367 367 367 366 365 365 365 364 362 362 362 363 363 362 362 361 359 358 354 350 346 346 342 339 343 344 344 342 342 340 340 340 339
362 362 364 364 365 366 367 368 368 367 368 368 368 367 367 366 365 364 363 361 361 362 362 362 362 361 361 359 356 351 349 347 346 344 344 344 345 343 343 342 340 339 339
361 363 362 365 366 367 368 369 369 369 368 369 368 368 368 367 366 365 364 361 360 361 362 362 362 362 361 359 358 353 349 349 347 346 344 346 347 344 343 342 342 341 342
363 361 362 362 365 367 368 370 370 370 370 369 369 368 368 368 367 366 365 362 360 359 360 362 362 362 362 361 358 357 354 350 348 347 343 342 342 342 342 343 342 341 339
362 362 363 363 363 365 366 370 370 371 370 370 369 369 368 368 368 367 366 364 363 360 359 360 361 361 361 361 360 357 357 355 351 348 346 342 340 338 339 339 340 339 338
353 362 364 366 365 365 367 369 370 371 371 370 370 369 369 368 368 368 367 367 364 363 361 359 359 360 360 360 360 359 357 356 355 350 347 341 340 339 339 337 337 339 338
359 363 364 366 368 365 368 369 370 371 371 371 370 370 369 368 369 368 367 367 366 365 363 362 360 359 359 359 360 359 358 357 355 352 347 344 343 341 340 337 339 336 336
364 365 366 367 368 368 366 369 368 369 370 370 370 369 368 368 369 366 368 367 367 365 365 363 361 360 357 354 357 359 357 355 355 352 349 346 344 342 341 340 339 336 334
363 368 369 368 367 369 369 365 369 368 368 368 369 367 366 367 365 358 362 365 364 364 363 360 359 358 358 349 348 349 353 355 353 351 348 345 344 342 341 339 337 333 331
365 364 364 363 365 367 369 368 364 364 364 363 362 360 360 359 358 358 359 359 357 361 355 358 359 357 353 351 346 348 351 352 351 349 346 344 342 340 338 336 333 330 328
360 361 363 362 362 366 364 368 368 354 353 354 353 351 351 350 353 354 351 350 352 358 356 354 357 356 350 350 347 348 349 349 348 345 344 340 337 338 334 332 331 328 327
345 349 352 351 353 355 355 355 356 356 358 354 347 340 338 337 339 339 339 340 343 349 353 354 353 353 350 347 345 346 346 344 344 344 339 337 337 335 333 331 329 327 326
349 347 347 345 345 346 346 345 345 345 343 341 340 338 335 333 332 333 332 327 329 339 341 347 352 352 350 347 346 345 344 343 344 342 340 339 336 333 332 331 328 327 327
342 343 344 343 343 342 342 344 344 342 342 341 338 334 330 331 334 334 334 331 328 333 337 337 337 338 345 346 345 343 342 342 341 340 339 337 334 332 331 329 328 327 326
340 341 341 340 341 341 341 341 340 340 340 338 337 331 330 331 334 336 336 333 333 336 338 339 339 339 340 342 342 342 342 340 339 338 337 335 334 332 329 328 327 325 321
343 342 342 339 338 339 340 339 339 337 335 335 335 333 333 335 335 335 336 336 336 337 337 336 337 337 337 337 339 339 338 338 337 336 335 334 332 330 328 328 327 323 320
340 341 341 340 338 339 336 334 333 332 332 334 335 335 335 334 334 335 334 334 336 335 335 338 338 338 337 338 338 338 337 335 335 335 333 331 329 328 327 324 321 320 318
336 337 337 334 333 331 332 331 329 327 327 327 327 328 331 333 334 334 334 334 335 334 334 336 337 337 337 337 337 335 334 334 333 332 330 328 327 325 323 321 319 317 316
331 332 332 330 328 327 324 322 320 319 319 319 320 321 323 325 327 328 328 332 334 334 334 335 335 335 334 333 334 332 331 332 330 328 326 324 323 321 320 318 316 315 314
323 325 325 327 327 325 322 319 318 318 317 316 315 316 318 318 320 323 323 323 324 329 332 333 333 333 332 333 330 329 328 328 326 324 322 321 320 319 317 316 316 315 314

GFSGL_925_thetae_039.txt.gz
Theta_e
360 358 360 358 355 357 361 355 349 355 355 348 351 357 355 356 354 353 354 358 358 358 358 355 351 338 337 339 342 339 338 337 336 336 338 337 336 336 337 336 337 338 337
361 359 360 361 360 356 360 361 350 354 352 357 354 356 357 356 355 357 359 357 358 356 358 356 353 349 343 333 340 340 338 338 337 336 339 340 336 336 336 337 336 334 334
361 362 361 361 362 360 358 358 362 355 354 353 358 359 359 358 358 357 356 357 357 358 356 358 355 350 347 344 337 342 341 338 338 340 339 340 337 337 337 336 336 334 335
361 362 363 362 362 362 360 358 357 361 359 358 358 360 361 358 357 358 358 356 358 356 357 360 358 353 349 347 346 339 341 342 340 341 340 339 339 340 339 338 338 337 338
361 363 363 363 362 362 362 362 361 356 361 361 361 362 360 362 360 359 358 358 358 359 356 356 360 359 356 352 348 345 338 340 343 339 339 340 338 339 343 341 339 339 339
359 362 363 363 363 361 362 362 363 363 359 360 363 361 362 363 363 360 359 360 360 360 360 357 356 360 360 358 353 350 346 340 339 344 339 338 339 340 340 342 340 341 340
356 360 362 363 363 363 362 363 363 364 364 362 360 363 362 362 363 363 362 361 360 361 360 360 358 357 360 360 358 356 353 350 344 337 341 339 338 338 338 342 341 340 338
357 358 360 362 363 363 363 363 364 364 364 365 365 363 364 363 363 363 363 363 361 360 362 361 361 359 358 360 359 358 354 352 351 346 339 338 340 338 340 339 341 339 339
358 359 359 363 363 364 364 364 364 364 365 365 366 366 365 365 364 364 363 364 362 361 361 361 362 361 360 359 360 358 355 352 352 352 347 343 341 340 345 345 341 341 340
361 362 361 362 363 363 364 364 365 365 365 365 365 366 366 366 366 365 365 363 361 361 361 360 361 361 361 361 360 359 355 353 351 349 347 346 346 344 345 345 342 341 339
359 360 362 363 364 364 364 365 366 366 367 367 367 366 367 367 367 367 366 366 363 362 361 360 359 359 361 362 361 359 358 356 352 350 349 347 345 345 347 345 344 342 340
361 360 359 359 362 365 366 367 368 368 368 368 368 368 368 368 368 367 367 367 366 364 363 362 360 358 358 359 362 362 360 358 355 350 349 347 344 342 343 343 343 342 341
356 359 361 361 361 362 365 366 369 369 369 369 369 369 369 368 368 368 368 368 368 367 365 364 363 362 360 358 358 359 361 360 357 355 351 349 344 344 343 341 340 341 340
357 368 364 364 366 366 363 366 368 370 369 369 369 368 368 367 368 368 367 367 368 367 367 366 366 364 362 361 360 358 358 355 357 357 356 352 346 342 340 339 338 338 337
355 366 368 366 367 368 366 368 369 368 368 369 368 368 368 368 366 363 363 361 363 363 362 358 359 360 358 358 355 353 353 351 353 356 357 354 344 342 340 339 339 338 336
365 366 370 367 367 368 368 366 365 368 368 367 367 367 362 361 355 354 355 355 355 354 356 354 355 358 360 359 359 357 349 349 352 354 355 351 345 342 341 339 338 336 335
356 364 363 365 366 367 368 368 349 344 348 348 348 348 346 345 344 345 346 347 346 345 348 353 353 354 357 359 359 358 353 350 350 352 353 347 345 342 340 338 336 335 333
347 351 355 354 357 360 360 359 355 346 345 340 337 336 332 332 333 333 333 332 330 331 338 341 344 347 351 354 356 355 354 351 350 351 352 347 343 341 338 336 335 334 331
352 346 345 346 346 346 345 345 345 343 340 339 335 330 329 334 335 335 333 332 333 333 334 335 336 336 337 337 340 344 349 350 350 350 350 346 343 339 335 335 333 331 329
343 344 342 344 345 345 344 342 341 341 339 335 332 331 331 333 335 335 335 332 332 333 334 337 337 339 339 338 338 339 340 343 346 347 348 346 338 335 334 332 329 328 328
342 342 341 341 341 342 341 340 338 336 336 334 333 333 334 334 334 334 334 335 335 335 336 337 337 337 337 337 339 339 340 341 341 341 344 336 334 333 331 330 329 329 327
341 341 340 337 335 334 334 333 334 334 335 334 333 334 334 334 334 334 334 334 333 335 335 334 337 338 337 336 337 339 338 338 339 339 339 337 334 332 331 330 328 326 325
336 335 334 335 331 330 329 329 330 329 328 329 330 330 330 331 331 330 330 334 335 335 334 335 337 338 337 337 338 338 338 337 337 336 334 333 333 332 330 328 326 323 321
333 330 328 326 325 325 323 322 321 322 322 322 322 322 323 324 324 323 323 325 331 335 335 335 336 336 337 337 336 336 336 336 336 335 334 333 331 329 328 327 326 324 322
329 328 326 323 321 320 319 319 318 317 316 315 315 315 316 317 318 317 317 319 321 325 327 329 330 333 334 335 335 334 334 334 334 333 331 330 328 327 327 323 319 320 318
317 325 324 321 319 317 318 317 316 315 314 312 311 310 310 311 312 314 314 315 316 316 316 317 321 326 330 331 332 331 332 330 329 328 328 327 325 324 322 319 317 316 315

GFSGL_925_thetae_042.txt.gz
Theta_e
353 354 353 352 352 357 357 353 351 351 353 349 351 352 353 354 356 355 352 353 357 356 355 355 349 338 339 340 342 341 340 338 335 336 336 337 336 336 336 336 336 335 335
354 355 356 355 353 352 356 359 355 351 350 356 351 354 354 355 355 355 353 351 356 358 356 356 356 354 348 336 339 339 341 339 337 335 335 337 337 336 336 336 336 335 336
355 355 356 357 356 354 352 355 358 356 352 350 356 352 351 354 356 355 354 352 352 354 357 356 356 356 354 349 338 335 337 341 339 338 337 337 339 338 337 336 336 336 336
357 357 356 357 358 357 355 353 356 358 356 349 353 353 358 355 356 355 354 353 353 355 355 355 354 355 356 354 350 343 337 337 343 339 339 338 339 338 336 336 337 336 336
358 358 358 357 358 359 358 356 354 356 358 357 350 355 355 358 358 357 356 354 354 356 355 354 355 355 356 356 355 352 346 343 339 342 341 340 340 340 340 338 337 336 337
358 358 358 359 358 358 360 359 357 356 355 357 359 356 357 358 358 359 358 356 356 356 356 355 353 354 354 355 357 357 355 352 344 340 340 338 339 338 338 339 339 338 337
357 357 359 359 360 360 359 360 360 359 357 355 356 358 359 359 360 360 360 359 358 358 357 356 356 355 354 354 354 356 358 357 355 348 340 339 338 338 338 338 340 340 339
355 358 358 360 360 361 360 360 360 360 361 359 356 356 358 358 358 360 361 361 359 358 358 358 358 357 356 355 356 356 357 357 357 354 348 344 341 339 337 336 337 339 339
353 354 359 360 361 361 361 360 360 360 360 361 361 360 358 358 359 359 360 361 360 360 359 359 359 359 358 358 356 356 356 356 355 357 357 355 351 343 341 338 338 339 338
353 354 355 359 360 361 361 361 361 361 361 361 362 362 362 362 361 361 361 361 359 359 360 361 360 360 360 360 359 357 357 357 355 353 353 354 354 351 345 339 339 340 339
356 355 356 356 359 360 361 361 361 362 361 362 362 363 363 364 364 364 363 363 361 361 360 360 360 360 360 360 360 360 359 359 358 356 352 350 349 347 345 344 342 341 341
357 358 357 358 358 360 360 361 362 362 363 363 362 363 363 363 365 365 365 365 365 363 362 362 361 361 360 359 359 359 360 360 358 358 355 352 351 346 344 344 344 344 343
358 358 359 361 361 361 361 361 362 362 363 364 364 364 365 366 366 366 367 367 367 366 365 364 364 363 362 362 360 359 358 358 356 357 358 356 352 351 347 345 344 344 343
354 361 360 360 361 363 363 363 364 364 365 365 365 366 366 367 367 368 367 367 367 367 367 366 366 364 363 362 360 360 360 355 352 355 357 358 357 352 347 344 343 343 342
360 362 356 365 361 362 362 363 365 366 366 367 367 367 367 367 366 367 366 366 366 365 364 361 360 358 358 359 358 358 356 354 350 350 353 356 357 356 348 345 342 341 341
356 358 364 367 365 364 361 356 362 365 367 367 367 368 365 365 365 364 360 357 356 355 354 354 354 354 354 356 358 358 359 357 354 351 352 353 354 356 350 343 341 341 340
352 349 356 367 366 366 362 356 341 343 349 354 360 364 359 355 350 350 350 349 346 342 343 345 347 347 349 351 352 354 356 356 357 353 352 353 353 353 352 344 341 339 338
348 349 353 360 364 365 365 352 344 340 335 334 334 334 333 334 334 332 331 331 332 333 334 334 335 335 336 336 336 336 337 338 340 342 347 349 349 351 350 346 341 339 337
349 347 349 350 353 358 359 356 347 343 334 331 329 331 333 334 334 332 332 332 332 332 333 334 335 335 335 337 335 336 337 337 338 338 339 340 344 346 346 346 344 338 334
342 344 344 344 344 345 346 342 339 336 331 330 330 330 333 333 333 333 334 334 334 334 334 335 336 336 336 336 336 336 336 337 338 337 339 340 341 338 334 333 334 332 332
342 341 341 340 339 338 336 336 335 332 330 331 332 333 334 334 334 334 334 334 334 333 335 334 334 335 337 337 336 336 337 338 336 334 334 337 337 333 331 329 330 332 331
338 335 334 332 331 332 332 332 332 331 331 330 330 330 331 330 328 328 330 333 334 335 335 334 335 336 337 335 335 336 337 336 337 336 335 334 334 332 332 330 329 328 326
336 333 331 330 329 328 327 326 325 325 324 324 325 325 324 322 321 322 322 324 330 331 332 334 334 335 335 335 335 335 335 336 336 335 334 332 332 331 330 329 329 329 326
329 327 326 324 323 323 321 320 319 320 319 318 318 319 318 316 314 314 315 317 320 324 327 330 331 331 332 333 333 332 334 335 335 335 334 332 331 331 330 327 327 325 324
325 323 322 321 320 318 317 316 315 313 313 313 313 312 312 311 310 311 313 313 314 315 316 317 319 322 327 329 332 332 331 333 333 333 334 333 331 331 329 328 325 324 324
321 320 319 318 317 316 315 313 312 311 310 309 309 309 308 308 309 309 309 311 311 311 312 314 316 315 314 315 319 327 328 331 331 332 330 331 329 327 326 326 325 322 319

GFSGL_925_thetae_045.txt.gz
Theta_e
350 349 349 350 349 349 349 348 347 349 349 348 346 347 348 348 350 355 354 352 351 352 353 352 349 345 343 342 340 341 341 339 334 336 335 337 337 337 336 337 336 336 337
350 351 350 350 351 350 350 350 349 349 350 349 348 347 349 350 350 353 355 354 352 353 354 355 352 352 350 345 340 340 340 340 339 336 337 336 335 336 336 336 336 336 336
349 351 351 350 350 351 352 352 351 351 351 351 352 352 349 350 352 352 353 355 354 353 351 354 354 353 352 353 352 349 339 338 339 339 338 337 337 336 336 336 336 336 336
349 350 352 352 351 350 350 351 353 353 354 353 352 350 353 351 352 353 353 354 355 354 352 350 351 353 354 352 352 353 352 347 338 338 340 340 338 337 338 338 338 337 336
351 352 352 353 353 353 352 351 351 352 352 352 354 353 350 353 353 350 350 353 355 355 354 352 351 352 351 351 352 351 352 352 348 343 338 339 340 339 339 338 337 336 336
352 352 352 353 354 354 354 353 352 352 353 353 352 352 353 351 351 353 356 354 353 354 354 352 352 352 353 353 351 351 353 352 348 344 343 339 338 337 339 338 337 336 335
354 354 354 354 354 355 355 355 354 353 352 354 354 353 353 353 351 351 353 356 357 356 355 354 354 353 354 354 353 353 352 353 354 352 346 346 343 340 339 337 338 338 337
355 355 356 356 355 355 356 357 357 355 354 354 354 355 355 354 353 353 353 355 356 357 357 356 356 356 356 355 355 355 355 355 354 353 351 351 348 346 340 340 339 338 338
353 355 356 356 357 357 356 356 357 358 357 356 355 354 353 354 355 355 355 357 357 358 357 357 357 357 356 356 356 355 356 356 355 355 354 354 353 352 347 340 337 336 337
352 354 355 356 357 357 358 358 358 358 358 359 359 358 356 355 354 354 355 356 356 357 357 358 358 358 358 358 357 356 355 356 356 355 355 355 355 355 352 345 343 338 338
349 351 354 356 357 358 358 359 358 358 358 358 358 359 359 360 359 358 357 357 356 357 357 358 358 358 359 359 359 358 358 358 358 357 357 356 354 351 352 353 350 342 341
352 351 352 353 357 358 359 359 359 359 358 359 359 360 360 360 361 361 361 361 361 359 359 359 360 360 360 360 359 359 359 359 358 357 358 358 358 355 352 349 351 354 345
354 354 353 353 353 356 358 359 359 359 359 359 359 360 360 361 361 362 362 363 363 362 362 362 362 363 362 362 361 361 360 358 352 353 355 356 357 358 357 354 350 347 348
357 357 356 357 356 356 357 358 358 359 359 359 360 361 361 362 362 363 363 364 364 364 365 364 363 363 362 363 362 362 361 360 356 351 353 354 355 356 357 356 352 347 344
357 358 359 358 358 359 359 359 359 359 360 360 360 361 362 363 364 364 365 365 365 366 364 361 360 358 359 358 356 356 356 356 355 354 351 350 352 352 354 355 354 350 347
352 353 354 359 363 359 358 350 356 361 362 363 363 363 364 365 365 366 366 365 365 364 360 358 355 353 351 351 351 351 351 352 350 348 348 350 350 350 350 351 351 351 347
347 349 352 352 361 361 353 345 340 344 358 364 365 366 365 366 363 362 358 355 354 354 351 348 346 345 341 337 336 336 336 337 336 337 338 338 339 341 343 345 349 347 346
345 348 348 350 357 362 358 350 344 342 339 338 347 350 348 347 344 345 346 343 336 335 335 334 334 334 334 332 333 333 332 334 334 335 336 336 337 337 338 340 341 343 343
343 345 346 350 353 358 360 350 343 339 332 330 331 333 333 332 332 331 330 332 332 331 332 333 334 334 333 334 335 334 333 335 335 336 335 334 335 339 339 339 336 334 335
342 343 344 347 346 350 347 342 336 331 329 330 331 332 333 333 332 333 333 333 333 334 334 334 334 334 334 336 336 334 334 332 335 337 336 333 336 335 334 330 330 330 330
341 341 340 340 339 337 337 333 331 330 329 329 329 332 332 332 332 331 332 332 331 333 334 334 334 335 336 335 334 334 334 333 333 334 335 334 335 331 329 330 330 330 329
341 339 338 335 334 333 331 330 330 330 329 327 326 327 329 326 325 324 323 324 326 328 329 329 331 331 333 333 334 334 333 334 335 335 335 334 333 332 330 330 329 328 327
337 335 333 331 330 330 327 326 325 324 323 323 322 320 319 317 317 316 316 318 321 325 325 326 328 329 330 330 331 331 330 332 333 334 334 333 332 331 330 329 328 326 324
331 329 327 325 325 323 322 321 321 321 320 319 317 315 311 310 309 310 311 312 314 316 318 319 318 318 321 324 328 329 330 330 332 333 333 332 330 330 328 328 328 326 325
325 323 322 320 319 317 316 315 314 314 313 312 311 310 309 309 308 307 309 309 310 312 311 312 313 314 314 314 315 320 324 327 332 333 331 332 331 331 329 329 329 327 326
320 319 318 317 316 314 313 311 310 309 308 307 307 307 306 306 305 306 307 308 308 307 308 310 311 313 315 315 314 313 319 324 329 328 330 330 331 330 330 329 328 327 325

GFSGL_925_thetae_048.txt.gz
Theta_e
345 345 346 346 346 345 345 345 345 344 343 347 348 347 347 345 345 348 350 354 353 350 351 352 351 349 345 344 343 340 340 340 336 338 337 337 336 336 335 337 337 336 336
346 346 346 346 347 346 346 346 346 345 345 344 349 348 346 345 346 348 348 351 354 353 351 350 351 352 352 351 350 345 341 340 339 338 339 339 339 338 336 335 335 335 335
347 347 347 347 347 347 347 347 347 347 347 346 348 348 348 347 347 348 350 349 352 353 353 351 350 350 352 352 351 351 350 346 341 338 338 338 339 339 338 337 336 335 335
348 348 348 348 348 348 348 348 348 348 348 347 347 348 348 346 348 348 350 351 351 352 352 353 352 351 349 350 351 351 351 351 351 348 341 337 336 336 337 338 338 337 337
347 349 349 349 349 349 349 349 349 349 348 348 348 348 349 349 349 352 351 350 352 353 352 353 353 353 351 350 350 350 350 351 350 347 345 344 341 339 338 338 337 337 338
347 348 349 349 349 349 349 349 350 351 351 351 350 350 349 350 350 348 349 353 351 349 350 350 351 353 352 351 351 351 352 352 349 347 346 346 346 344 343 340 340 338 339
348 348 348 350 351 351 350 349 349 349 350 351 351 351 351 350 348 349 348 348 352 353 353 353 353 352 352 352 352 352 352 353 354 353 350 349 348 348 346 342 339 340 340
349 349 349 350 351 352 352 352 351 350 350 351 352 351 351 350 349 347 347 349 350 350 351 352 353 354 355 355 354 354 354 354 354 355 354 354 353 353 350 347 346 342 341
350 350 351 351 351 352 353 353 353 353 352 351 351 352 352 352 351 349 349 351 352 352 352 352 353 353 353 354 355 354 355 355 354 355 356 356 356 356 355 350 345 338 340
352 352 353 353 353 353 352 353 354 355 354 353 353 352 353 352 352 352 352 352 352 353 353 353 354 355 355 355 356 355 355 356 356 356 356 356 356 356 356 355 350 346 343
352 353 353 354 354 354 354 354 354 355 356 356 356 355 355 354 355 355 354 354 354 354 354 354 355 354 355 356 357 356 356 358 357 357 356 356 357 356 355 356 357 353 347
350 351 353 354 355 355 356 356 356 356 356 357 357 357 357 358 358 358 358 357 356 354 355 355 356 357 357 358 359 359 359 359 358 355 356 356 357 358 358 357 356 353 351
348 349 351 353 354 355 356 356 357 357 357 357 357 357 358 358 358 359 359 359 359 357 356 357 358 359 360 360 361 361 360 358 356 350 352 353 355 356 356 356 356 356 356
352 350 349 350 352 355 356 357 357 357 357 358 357 358 358 358 358 359 360 360 360 361 361 361 358 359 360 361 361 361 361 359 355 353 352 352 352 351 350 351 351 351 351
355 356 356 353 352 352 354 356 357 357 357 357 358 358 359 359 359 360 361 361 362 362 362 356 356 355 356 356 356 355 353 352 351 350 348 347 346 344 344 344 345 345 346
349 351 352 357 356 355 353 350 355 356 357 358 358 358 359 360 361 362 362 363 363 364 359 356 354 355 354 351 349 347 342 339 338 336 336 338 336 337 336 336 336 339 339
344 346 348 349 357 355 350 346 342 345 352 358 359 360 362 362 363 364 365 365 364 360 355 354 351 348 345 340 336 335 334 333 333 333 333 335 334 335 335 336 337 339 339
344 347 346 347 349 357 353 347 346 343 343 346 355 361 363 364 362 359 356 353 350 350 346 343 338 335 333 332 333 333 333 332 332 332 334 335 335 333 336 338 337 334 331
341 344 346 348 350 355 355 348 343 341 337 333 334 335 335 338 339 341 343 339 336 333 333 333 333 332 332 332 333 333 332 332 332 332 335 338 334 336 334 333 332 330 329
341 342 345 346 348 349 347 342 336 333 331 331 331 331 331 331 331 331 331 332 332 332 333 333 333 333 333 333 335 332 332 332 332 333 333 334 334 333 331 331 332 331 328
339 340 342 344 344 343 339 335 331 330 329 328 329 331 332 332 330 329 329 329 329 330 330 330 331 331 332 332 333 333 332 332 333 332 333 335 334 333 330 330 330 330 327
338 338 338 339 338 336 333 332 331 329 327 324 323 327 330 326 324 323 322 323 323 325 327 327 327 326 326 327 329 330 329 329 330 331 332 332 333 332 330 330 329 329 326
337 337 334 333 331 329 328 328 326 325 323 321 320 320 321 318 317 316 316 317 318 318 319 319 320 320 320 320 321 323 325 326 328 330 332 332 331 331 330 328 328 326 324
334 333 331 327 327 325 324 323 321 320 319 316 315 314 312 310 309 309 310 312 313 314 314 314 313 313 313 314 315 317 319 322 327 331 331 330 330 331 330 328 327 325 324
329 327 323 322 321 319 318 317 315 314 312 311 310 309 307 305 305 305 305 305 306 307 307 308 310 312 313 313 314 313 313 317 323 326 327 329 330 331 331 329 327 325 324
322 320 319 317 315 313 311 310 308 307 306 305 305 306 307 306 305 304 304 304 303 304 304 303 304 306 308 310 312 315 315 314 316 320 322 322 325 327 328 329 328 325 324

GFSGL_925_thetae_051.txt.gz
Theta_e
347 347 347 348 348 348 348 347 345 344 344 341 342 344 347 349 349 349 351 354 356 356 355 355 355 353 351 349 347 346 344 343 343 341 343 341 339 338 338 337 336 335 337
348 347 347 347 348 348 347 348 346 345 344 344 342 345 347 349 352 351 353 352 355 356 357 356 355 354 354 353 351 350 347 346 344 344 342 343 342 341 339 339 338 339 338
348 348 348 348 348 348 348 348 348 347 344 345 345 344 347 350 350 350 350 353 354 355 357 357 356 356 356 354 355 353 352 351 348 346 345 344 344 343 342 341 339 339 339
349 349 349 349 349 349 349 348 349 347 345 345 346 346 347 352 353 353 353 353 354 355 355 357 357 357 357 357 356 356 355 354 352 352 350 349 348 346 344 343 343 343 342
350 350 350 350 349 349 350 350 349 349 349 346 346 348 349 351 350 353 353 354 354 355 356 356 357 356 354 354 356 356 355 355 353 351 350 350 349 349 348 348 347 347 346
350 351 351 351 350 350 351 351 351 350 350 349 351 351 351 350 348 349 349 353 355 356 356 356 355 352 348 348 349 352 353 356 356 355 353 353 355 354 353 352 352 351 352
351 351 352 352 352 352 352 352 353 353 352 351 352 352 352 351 349 346 346 349 352 355 356 356 355 353 353 353 353 350 351 351 352 353 356 357 357 357 356 356 355 355 353
352 352 352 353 353 353 353 353 353 354 355 354 354 353 353 352 350 348 346 347 351 352 353 353 355 355 355 356 356 356 357 357 356 353 352 353 355 356 357 358 358 356 353
352 352 352 353 353 353 354 353 352 352 352 353 354 355 354 353 351 349 349 350 351 353 353 353 353 353 352 352 354 354 355 355 355 355 355 356 356 355 355 354 352 352 350
352 353 352 352 353 354 355 355 354 354 353 353 353 354 355 355 353 349 350 351 352 352 352 353 352 352 352 352 353 354 356 355 357 359 361 360 359 358 358 357 355 349 351
353 353 353 353 354 354 355 356 356 356 356 356 355 355 355 355 355 353 351 351 352 353 353 353 353 353 353 352 352 354 356 357 360 360 359 358 358 358 358 358 357 357 353
354 354 355 355 355 355 356 356 356 357 358 358 358 358 358 358 356 354 353 353 353 356 357 357 358 357 356 355 355 356 357 358 355 355 355 356 356 356 357 357 357 357 356
356 357 357 357 357 357 358 358 357 358 358 359 359 359 359 360 360 359 357 357 356 354 357 358 358 358 357 357 358 358 359 358 357 352 351 352 353 355 355 353 354 350 350
354 356 357 357 358 358 358 358 358 359 359 359 359 360 360 360 361 361 359 357 358 357 356 355 356 356 357 358 358 359 359 359 358 353 352 351 352 353 348 345 343 343 343
354 354 355 356 356 358 358 358 358 359 359 359 360 360 361 361 362 361 362 361 359 357 357 354 355 354 355 355 356 357 356 354 352 351 349 348 344 341 340 340 340 339 340
355 357 358 355 353 355 358 350 356 357 358 359 359 360 361 361 361 360 359 359 360 360 357 357 357 355 354 355 353 350 350 347 346 340 338 338 338 338 338 337 338 339 339
346 348 350 355 360 358 356 353 352 344 351 355 357 358 358 359 359 359 361 361 361 361 358 358 355 353 350 349 345 343 344 341 339 338 338 337 337 337 335 336 337 337 336
345 346 349 351 354 358 354 353 355 354 352 344 351 356 357 359 361 362 362 363 358 353 351 351 349 348 341 340 341 340 339 338 337 336 336 337 338 336 334 336 337 335 333
343 345 348 351 351 355 353 350 351 352 353 337 339 347 354 358 360 356 354 351 349 342 340 338 336 338 339 338 337 336 336 336 335 335 334 334 334 334 335 337 336 335 332
340 342 342 348 349 349 348 346 348 349 345 343 342 336 333 337 340 337 337 336 336 333 334 334 335 335 335 335 334 335 335 334 334 334 334 335 335 335 335 335 334 334 333
334 342 341 344 347 344 341 340 341 342 341 340 337 334 334 335 331 330 331 331 332 332 332 332 332 332 333 333 333 333 332 334 333 333 333 333 335 334 335 335 334 333 333
330 337 341 342 343 341 339 336 334 332 328 326 325 328 331 330 328 327 326 327 327 329 329 329 328 327 327 327 328 328 328 327 327 327 329 331 332 333 332 332 332 332 329
330 336 339 340 340 336 336 334 331 327 324 322 321 321 321 318 317 316 317 318 319 319 320 321 320 320 319 319 320 319 317 316 318 318 322 327 333 333 332 332 331 331 330
330 335 337 337 333 334 333 331 327 324 321 318 316 315 315 313 311 310 310 310 311 311 311 312 311 310 311 310 310 310 312 316 319 324 322 323 331 334 333 332 331 330 330
328 329 331 328 328 325 322 321 319 317 316 314 312 311 310 309 308 307 308 309 309 308 307 307 308 307 307 308 311 314 314 313 316 317 320 318 324 331 333 334 332 330 329
321 321 319 318 317 316 315 313 311 310 309 309 309 308 308 307 308 308 309 309 307 306 304 302 300 300 299 299 305 310 315 315 315 315 316 318 320 324 327 330 331 331 331

GFSGL_925_thetae_054.txt.gz
Theta_e
352 351 351 351 351 352 351 352 353 353 352 353 351 350 350 354 355 355 354 353 357 357 355 354 357 357 352 348 347 346 345 344 344 341 340 341 347 349 346 345 345 345 343
351 353 353 352 352 352 353 352 354 355 354 354 353 352 350 352 354 356 355 352 355 356 357 357 356 354 357 356 351 348 346 345 345 348 344 342 341 343 345 348 348 345 342
352 352 352 352 352 352 353 353 354 355 355 354 354 354 352 352 354 356 356 354 354 355 356 356 356 357 356 354 353 351 350 352 352 352 350 347 346 346 347 349 349 347 347
351 351 352 352 352 352 353 354 354 354 355 355 354 354 354 352 351 353 354 355 354 355 356 356 357 358 358 359 359 358 358 357 353 353 351 348 347 345 347 349 350 349 348
352 352 353 354 353 353 354 354 354 354 355 356 355 354 354 353 350 351 352 353 354 355 355 357 357 358 359 359 359 358 358 357 354 351 349 348 348 348 350 350 352 352 351
354 354 354 356 355 356 356 356 356 355 355 356 356 355 354 353 349 348 350 351 352 354 356 356 357 357 358 357 356 353 353 359 361 358 353 352 357 356 354 355 354 355 358
356 356 356 357 358 357 357 357 357 357 356 357 357 356 355 355 352 349 348 348 350 352 355 355 355 352 355 357 357 356 355 353 352 354 358 358 359 359 360 362 359 361 362
358 358 357 358 359 359 359 359 359 357 358 358 358 358 357 356 354 352 349 350 350 351 352 353 355 354 353 353 355 356 356 357 358 358 356 357 356 356 358 360 360 359 360
359 359 359 359 359 359 359 359 358 358 359 358 358 358 358 358 355 353 352 351 351 352 352 353 354 355 355 355 355 355 354 353 351 351 352 352 354 356 358 357 357 358 360
359 359 359 359 360 359 360 360 359 359 359 359 359 359 359 359 358 355 353 352 351 352 352 354 353 353 354 354 355 354 356 353 352 353 355 360 363 363 361 360 358 357 358
356 356 357 359 360 360 360 360 360 359 358 358 358 358 359 359 359 358 354 354 352 351 351 349 350 351 351 351 350 353 354 354 356 359 362 364 363 362 362 362 361 359 357
356 356 358 359 358 359 361 361 360 360 360 361 360 359 358 359 358 359 357 355 353 353 352 350 352 353 354 354 354 354 354 354 356 358 360 362 361 361 360 359 360 360 359
357 358 358 359 359 358 360 361 361 361 361 361 361 360 359 359 360 359 357 356 355 354 355 357 358 360 360 359 358 357 357 354 357 359 359 357 357 356 358 357 357 353 348
359 359 359 360 360 359 360 361 360 360 360 360 360 360 360 360 361 362 360 358 356 355 353 355 358 359 359 360 361 360 358 358 358 357 356 356 355 356 356 351 344 343 342
359 360 361 361 360 361 361 360 361 360 359 361 360 361 361 361 362 363 364 364 360 356 356 357 358 358 359 361 361 362 361 359 357 356 352 354 356 353 344 342 342 341 342
358 358 358 358 361 361 362 357 355 356 358 360 360 360 362 362 362 363 362 363 363 361 357 360 360 360 360 361 361 360 357 356 354 353 354 350 346 343 342 341 340 340 341
355 360 360 357 359 360 359 359 354 353 355 358 359 359 360 361 361 361 361 360 360 360 362 362 363 364 362 358 357 355 355 350 348 348 346 344 341 341 340 340 339 341 341
349 350 356 353 344 343 342 347 337 340 357 355 355 357 358 358 358 358 358 360 358 358 358 359 358 355 354 350 348 348 348 348 346 344 342 341 341 341 339 338 340 341 339
347 349 352 352 348 346 343 343 345 351 358 358 346 343 354 356 357 359 361 363 362 354 350 350 349 346 345 344 344 344 345 344 341 340 340 339 339 338 338 337 339 337 336
342 343 346 352 352 352 349 350 356 357 358 356 351 347 342 350 346 348 350 353 354 348 344 343 340 341 341 340 340 341 340 339 339 338 338 338 337 338 338 338 337 337 337
334 341 342 347 350 350 349 348 350 354 356 356 353 340 342 348 348 344 341 340 341 341 342 338 337 336 336 337 338 339 338 337 336 336 336 335 335 336 337 337 336 335 335
327 334 341 344 347 347 346 343 342 349 344 335 329 332 338 338 336 331 328 326 326 327 328 331 331 329 327 329 329 331 333 334 334 334 334 334 334 334 334 334 335 334 334
326 329 334 340 344 342 344 342 340 339 339 336 335 335 333 329 325 323 320 320 320 321 321 320 322 320 319 319 319 322 325 326 326 325 326 329 333 334 335 335 336 334 334
325 330 335 338 338 340 342 340 336 332 331 329 327 326 325 322 319 315 316 315 315 315 315 315 315 315 316 317 317 318 313 316 318 316 320 325 329 332 334 335 336 334 333
326 329 330 330 331 330 330 331 330 328 325 322 321 321 319 317 315 314 313 313 313 314 313 313 314 313 311 308 307 310 315 315 315 316 318 321 326 328 330 333 334 334 334
310 313 314 312 312 313 314 313 313 315 316 315 315 314 315 315 313 312 312 313 313 312 310 309 308 306 304 300 301 308 313 314 315 316 318 323 325 325 326 327 330 333 333

GFSGL_925_thetae_057.txt.gz
Theta_e
356 356 354 354 354 351 354 354 354 353 353 352 353 352 353 353 353 356 354 353 355 355 355 354 356 355 354 349 347 346 345 345 345 343 342 342 346 348 348 348 348 347 347
356 357 355 355 353 352 351 354 355 355 355 355 356 354 354 351 353 356 356 352 356 356 355 355 355 355 357 356 354 350 348 347 347 349 346 346 347 346 345 348 350 351 349
355 356 356 355 355 353 355 354 354 356 357 357 356 357 355 352 353 356 357 356 354 355 355 356 356 356 357 355 356 351 349 351 353 353 353 351 349 349 349 349 350 352 352
353 354 355 357 356 355 356 356 356 357 358 358 358 358 357 355 353 353 356 357 356 354 355 356 356 357 358 359 359 358 357 356 353 353 352 352 351 349 347 349 351 351 351
353 353 354 357 357 357 356 358 357 358 359 359 359 359 358 356 355 353 355 356 357 356 355 356 356 356 357 358 359 358 358 359 356 355 354 351 349 349 353 352 353 355 355
355 354 354 357 358 358 357 358 359 359 360 360 360 360 359 356 353 352 352 353 355 356 357 357 356 356 356 356 358 358 357 359 363 359 354 353 354 355 355 355 357 358 361
357 357 356 357 359 358 358 359 360 360 360 361 361 360 361 359 354 352 350 351 354 355 356 357 357 353 355 358 359 358 357 356 354 354 357 357 357 358 359 361 357 360 364
359 360 358 360 360 360 360 361 361 362 361 362 362 361 361 361 358 353 352 349 350 352 355 355 357 355 355 356 358 358 358 359 359 358 357 357 358 358 359 359 359 360 362
362 360 361 360 363 363 363 363 363 363 363 362 362 363 363 362 358 355 354 351 352 353 353 353 355 357 358 356 353 356 357 358 354 351 351 352 352 352 351 353 355 362 362
362 362 362 362 364 365 365 365 364 364 364 361 362 363 364 364 362 358 355 354 353 353 355 355 355 353 355 356 357 357 359 360 358 355 354 355 357 359 363 363 361 362 362
362 362 364 363 364 365 366 365 366 365 362 364 363 363 363 362 364 361 357 356 354 353 353 350 352 352 352 350 350 355 357 357 356 355 355 359 362 364 364 363 361 362 362
360 362 364 365 363 364 366 366 366 366 365 366 365 366 363 364 362 363 362 359 356 355 351 346 347 347 348 349 350 350 351 352 354 356 358 360 362 363 364 363 361 361 361
362 363 364 365 365 363 366 367 366 366 363 363 363 362 360 359 362 361 360 360 359 356 354 351 349 350 355 355 354 354 356 356 357 359 361 362 362 363 360 359 360 359 359
364 364 364 365 365 364 365 365 364 363 363 362 361 360 359 356 353 356 359 358 358 358 356 355 355 356 359 360 361 361 359 359 360 361 363 362 359 357 359 359 357 347 344
363 363 363 363 362 364 363 363 362 361 361 361 358 356 354 356 356 358 360 363 358 356 357 357 356 356 358 360 361 362 362 362 362 362 361 357 358 358 359 354 346 344 343
363 363 362 361 362 363 362 357 358 357 357 358 357 358 361 359 359 361 360 363 364 361 356 359 360 361 361 362 362 364 364 363 363 361 357 357 358 356 351 346 344 343 343
361 362 362 361 362 364 363 361 359 355 358 359 360 359 359 359 360 361 361 362 363 362 362 362 362 363 363 363 363 363 362 361 359 357 358 354 353 350 345 343 343 342 343
356 360 360 360 362 363 363 362 361 359 356 357 357 356 357 358 358 358 359 360 360 360 364 362 365 363 366 364 363 361 358 356 355 354 351 350 348 345 344 344 342 342 343
346 350 354 355 360 358 353 350 348 347 348 348 353 352 353 355 357 356 358 359 362 362 361 362 362 361 359 355 353 351 351 350 351 349 348 346 344 343 342 342 341 340 340
339 344 348 351 348 349 348 349 347 346 343 336 336 342 348 349 350 354 354 358 362 363 357 355 355 351 348 347 347 347 347 345 343 343 343 342 341 340 340 340 340 339 339
328 339 344 349 352 349 350 349 351 352 354 354 350 348 349 350 353 352 344 345 348 351 350 348 345 344 343 343 342 342 343 343 341 340 338 338 337 337 339 339 341 338 337
325 331 338 347 348 350 351 351 351 352 354 351 344 341 345 346 342 337 337 337 337 337 338 340 339 336 336 335 336 336 337 338 339 338 338 338 338 337 335 335 336 337 338
323 327 332 341 344 345 346 347 346 347 349 348 344 341 339 337 339 336 332 331 330 330 330 331 331 328 328 328 328 329 331 330 328 328 329 330 332 335 335 335 336 337 336
324 328 333 338 340 340 338 340 337 334 333 336 335 340 337 334 333 329 326 324 323 324 323 321 322 322 323 323 323 321 317 318 319 319 322 325 329 331 333 334 335 335 336
322 330 326 323 326 333 333 327 327 326 323 322 323 323 323 322 322 323 322 323 322 321 321 320 319 316 312 308 306 309 315 315 316 317 317 322 326 329 330 331 332 332 334
304 306 307 306 307 308 308 309 309 312 312 313 314 316 316 315 315 315 316 317 316 314 313 312 311 307 303 298 299 306 311 313 315 317 319 321 325 326 326 325 325 327 329

GFSGL_925_thetae_060.txt.gz
Theta_e
359 357 356 355 350 347 349 343 352 348 354 347 354 355 355 354 356 356 352 354 353 353 355 356 352 352 351 354 352 347 346 346 349 346 346 345 345 345 344 345 345 346 348
360 359 357 356 353 352 346 352 349 352 349 356 350 355 353 356 356 355 357 354 355 354 355 352 357 358 357 351 352 353 354 352 350 351 348 345 345 351 350 349 349 349 350
360 359 359 358 357 354 352 347 354 354 357 354 357 353 356 355 354 354 357 357 354 358 358 357 354 355 355 359 357 356 352 352 352 350 352 356 354 351 350 351 351 350 350
358 359 359 359 358 356 356 351 356 357 355 357 357 359 358 357 355 354 358 359 357 355 358 354 357 358 358 358 357 355 355 356 355 356 355 355 355 354 352 355 353 351 353
355 357 359 359 358 358 356 356 351 355 358 358 358 359 360 360 358 354 355 359 359 358 357 357 357 358 358 358 360 360 360 360 361 361 360 359 355 353 354 355 358 359 356
355 357 357 359 359 358 357 357 357 356 357 359 361 360 362 361 359 355 355 356 359 359 359 358 358 357 355 354 356 359 358 358 359 360 362 361 358 356 357 356 357 359 358
356 356 357 359 360 359 359 357 360 359 360 360 361 361 362 362 359 355 354 355 356 358 359 359 359 358 357 356 356 355 355 355 356 356 357 357 357 355 355 358 360 361 361
357 359 358 358 359 360 360 361 359 361 361 361 362 362 362 362 361 357 354 353 354 355 355 356 358 358 355 356 358 359 359 358 357 357 356 355 356 357 354 354 358 360 358
362 359 361 358 360 360 361 361 361 361 362 362 362 363 362 362 362 360 355 353 352 353 352 354 358 358 356 352 349 352 355 358 361 360 359 356 352 353 354 357 358 353 357
359 362 360 361 360 362 361 361 361 361 362 363 362 363 363 363 362 362 359 356 353 354 354 353 353 350 352 359 361 358 358 356 356 357 358 356 357 357 354 357 361 358 363
361 360 363 363 361 363 363 362 363 363 363 364 364 363 364 364 364 363 361 359 356 356 355 355 356 355 353 351 350 351 356 356 358 359 359 357 355 359 361 361 363 362 361
364 363 363 363 365 363 365 365 365 365 365 365 365 365 365 366 365 365 365 360 358 357 357 357 355 353 353 351 351 350 350 350 354 355 355 356 358 359 362 364 363 362 360
360 365 364 366 365 364 366 367 367 367 367 366 366 367 366 366 366 365 364 364 362 358 357 357 355 353 350 349 349 350 350 351 351 353 357 359 360 363 363 361 361 361 359
356 367 365 367 367 366 366 367 368 368 368 367 366 367 366 365 365 367 365 363 362 362 360 358 357 355 354 357 360 359 355 354 356 360 361 361 363 363 360 360 360 360 348
364 367 367 367 367 367 365 367 367 367 367 367 366 364 366 364 362 361 363 361 361 360 360 358 358 357 355 356 359 362 362 361 360 360 361 363 363 360 359 359 359 348 345
368 368 367 367 367 367 365 361 366 367 366 365 363 364 359 359 356 357 355 359 357 358 356 359 359 359 359 357 358 360 363 364 363 364 363 363 360 359 358 358 347 345 344
353 364 365 364 365 365 365 363 358 352 356 358 361 358 361 362 361 361 360 359 362 360 358 358 360 362 362 363 364 365 365 365 364 363 363 361 359 357 356 347 345 344 343
344 354 361 363 362 364 365 365 361 358 356 354 358 358 358 358 359 359 360 360 361 359 360 364 365 364 365 365 363 363 365 363 361 360 359 359 355 353 348 346 345 344 343
331 337 347 356 359 361 363 364 363 362 361 360 354 353 355 355 356 357 358 359 362 362 362 363 364 365 365 365 364 364 362 360 357 356 355 353 349 347 344 344 343 341 340
326 329 343 349 349 344 353 352 356 357 356 355 353 352 350 348 349 351 355 357 359 362 364 363 363 363 362 360 358 356 353 350 347 346 345 344 343 342 341 341 341 341 340
324 327 333 347 346 348 351 349 349 349 347 346 344 341 342 345 353 357 354 352 356 360 360 360 354 352 349 348 347 347 347 345 345 344 343 341 340 338 338 339 339 340 341
322 326 339 347 348 350 351 351 350 347 348 346 344 343 341 347 345 344 341 342 345 348 347 347 345 342 342 341 340 340 339 339 339 339 338 338 338 338 337 336 335 336 337
323 326 337 335 342 344 342 338 335 336 339 339 343 346 345 340 335 334 333 333 334 334 334 335 334 332 331 331 330 329 327 327 326 327 330 332 333 334 337 336 336 336 337
323 325 326 327 329 332 336 335 330 328 330 330 332 332 331 329 327 327 326 327 326 325 324 324 322 323 323 320 318 320 321 322 323 321 323 325 327 329 331 334 336 335 334
308 309 307 310 310 315 316 318 324 325 321 320 321 322 322 323 323 323 322 322 321 320 318 315 315 315 314 314 316 317 317 317 318 318 320 320 323 327 329 330 330 328 331
300 300 300 300 301 300 301 302 303 304 305 305 310 314 317 317 319 319 318 318 315 310 305 303 301 299 298 297 296 299 304 310 315 316 318 320 323 324 322 321 323 324 326

GFSGL_925_thetae_063.txt.gz
Theta_e
353 354 349 347 350 348 347 345 349 349 350 348 354 353 354 354 354 356 354 352 354 352 353 353 353 352 347 347 351 353 348 346 347 346 346 347 345 344 341 347 349 349 348
354 353 355 349 346 350 347 344 347 347 349 354 353 352 356 356 355 355 355 353 352 355 353 353 355 356 352 354 350 350 351 353 353 350 348 346 351 355 353 351 350 351 352
356 354 355 355 349 347 347 344 340 343 346 347 356 357 356 354 353 353 355 354 352 352 354 354 353 352 358 357 355 357 356 355 358 358 356 354 352 348 352 355 353 352 355
357 358 356 356 355 349 347 345 347 345 345 346 349 355 352 353 353 353 354 354 352 352 356 358 356 355 354 354 354 355 355 355 354 354 353 355 358 357 356 354 353 352 353
358 359 358 357 356 355 351 350 343 351 347 354 353 355 357 353 354 353 353 354 354 354 351 352 358 356 354 356 357 357 358 359 358 359 359 361 362 361 358 355 354 351 351
356 359 359 358 357 357 356 354 352 346 356 349 356 356 357 359 356 354 353 353 357 358 357 354 353 355 356 355 355 357 358 360 361 362 361 358 357 354 351 352 353 355 356
353 357 358 358 358 357 357 356 356 353 351 359 355 355 356 356 358 357 355 354 353 356 358 358 356 355 355 357 357 356 356 355 354 355 356 355 355 354 354 354 355 356 357
354 354 357 358 358 358 357 357 356 356 353 352 357 358 358 358 358 360 358 356 355 353 352 356 358 356 355 355 356 356 356 355 354 355 355 355 356 356 357 355 355 357 359
354 356 357 357 359 359 358 358 357 357 357 355 356 358 360 360 359 360 360 358 355 355 354 353 354 355 355 356 356 355 356 359 361 362 362 360 356 354 356 355 357 358 356
356 357 357 357 358 359 359 357 359 357 357 359 358 359 360 360 360 360 360 360 356 353 354 354 354 354 354 356 356 355 355 354 351 350 351 352 353 357 359 357 354 354 353
356 360 359 358 357 359 359 359 358 360 359 358 360 360 360 361 361 360 361 361 357 354 353 353 353 352 351 351 351 353 357 355 358 358 357 358 359 357 353 353 360 360 362
354 359 361 361 359 359 359 360 360 359 360 360 360 361 361 361 362 362 362 361 361 357 354 353 353 353 352 351 351 351 350 351 352 353 356 356 355 352 355 357 361 364 363
354 357 361 362 362 360 361 361 361 361 361 361 361 361 362 362 363 363 362 362 361 361 358 356 356 355 355 354 354 354 354 354 353 351 352 352 351 354 358 360 363 361 360
347 361 361 362 364 362 363 362 362 362 362 362 362 362 362 362 363 364 365 364 363 363 362 358 357 356 356 354 353 353 351 350 351 351 350 351 358 359 362 363 362 359 360
341 360 363 363 365 365 363 365 364 364 363 363 363 363 363 364 363 364 365 365 365 363 363 357 356 357 357 356 356 355 357 357 352 352 355 359 361 362 363 361 359 359 356
334 349 363 364 365 365 364 363 366 366 365 365 364 365 364 364 365 363 365 365 364 363 358 356 355 356 356 356 355 355 356 359 360 360 360 360 361 362 362 360 358 348 344
329 335 345 365 366 366 365 363 358 363 366 366 366 365 365 364 363 364 363 362 363 364 357 356 357 357 357 357 357 355 355 358 359 362 362 363 363 362 359 356 349 345 343
326 330 336 347 363 365 366 365 362 357 355 355 364 366 365 361 359 358 358 358 355 356 356 355 357 358 358 358 359 359 360 362 364 364 363 362 360 359 357 353 347 344 343
324 326 330 342 354 361 363 364 362 356 356 352 351 357 359 358 358 359 359 360 353 353 356 358 357 358 359 361 362 363 363 362 362 360 358 358 358 355 351 345 344 342 341
320 325 326 337 347 354 359 360 362 358 358 350 348 351 352 355 355 356 357 359 361 359 357 359 360 363 364 364 363 362 362 361 360 358 354 349 346 346 343 342 341 341 341
319 322 326 343 346 348 351 351 353 356 352 349 347 346 348 347 348 350 350 354 355 358 359 353 349 343 346 354 355 354 353 350 348 346 344 342 343 343 342 340 339 339 339
319 325 332 339 346 347 348 347 347 348 347 344 342 342 343 344 350 349 346 343 343 349 351 348 346 341 341 345 340 342 342 342 341 340 340 338 337 337 337 336 336 336 335
313 317 320 324 335 332 330 332 335 337 339 343 343 341 340 340 339 339 338 335 333 333 334 335 332 328 328 329 332 332 332 327 327 330 331 332 333 335 338 338 336 335 335
306 308 307 309 313 315 326 324 322 324 327 327 329 330 329 330 329 328 330 328 326 323 322 320 319 318 319 321 322 321 322 322 324 325 326 327 328 329 329 329 332 336 336
300 301 301 302 302 303 306 306 310 314 312 313 319 321 323 324 323 323 322 318 316 315 313 313 312 312 315 315 314 317 317 320 320 319 320 321 322 323 324 324 324 324 325
298 298 298 298 298 298 298 298 299 300 303 311 312 311 311 314 316 312 310 307 307 306 308 306 303 304 305 305 301 302 305 314 313 310 316 315 314 315 316 315 318 320 321

GFSGL_925_thetae_066.txt.gz
Theta_e
349 348 347 345 347 346 347 346 349 353 352 353 353 349 354 352 351 351 350 351 352 351 350 351 350 349 345 348 346 349 353 352 346 346 345 346 347 345 352 352 350 351 352
350 350 348 345 345 347 347 345 345 346 351 353 349 351 352 353 351 353 353 353 352 353 352 350 352 353 352 352 352 351 350 350 352 351 350 352 352 352 350 349 355 352 350
349 350 350 348 344 345 347 347 346 344 348 352 349 349 353 352 352 352 354 353 353 352 353 354 352 352 353 355 355 356 355 355 357 358 357 355 353 349 356 358 354 353 345
350 351 351 351 348 344 344 347 346 346 344 347 351 352 352 351 354 355 354 354 354 353 352 351 354 354 354 352 353 353 353 354 354 355 354 354 354 356 360 359 359 350 346
351 352 351 352 352 350 345 344 346 344 344 345 346 350 355 354 353 353 352 351 351 352 352 351 352 356 356 355 356 356 356 356 356 357 357 358 359 361 360 355 353 352 353
353 353 353 352 353 353 351 346 344 343 342 344 345 345 351 355 354 353 352 352 352 351 352 349 352 351 352 356 357 355 355 357 357 358 358 358 360 358 353 353 354 354 353
355 355 355 356 354 354 354 352 348 346 344 344 348 348 351 351 354 354 352 352 352 351 350 350 353 352 352 352 352 356 356 355 356 356 356 356 355 353 353 354 355 354 354
351 356 357 357 356 356 355 354 352 351 348 345 349 349 351 355 355 355 354 354 353 352 352 350 353 354 353 353 353 353 353 353 354 355 355 354 354 354 356 358 356 355 355
344 351 354 358 357 356 356 355 355 354 352 349 348 352 352 351 352 354 355 355 356 356 354 353 352 352 350 352 356 355 354 354 351 353 354 357 358 360 358 356 356 355 354
343 346 348 354 357 357 357 356 356 355 355 354 351 350 354 356 356 355 354 355 356 356 355 355 354 354 353 352 353 355 356 354 353 352 353 352 351 351 354 355 358 356 353
345 351 354 353 355 356 357 357 356 356 355 355 355 353 352 353 354 355 355 357 356 355 354 353 353 354 354 353 353 352 353 353 354 354 355 356 356 356 353 357 356 353 356
337 343 350 356 356 356 357 357 357 356 356 355 356 357 355 356 357 357 357 358 358 357 356 353 352 352 352 351 353 353 353 352 353 353 352 352 353 352 353 353 352 357 361
333 341 344 350 358 356 356 357 357 356 357 357 355 355 358 358 358 359 359 359 358 359 358 356 354 353 352 352 352 351 351 352 351 349 349 351 351 350 351 351 357 360 362
330 332 339 344 357 358 356 357 357 358 357 357 358 358 357 358 359 359 359 360 360 360 360 359 358 357 355 355 354 354 353 354 354 352 351 352 352 351 351 356 360 362 360
327 328 333 343 358 360 358 358 357 358 358 358 357 358 358 358 359 359 360 359 360 361 360 356 356 357 356 355 355 355 354 353 352 350 348 349 349 350 356 359 362 360 358
323 326 329 332 342 360 361 360 360 359 359 359 358 359 359 359 360 360 360 361 362 361 358 355 354 355 353 354 353 353 353 354 355 354 353 351 351 356 360 361 361 358 357
320 322 324 328 336 354 361 361 358 359 361 360 360 360 360 360 361 361 362 362 362 363 357 355 356 356 355 355 355 355 354 354 355 354 354 355 357 359 360 361 358 352 344
318 319 322 326 330 339 358 363 360 359 358 359 363 362 362 362 363 363 362 363 359 355 354 358 356 357 356 356 356 356 355 354 355 355 355 358 360 361 361 359 355 349 344
315 317 319 321 326 331 342 358 363 360 358 360 357 362 364 364 364 364 362 358 355 352 353 356 357 355 356 356 355 355 356 355 354 357 358 359 362 362 359 356 353 348 343
315 317 318 321 325 331 340 350 358 360 358 356 351 355 360 358 354 356 355 352 355 350 350 352 354 355 354 350 347 344 341 343 353 358 360 361 359 358 356 352 346 343 341
312 315 318 325 330 338 342 348 355 357 356 353 349 349 349 355 352 352 350 352 352 353 352 353 355 355 346 345 345 341 339 338 336 338 349 350 348 347 345 342 341 340 340
311 312 313 313 321 335 339 345 350 354 352 346 341 342 344 345 345 342 342 342 347 348 348 347 347 345 343 339 337 341 342 338 340 342 342 342 341 341 340 338 337 337 337
311 307 307 311 308 317 327 331 331 343 341 340 339 339 340 339 336 331 330 332 336 338 336 334 335 337 335 334 335 338 340 337 334 336 338 338 338 338 338 338 336 335 334
307 302 303 306 304 304 307 308 313 322 330 332 332 332 330 328 325 323 321 318 322 322 321 319 317 319 321 320 320 322 325 325 324 327 327 329 330 329 328 330 332 334 333
300 299 299 299 300 300 301 303 302 304 307 308 312 321 322 320 318 314 312 312 312 310 309 313 313 313 311 314 318 319 317 319 321 323 321 324 324 324 323 323 323 323 324
298 297 297 297 297 297 297 298 299 298 299 302 302 305 306 305 304 304 303 303 307 308 301 298 300 302 303 304 305 308 310 314 315 316 317 316 316 314 315 317 319 319 319

GFSGL_925_thetae_069.txt.gz
Theta_e
346 346 346 345 343 343 346 347 347 351 352 352 351 350 350 352 353 351 349 350 351 350 351 350 349 347 344 346 348 347 349 352 346 349 348 349 349 351 350 350 347 356 352
346 346 345 345 344 343 342 345 347 347 348 353 352 351 351 351 352 352 350 349 351 350 351 351 350 350 350 351 351 351 352 351 351 350 351 352 354 351 350 347 353 355 356
347 346 345 345 345 343 342 341 344 346 346 347 349 352 353 352 351 352 351 350 351 351 350 353 353 351 351 353 353 354 353 354 354 355 355 353 352 350 350 354 356 354 346
347 348 347 346 345 344 342 340 341 342 344 345 345 349 351 350 351 351 351 351 350 351 351 351 350 351 352 352 351 352 354 354 352 353 354 354 355 354 356 356 354 351 352
346 348 348 348 347 345 344 342 338 339 341 342 345 346 351 353 352 352 351 351 351 352 352 352 352 350 350 353 353 354 352 353 354 355 355 355 356 355 355 356 354 352 354
348 347 348 348 349 347 345 345 343 341 338 341 342 344 345 348 352 353 351 351 352 352 352 351 350 350 349 349 352 356 356 357 355 355 355 355 355 355 353 354 352 352 352
350 349 349 349 349 350 349 347 346 344 343 342 341 341 343 342 344 349 353 353 353 351 351 351 350 349 349 348 350 350 351 353 355 356 356 355 355 354 353 353 352 352 353
350 351 350 351 349 350 351 350 349 346 345 345 344 342 341 341 340 340 344 352 354 352 351 351 350 350 350 348 351 352 352 352 351 353 354 354 354 355 356 355 354 354 354
342 349 352 352 353 352 352 352 352 350 348 347 346 345 344 344 344 341 342 348 353 353 353 352 351 351 349 350 351 353 352 353 352 351 352 351 351 350 353 357 357 353 352
341 345 347 347 355 355 354 353 353 352 352 350 349 348 348 348 347 346 347 351 353 353 354 354 353 350 348 351 352 352 353 351 351 350 350 350 351 352 353 353 353 353 353
333 336 342 346 349 351 353 356 355 354 354 353 352 351 350 350 350 350 348 350 351 351 352 352 351 349 347 350 352 353 353 352 352 352 351 351 352 352 351 351 354 355 357
331 333 335 338 341 346 355 354 355 355 354 354 354 353 352 351 350 351 352 352 351 351 352 352 351 351 350 349 350 349 351 353 353 353 352 353 354 352 349 349 350 352 354
327 331 332 335 337 342 352 355 355 355 355 355 354 354 354 353 352 352 352 352 352 355 354 353 354 354 353 353 352 350 350 351 351 351 351 351 350 350 351 351 351 351 352
322 326 329 333 335 340 349 356 355 355 355 355 355 354 354 355 355 354 354 354 355 354 355 355 356 356 356 356 355 354 353 352 351 350 349 350 351 352 350 350 350 350 357
319 323 327 330 330 332 337 352 356 355 356 355 355 355 355 354 354 356 356 356 356 357 356 354 354 354 354 355 355 355 354 354 352 352 350 351 351 348 348 348 349 356 359
316 319 323 324 326 328 334 340 356 357 356 356 356 356 356 356 356 356 356 357 357 357 354 353 354 354 354 354 354 352 352 354 355 354 352 350 350 350 350 349 352 358 359
314 317 318 318 324 327 329 334 346 358 357 357 356 356 356 356 356 357 357 357 358 358 356 354 354 355 354 354 353 354 353 354 354 353 351 351 351 353 353 352 355 359 360
314 313 315 317 321 323 324 328 336 350 358 356 358 357 357 357 357 357 358 358 355 354 354 355 355 354 355 355 354 354 354 355 354 354 353 352 351 351 353 353 356 358 357
309 311 314 316 319 321 323 325 331 339 355 359 358 358 358 358 358 358 359 359 354 351 351 353 354 356 355 356 356 355 355 355 355 354 354 353 349 346 353 354 355 357 355
308 311 313 316 319 322 324 327 331 338 349 357 357 357 357 355 351 351 355 357 352 353 353 351 354 354 355 356 356 355 355 355 355 353 348 339 336 335 333 333 338 350 351
308 311 312 313 316 316 319 331 335 339 344 353 356 356 358 356 352 352 349 348 350 353 354 351 349 351 353 354 354 351 348 345 341 339 339 338 336 336 337 335 335 334 346
306 308 309 310 311 312 313 319 329 338 344 348 353 352 350 349 348 349 346 346 347 350 351 350 349 348 346 344 343 341 340 340 339 339 338 336 334 337 338 339 338 339 340
304 305 305 306 306 308 310 311 314 320 337 347 346 342 342 339 335 331 331 331 334 336 336 340 339 336 334 334 335 335 335 336 338 338 338 338 337 341 341 338 338 337 337
300 301 301 302 302 302 303 304 305 309 318 329 334 332 328 327 324 319 314 314 315 316 319 317 314 318 321 322 325 325 324 326 328 333 338 339 338 336 337 336 335 335 335
298 298 298 298 301 299 299 301 301 302 305 311 313 312 309 308 305 306 305 305 306 309 306 305 311 305 310 312 313 320 322 321 324 327 329 328 327 327 326 327 327 328 327
297 296 296 297 296 296 297 297 298 298 298 299 302 302 301 298 299 297 298 301 303 302 302 300 300 302 309 309 308 309 311 314 318 321 323 323 323 320 322 321 320 321 320

GFSGL_925_thetae_075.txt.gz
Theta_e
347 347 347 347 346 348 349 346 347 347 348 349 350 350 351 349 350 350 351 354 352 355 354 354 354 352 350 350 350 350 351 351 349 346 352 352 351 355 353 351 352 352 351
346 346 345 347 346 347 346 345 344 345 348 348 349 352 354 354 352 350 351 353 350 353 353 354 353 352 353 353 353 354 352 354 353 352 352 353 355 355 356 357 354 351 354
346 346 344 344 346 348 348 346 344 343 347 350 348 348 353 355 354 352 352 350 354 355 353 353 353 354 355 353 354 354 353 355 355 356 354 354 354 354 354 352 355 356 353
346 346 345 344 344 346 348 348 348 343 344 348 348 349 349 353 355 355 355 355 356 356 355 354 353 354 354 356 356 356 355 356 355 356 354 353 354 354 355 352 352 351 353
347 347 347 347 344 344 345 347 347 347 345 344 348 349 351 352 352 353 354 356 356 355 355 355 354 352 347 351 352 353 355 355 355 355 354 353 352 351 351 351 351 353 352
345 347 348 348 348 347 346 346 346 347 348 347 348 347 348 349 348 347 348 354 355 355 355 356 354 351 349 349 348 349 351 354 354 353 350 350 354 354 351 352 352 353 352
346 346 347 348 349 349 348 348 348 347 348 348 348 348 347 345 345 346 345 349 353 355 355 356 355 353 351 354 351 349 349 348 349 350 353 353 353 353 355 356 353 355 354
348 347 348 348 348 350 350 350 349 348 348 348 349 348 347 346 343 339 340 343 350 353 353 354 355 354 355 353 355 355 355 354 351 348 348 351 354 355 356 356 356 356 355
336 341 344 347 350 350 350 351 351 350 349 348 348 349 348 346 345 344 342 345 346 350 351 351 352 353 352 345 350 354 354 354 351 350 346 349 348 349 350 354 354 353 351
328 328 333 340 343 351 351 351 352 352 351 350 349 349 349 348 347 347 346 346 347 347 347 348 348 346 348 345 345 350 352 351 351 349 351 350 348 350 351 351 353 354 352
324 325 328 334 337 341 347 352 353 353 353 353 353 352 351 350 349 349 349 345 348 350 350 350 349 348 342 339 340 346 348 347 349 352 350 349 351 354 355 354 351 353 353
322 321 324 328 332 335 339 342 346 352 353 353 354 355 355 354 352 350 351 350 347 350 351 351 350 349 347 345 342 340 341 342 349 350 348 348 349 350 351 353 355 355 354
319 318 320 322 327 330 333 338 344 346 349 353 355 355 355 355 355 354 351 353 350 346 351 352 352 351 349 347 346 346 346 348 349 350 350 350 349 349 352 354 355 356 354
319 317 318 319 323 326 328 332 335 340 345 348 353 356 356 355 356 356 355 351 350 349 347 349 350 350 349 349 348 348 349 349 350 351 351 351 351 351 352 353 354 353 354
317 316 317 318 320 322 325 325 331 335 337 345 350 354 356 357 357 357 357 356 349 347 347 349 351 351 352 352 351 352 353 351 351 352 353 353 352 352 352 353 354 354 354
315 316 316 315 316 319 317 321 325 327 328 330 336 340 348 354 356 356 356 354 353 352 347 352 353 354 354 353 353 352 353 353 353 352 353 353 353 352 353 353 354 355 355
313 313 313 313 315 315 317 320 322 325 326 328 331 336 343 349 354 355 355 354 353 352 351 354 353 353 352 352 353 355 355 353 353 355 352 352 353 353 354 354 355 356 356
309 308 308 311 313 314 315 317 319 322 326 327 330 331 334 338 347 354 353 354 351 349 352 352 354 353 354 356 356 356 357 355 354 356 354 353 353 354 354 355 355 356 356
307 306 306 307 309 310 312 315 317 320 322 326 328 332 335 341 348 352 353 346 349 350 347 352 355 356 355 355 358 358 357 355 353 354 356 356 355 355 356 357 357 357 357
306 305 305 306 307 308 310 313 315 319 322 324 327 331 335 341 344 347 348 348 346 354 355 353 353 356 357 357 356 356 357 358 355 354 355 354 354 355 356 356 355 355 353
304 305 305 306 306 306 308 311 313 315 317 320 326 330 333 337 341 345 349 349 345 349 356 356 357 356 356 357 357 355 355 356 355 355 355 356 355 356 355 355 354 353 350
302 303 304 305 305 306 308 309 310 311 312 315 318 323 326 329 334 339 347 351 351 351 351 355 357 356 355 354 355 355 355 355 355 355 355 355 353 352 350 347 345 341 341
302 303 303 304 305 306 306 307 307 308 309 310 311 313 317 327 334 337 342 345 346 347 345 343 346 348 348 347 348 349 351 351 351 348 346 347 346 343 342 340 339 341 341
298 299 300 301 302 302 303 303 303 303 303 304 305 310 312 315 323 325 327 327 323 325 324 327 329 328 331 332 332 334 335 337 337 337 338 338 338 340 341 342 342 342 342
297 297 298 298 298 299 299 300 299 301 300 300 301 302 303 304 306 306 308 309 308 308 309 309 311 312 311 314 318 319 321 326 329 330 331 331 332 334 336 340 341 342 342
294 295 296 296 296 296 297 297 297 297 297 297 297 298 298 298 299 299 300 301 301 300 300 300 301 304 306 307 306 310 316 319 321 324 326 327 327 325 322 321 325 327 326

GFSGL_925_thetae_081.txt.gz
Theta_e
356 355 355 355 356 357 355 353 352 352 353 353 356 354 356 356 355 354 352 354 356 353 354 354 353 352 351 347 345 345 346 347 348 347 348 347 353 352 356 357 357 354 349
354 356 356 355 355 355 356 355 354 353 353 352 354 356 357 355 355 356 355 350 352 355 353 352 352 351 354 352 352 350 349 352 351 353 350 348 348 351 354 356 356 353 352
353 355 356 355 355 355 354 355 354 354 354 352 353 355 357 353 355 355 356 355 356 355 355 353 352 352 353 352 352 349 348 352 352 353 351 349 348 349 351 354 354 351 350
353 353 354 355 354 355 354 354 355 355 355 355 352 353 356 355 353 355 356 354 356 356 355 355 354 352 353 354 354 354 352 351 350 349 348 349 350 350 351 352 349 346 346
352 353 354 354 354 354 355 355 354 354 355 356 355 352 354 355 354 353 354 355 356 358 356 356 356 353 352 353 352 353 353 354 351 349 348 349 349 351 352 351 348 347 346
343 347 350 352 353 356 355 355 354 354 355 356 356 355 353 352 347 349 354 356 355 358 356 355 354 357 356 355 351 346 349 356 357 353 350 347 350 348 346 347 348 347 349
334 335 340 345 350 352 354 356 356 355 355 356 357 357 356 355 351 347 346 351 353 356 357 357 357 351 354 357 357 353 347 344 345 350 357 356 354 354 354 358 354 356 354
331 330 330 335 342 346 351 353 353 356 356 355 356 357 358 357 355 352 348 346 349 351 353 356 357 355 354 356 357 357 358 357 353 350 349 349 352 353 354 355 358 359 357
332 332 330 330 334 338 343 344 351 353 352 354 355 356 355 358 357 355 353 351 348 349 351 352 352 356 358 354 352 357 357 356 352 354 352 351 350 350 348 351 349 348 348
327 329 331 331 330 333 335 340 341 348 354 355 355 352 354 356 358 357 356 354 352 352 352 352 352 351 352 355 356 356 358 357 357 350 349 353 353 353 351 350 351 350 348
324 326 327 328 330 329 330 335 336 340 347 354 356 355 354 355 355 356 356 356 354 353 353 352 353 352 351 349 351 355 357 356 356 353 351 350 348 349 352 353 352 353 350
320 323 326 326 326 328 330 331 336 338 341 346 351 352 354 353 355 357 357 355 355 354 354 353 352 351 351 351 350 350 349 349 352 352 350 346 343 342 343 344 348 351 353
319 320 322 325 325 325 325 329 331 335 339 339 345 347 351 351 353 355 355 357 355 354 354 354 354 354 354 353 352 352 351 350 350 352 353 352 349 344 341 341 342 348 354
320 320 320 322 323 322 324 324 326 329 332 334 337 338 339 340 349 353 345 347 346 349 351 351 352 353 354 354 354 354 353 351 352 353 352 352 350 347 346 345 346 345 347
315 317 320 321 321 321 322 321 323 324 326 325 325 326 328 331 333 334 330 329 335 341 341 347 355 355 353 354 355 356 357 355 353 352 352 352 351 351 349 348 349 348 350
313 313 316 317 318 319 320 320 320 320 320 320 321 321 322 322 324 326 328 329 332 334 335 347 355 356 357 357 357 358 358 358 358 357 354 353 353 352 352 352 351 352 353
309 310 312 313 315 316 317 318 319 319 319 320 320 321 321 321 322 323 327 329 332 334 337 340 350 354 355 357 359 359 359 359 359 358 357 358 356 355 353 352 352 353 354
307 307 308 311 312 313 315 316 317 318 319 319 320 320 321 320 322 326 328 330 331 336 338 341 350 354 355 355 358 359 359 359 360 359 360 359 359 359 359 358 356 354 353
304 305 305 307 308 310 312 314 315 316 316 317 317 318 319 320 322 325 328 331 334 338 340 345 348 350 354 355 355 357 358 357 358 359 359 359 360 360 360 359 359 354 354
303 303 303 303 305 307 308 311 313 315 315 316 317 318 318 319 321 324 328 333 338 339 340 344 348 348 348 353 354 355 356 359 360 359 358 360 359 358 358 359 359 359 358
302 302 302 303 304 304 305 307 309 312 314 315 315 316 316 318 319 320 321 323 327 333 337 342 346 349 353 355 354 354 356 357 359 361 361 359 359 360 358 358 358 358 358
301 300 300 301 301 302 303 304 304 305 308 311 312 313 314 315 318 319 320 322 325 328 336 336 340 344 349 352 354 355 355 356 357 359 360 360 358 358 357 358 358 358 358
298 298 297 297 298 299 299 301 302 303 305 307 308 310 313 315 317 318 320 322 325 325 324 324 328 332 337 338 341 347 348 349 355 358 359 359 359 358 357 357 357 356 357
297 296 295 295 295 296 297 298 299 300 302 304 306 307 308 310 312 313 314 314 313 312 315 318 321 323 326 329 331 333 338 341 343 344 346 348 350 351 352 354 354 353 351
297 296 295 294 293 293 295 296 297 298 299 300 301 303 305 306 307 307 307 306 305 306 309 311 313 315 316 318 320 322 326 327 333 333 336 338 340 342 341 341 343 343 342
297 296 295 294 293 292 292 293 295 296 297 298 299 299 301 301 301 301 301 301 301 302 302 304 305 307 309 310 313 315 318 320 323 326 327 329 330 330 330 332 333 333 332

GFSGL_925_thetae_084.txt.gz
Theta_e
359 359 358 359 359 359 356 354 350 351 355 352 340 351 353 353 352 353 351 351 353 350 351 350 352 350 349 349 354 352 346 346 353 351 352 351 349 346 346 353 353 356 354
359 359 359 359 358 359 358 357 354 352 352 352 354 355 356 354 354 353 353 352 353 353 353 352 351 353 351 349 349 348 350 348 348 351 351 345 346 351 350 353 351 354 353
358 359 359 358 359 359 359 357 357 356 355 355 352 354 356 355 354 354 353 352 354 354 355 354 351 352 352 351 353 353 353 353 351 352 351 354 349 346 347 349 353 351 352
353 346 359 358 358 358 358 359 357 357 356 356 355 355 355 355 356 355 356 355 355 354 355 356 356 355 353 352 352 352 352 354 351 351 350 349 349 350 353 355 353 346 346
346 348 349 353 357 357 357 355 357 357 357 357 357 355 356 358 357 354 355 356 354 352 353 355 356 356 352 355 354 354 355 353 356 355 354 352 352 353 348 347 348 352 350
338 339 344 349 351 353 353 354 355 356 357 358 358 358 358 355 354 353 352 351 357 356 354 353 355 355 356 354 351 351 350 352 354 358 360 355 351 349 353 353 352 352 354
332 333 336 341 345 347 351 353 354 354 354 356 358 359 359 358 355 352 350 353 357 357 356 356 357 356 353 351 354 354 353 347 345 346 349 352 356 352 353 355 358 356 358
333 332 331 331 337 341 344 345 350 352 353 354 355 357 358 359 359 358 353 352 350 351 352 355 357 356 354 355 358 359 358 356 354 352 349 346 345 343 344 348 351 355 358
330 333 334 333 331 334 338 339 341 343 349 353 354 355 356 358 359 357 358 356 354 352 350 351 353 354 357 359 353 352 356 361 361 358 355 353 352 350 349 350 353 353 351
325 328 329 330 332 333 332 334 337 339 341 344 349 353 355 353 357 357 355 357 357 356 355 353 350 349 353 352 352 359 358 355 353 356 357 355 353 353 353 353 354 355 354
322 323 326 328 328 328 331 333 333 337 339 341 344 347 351 354 356 355 355 356 358 357 357 356 355 355 353 351 350 351 353 355 356 356 356 356 355 353 353 352 350 352 354
322 322 322 324 327 327 327 329 328 334 338 341 341 344 351 350 350 350 351 352 354 354 355 356 356 356 353 353 354 352 351 350 352 355 356 356 355 353 351 349 348 348 349
318 319 323 323 323 326 326 324 328 329 332 340 342 342 342 342 338 348 345 341 343 345 346 349 354 356 355 354 354 353 352 350 348 351 352 353 353 353 353 351 347 342 344
315 317 317 318 322 322 323 324 325 324 327 331 331 330 329 328 329 335 333 331 328 329 333 339 343 347 353 353 353 353 353 353 348 350 351 352 353 354 354 353 351 347 345
312 313 315 316 317 319 321 323 323 322 321 322 323 323 323 323 324 324 323 323 327 328 328 330 334 343 354 356 357 356 355 355 353 352 353 355 355 354 354 353 351 349 349
309 310 311 312 313 315 316 318 318 319 320 319 319 320 320 320 321 322 321 321 323 327 330 330 332 336 346 346 352 353 354 356 357 356 355 355 355 355 354 354 354 352 351
307 307 308 309 310 312 314 316 317 317 317 317 318 319 320 320 321 321 319 321 325 327 330 331 333 335 340 347 347 347 344 353 355 357 357 358 357 355 354 354 353 352 354
307 306 307 307 307 308 310 311 312 314 317 319 319 318 317 317 318 318 318 320 323 329 330 334 337 340 342 348 352 349 344 351 352 356 357 358 357 357 357 357 356 355 354
305 305 304 305 305 306 305 307 309 311 313 315 317 318 318 318 319 318 319 321 324 328 334 339 340 342 344 348 352 352 354 354 353 340 355 357 358 357 357 358 358 357 356
303 303 303 303 304 304 305 306 306 306 308 310 313 315 318 318 318 319 321 324 329 332 331 335 338 341 343 347 347 348 344 349 351 352 352 353 355 357 358 358 358 358 357
302 302 302 302 302 302 302 302 303 303 305 307 307 308 309 310 312 315 316 318 319 320 322 326 330 335 342 347 347 347 349 351 351 352 352 352 351 354 356 357 357 357 357
301 300 299 299 299 298 298 298 299 300 301 302 303 305 307 307 309 312 315 317 318 320 320 325 330 329 330 330 331 331 336 339 342 347 351 353 354 355 355 355 355 357 357
300 299 298 297 297 296 297 297 297 298 298 299 300 302 304 305 307 309 310 313 315 316 316 316 315 315 316 317 320 320 324 329 334 336 338 344 349 352 350 351 354 356 357
300 299 298 297 296 295 295 294 294 295 296 296 298 299 300 302 304 306 307 308 309 310 311 310 309 309 309 311 312 315 318 322 326 330 334 336 340 343 346 350 353 353 355
301 300 299 298 296 295 294 293 292 293 294 294 295 296 298 299 300 302 304 304 305 306 306 305 305 305 307 308 309 312 316 319 322 326 329 331 335 338 335 337 341 344 346
302 300 300 299 296 294 293 292 292 291 291 292 292 294 296 296 297 298 300 301 301 301 301 301 301 301 302 304 306 307 311 316 320 323 325 325 326 326 328 330 333 335 336

GFSGL_925_thetae_087.txt.gz
Theta_e
352 354 353 354 353 352 352 355 354 352 351 350 349 351 352 352 353 353 352 351 353 353 349 353 350 352 350 349 344 347 348 351 351 350 349 347 345 343 348 349 349 351 351
355 357 357 358 358 356 354 353 355 353 352 353 352 341 351 353 354 354 351 352 350 352 350 352 347 349 350 353 351 349 353 352 355 352 350 348 353 353 350 346 346 350 351
354 356 357 358 358 358 357 354 353 354 354 354 352 353 353 353 352 355 354 351 353 353 352 351 353 349 349 352 349 348 351 349 350 354 351 349 351 350 347 351 353 353 346
347 352 353 353 354 357 358 358 356 356 355 354 353 353 353 354 354 355 354 353 351 352 355 354 355 353 353 352 352 350 348 350 349 350 350 350 350 350 351 349 351 351 349
342 342 339 340 349 353 354 358 357 356 357 355 354 354 355 356 354 352 354 356 355 354 351 353 354 354 357 353 355 354 352 351 352 354 356 357 357 355 351 354 352 348 344
341 343 345 340 349 351 353 354 355 355 354 357 356 356 355 354 358 357 355 354 353 356 356 354 353 352 355 358 354 351 354 352 351 354 353 355 355 355 353 350 349 349 352
332 333 336 344 342 344 346 350 352 352 354 355 355 355 355 356 355 353 354 353 353 352 353 356 353 354 353 356 354 352 352 353 352 350 348 346 345 343 342 342 343 345 350
332 333 333 332 335 338 340 341 342 346 350 352 352 353 354 355 355 356 355 352 353 353 353 354 357 356 355 355 353 354 357 356 356 356 355 353 351 353 351 348 348 348 349
324 328 330 330 331 332 331 332 335 339 341 344 349 351 352 353 354 354 354 354 355 354 353 353 351 350 352 353 357 359 359 357 354 354 356 359 359 357 353 353 351 352 352
322 322 323 328 328 329 332 332 331 331 335 338 339 343 345 349 352 352 353 354 354 355 356 356 355 354 353 351 349 351 352 352 354 356 356 354 353 356 356 355 354 351 350
321 323 322 322 324 327 326 326 326 325 332 333 339 339 339 349 349 349 352 353 353 353 354 354 355 356 356 355 354 352 350 350 351 351 353 356 356 355 355 354 353 352 352
317 318 319 321 323 322 324 326 323 324 328 329 336 341 344 336 333 339 344 344 342 344 348 351 352 354 354 353 353 353 353 353 352 350 350 352 354 355 355 354 353 352 352
313 314 315 315 318 319 321 323 323 325 324 328 328 328 328 325 324 327 333 330 329 327 330 338 341 344 349 351 352 354 354 353 352 349 347 349 350 351 352 353 353 353 352
310 311 312 312 313 315 316 316 318 319 321 321 320 321 321 320 320 320 322 321 321 322 324 326 327 331 338 344 347 350 352 352 352 351 351 351 349 350 351 352 353 353 352
309 309 309 309 309 311 312 314 315 315 316 317 317 318 318 318 319 319 320 321 320 320 322 323 324 326 328 330 338 350 355 356 355 354 351 350 350 351 351 352 353 353 352
307 307 307 307 308 309 310 310 311 312 314 316 318 318 318 318 317 319 320 321 320 318 319 323 325 327 329 330 333 338 342 347 350 353 354 352 351 352 353 354 354 353 352
306 305 306 306 305 306 306 306 306 306 308 310 312 314 315 316 317 316 316 318 318 318 318 320 324 327 330 332 333 337 342 344 346 345 346 346 352 354 354 353 353 352 352
305 304 304 304 304 305 305 306 306 306 306 307 308 309 311 315 316 317 317 318 318 318 318 321 326 329 333 336 338 340 344 349 351 349 346 350 347 348 345 343 350 352 352
303 303 303 303 303 303 304 304 303 303 304 304 305 306 307 308 310 312 313 314 317 319 322 323 326 333 338 339 340 342 343 346 347 347 347 344 345 341 343 342 339 350 353
302 302 301 301 301 300 300 301 301 301 301 301 301 302 302 304 305 306 307 310 313 315 317 318 318 319 323 326 331 338 340 341 343 345 347 347 346 345 337 336 347 351 351
301 300 300 298 298 298 298 297 297 298 298 299 299 299 300 300 302 303 305 307 309 313 315 317 319 321 324 327 327 327 327 327 327 329 333 337 342 349 349 349 349 349 349
300 300 299 298 297 296 296 296 296 296 296 296 296 297 297 298 299 300 302 305 306 308 309 311 314 315 315 315 315 314 313 314 316 318 321 322 326 334 341 348 346 347 349
300 300 299 298 298 296 295 295 294 294 293 293 294 294 295 296 297 298 299 301 303 305 306 308 310 311 310 309 309 309 307 309 311 312 315 318 320 323 331 338 344 348 347
301 300 300 299 298 297 296 294 293 293 292 292 292 293 292 293 294 295 297 298 299 300 302 304 306 306 306 306 305 305 305 306 307 309 312 313 314 318 323 331 336 340 346
301 301 300 300 299 298 296 295 293 292 292 292 291 291 291 291 292 294 295 296 296 297 299 301 303 303 303 303 302 302 303 306 309 311 310 313 315 317 318 323 329 334 339
302 302 302 301 300 299 297 295 293 292 291 291 290 290 290 290 290 292 293 294 295 296 297 297 299 300 300 299 300 301 302 303 307 311 309 309 312 315 316 320 325 329 333

GFSGL_925_thetae_090.txt.gz
Theta_e
350 347 347 346 349 349 347 351 351 351 350 350 348 350 349 351 353 353 351 350 350 351 350 348 349 351 350 350 350 349 348 350 349 351 351 350 349 350 349 347 348 350 350
351 350 350 346 348 349 348 351 354 353 352 350 349 348 350 351 351 353 352 351 350 349 352 351 348 347 347 347 353 350 349 351 350 351 351 351 348 349 349 349 350 352 349
350 350 348 347 347 350 352 350 352 355 351 350 351 351 345 348 350 353 354 352 351 351 352 350 350 352 351 346 348 350 349 348 349 350 350 349 347 346 349 351 349 348 346
345 346 347 350 351 351 350 353 349 351 354 353 352 352 351 352 351 352 352 353 353 351 351 352 353 353 353 351 352 351 352 351 350 350 351 351 352 353 355 354 351 344 339
342 344 341 344 349 350 351 352 354 353 353 353 354 353 353 354 353 353 353 354 355 354 353 353 353 353 353 353 354 355 354 354 352 351 352 353 351 350 351 352 353 345 340
342 342 342 343 346 346 350 352 352 353 354 354 355 355 354 354 354 354 355 354 353 355 355 354 355 354 352 351 352 355 355 353 352 353 352 351 349 347 344 344 344 345 347
339 340 342 343 342 342 344 345 348 349 352 352 352 353 354 354 355 355 354 353 354 355 353 353 352 353 354 352 352 352 354 354 353 353 354 351 351 352 351 350 350 347 347
333 333 333 335 339 339 337 337 340 340 343 347 350 352 352 353 354 354 354 353 352 352 352 352 353 353 353 354 355 354 355 354 353 354 355 354 354 353 355 356 354 352 351
323 324 328 328 329 333 332 331 330 332 335 338 340 343 348 350 350 351 352 353 353 353 353 354 354 354 353 352 351 353 354 354 353 353 353 353 354 355 357 357 357 352 351
321 322 323 323 325 326 326 327 327 324 328 331 336 339 339 344 349 349 350 352 353 353 353 353 353 354 355 354 353 352 351 350 350 349 349 349 350 351 352 354 354 353 351
317 319 320 320 321 321 323 325 325 323 326 331 334 340 339 335 336 339 343 344 341 345 347 349 350 353 353 354 352 352 353 351 351 351 350 350 350 351 351 351 352 354 352
314 314 315 316 316 318 320 322 322 323 324 322 328 329 324 323 321 320 321 326 323 324 327 329 334 339 345 347 349 350 351 352 352 352 353 351 349 350 351 352 352 353 353
311 311 312 313 313 314 315 315 316 316 316 316 317 318 318 317 318 319 319 320 321 320 320 321 321 322 325 327 334 337 343 347 348 350 351 351 351 350 350 350 351 352 353
308 308 308 308 309 310 312 312 312 312 311 312 313 313 315 317 317 317 317 320 321 321 320 318 318 320 321 322 323 324 327 333 346 350 348 349 349 349 348 349 350 349 350
306 306 307 307 307 306 306 306 307 306 308 309 310 311 311 312 313 315 316 315 316 319 320 318 318 318 319 320 322 325 329 331 342 347 351 350 351 349 349 349 349 349 350
305 305 304 304 304 305 305 305 305 305 305 306 305 306 308 309 310 312 315 317 317 317 317 317 318 317 318 321 325 329 334 336 337 339 343 346 349 351 352 350 351 351 351
304 304 303 303 303 303 304 303 303 302 301 301 301 301 303 305 305 306 309 314 315 317 317 319 318 319 320 323 326 332 336 338 340 343 345 347 347 346 348 351 352 352 351
303 303 302 302 302 302 301 300 300 300 300 300 299 299 299 299 300 301 302 305 308 311 313 316 318 321 323 327 330 333 334 336 338 339 344 344 346 347 346 344 346 345 343
303 301 300 299 298 297 297 297 297 297 297 297 297 298 298 298 297 298 299 302 304 306 308 311 313 315 315 316 318 325 330 334 335 335 336 337 339 343 344 342 342 341 341
301 299 298 297 297 296 296 295 295 295 296 296 296 296 296 295 296 296 298 299 301 303 305 307 310 314 316 316 318 322 323 322 322 322 322 323 326 330 332 336 339 339 339
300 299 299 298 297 297 296 295 294 294 294 294 294 294 293 294 295 296 296 297 298 299 300 303 304 306 308 310 313 314 315 315 316 316 313 314 317 318 320 323 331 335 345
300 300 299 299 299 298 297 296 295 293 293 293 293 293 293 293 293 293 294 295 296 297 297 299 300 303 305 307 309 311 310 309 309 310 310 310 311 312 314 317 320 328 334
300 300 300 300 299 299 298 297 296 294 292 292 292 292 292 292 292 292 292 292 292 294 296 296 297 299 301 302 306 307 306 306 306 305 306 306 308 310 310 311 314 318 324
301 300 300 300 300 299 299 298 296 294 292 292 291 291 291 291 290 290 290 291 291 293 294 295 295 296 297 299 300 302 303 303 303 302 302 302 302 304 306 309 312 316 321
301 301 300 300 301 301 300 299 296 295 293 292 291 291 290 290 290 290 290 290 290 290 291 293 294 294 295 296 297 299 300 300 300 299 298 298 299 301 302 305 309 311 315
303 301 301 301 301 301 301 299 297 295 293 291 291 290 290 289 289 289 289 288 288 288 289 290 291 292 294 295 296 296 296 296 296 296 297 297 296 297 300 303 307 309 313

GFSGL_925_thetae_093.txt.gz
Theta_e
348 348 345 348 349 348 348 348 350 351 350 349 349 349 351 349 351 353 351 350 350 350 350 350 350 348 349 349 350 350 348 350 348 350 350 349 349 347 346 347 348 349 349
349 349 348 346 348 347 347 348 345 350 350 350 350 348 349 349 350 351 352 352 351 349 349 350 350 349 347 348 348 351 348 349 350 348 347 345 345 345 346 349 350 349 347
347 349 350 350 351 349 346 347 348 349 350 352 351 349 348 349 350 350 350 350 351 351 350 350 351 350 351 351 349 348 349 350 349 350 349 348 348 348 350 351 352 350 343
343 344 346 347 348 349 350 349 348 350 350 352 351 350 350 350 345 347 349 351 351 352 352 351 350 350 351 351 353 352 353 353 352 350 350 350 349 348 347 347 342 340 340
343 343 342 342 345 346 348 349 347 349 352 351 351 352 352 352 351 352 352 353 353 352 352 352 352 352 350 349 350 349 352 353 354 353 351 351 351 350 350 348 347 347 348
343 342 342 342 342 342 343 345 347 348 348 350 351 352 352 353 353 353 354 354 354 354 353 353 352 352 353 353 353 352 351 351 353 355 352 351 352 352 351 351 351 349 347
340 340 341 342 341 340 341 341 341 341 342 346 349 350 351 352 352 352 353 354 353 352 352 353 353 352 351 351 351 351 353 352 352 354 353 353 353 353 353 352 352 351 351
333 333 334 336 339 339 338 339 339 339 338 338 342 345 347 349 351 351 352 351 353 352 352 351 351 351 352 352 352 352 351 351 353 353 354 353 353 353 355 354 355 353 353
323 323 326 330 332 329 331 331 326 327 332 332 334 339 340 342 348 349 350 350 351 351 351 352 352 352 353 353 353 353 352 352 351 351 350 350 350 349 349 353 353 352 351
319 319 321 323 323 323 325 325 323 324 328 330 333 342 343 339 336 336 343 345 345 345 345 346 347 349 351 352 351 351 351 352 351 350 350 352 351 350 350 350 350 351 351
315 317 318 318 318 320 322 323 323 324 334 336 332 328 327 323 326 325 322 322 321 321 323 326 329 327 333 340 344 344 344 345 348 349 350 351 352 352 352 352 351 350 350
312 313 313 314 315 316 317 317 318 318 318 317 318 317 317 316 317 317 319 322 321 320 320 319 318 318 319 321 322 323 329 331 335 339 344 346 347 349 350 350 351 351 350
310 310 310 311 312 313 314 314 314 313 313 313 313 314 314 314 315 316 316 316 317 319 320 320 320 318 317 317 318 319 322 324 328 335 338 340 347 349 349 349 349 349 348
306 307 307 307 307 308 309 308 308 309 309 309 309 310 310 310 311 312 314 316 317 316 317 317 318 317 317 317 317 319 324 328 332 336 340 340 342 346 348 348 348 349 347
306 305 304 304 304 304 305 305 305 305 305 304 304 305 306 305 304 304 306 311 314 315 316 316 317 317 318 318 319 322 328 334 336 338 338 340 342 344 345 346 348 348 347
303 302 302 303 303 303 302 301 300 301 301 300 299 300 300 299 299 300 303 308 311 313 314 314 315 316 318 320 323 326 328 330 331 333 337 340 343 344 345 346 347 347 347
302 302 302 302 301 299 299 298 297 297 297 297 297 297 297 296 297 298 298 300 302 303 306 308 310 312 314 315 316 317 320 321 328 332 336 338 341 345 344 344 344 346 347
301 300 300 298 297 297 296 296 296 296 296 296 296 296 295 295 296 296 297 298 299 299 301 303 305 307 309 313 316 319 320 324 324 324 326 329 328 328 333 339 342 341 341
300 298 297 297 297 296 296 295 295 294 294 294 295 295 295 295 295 295 295 296 297 298 299 300 302 304 306 308 309 308 309 312 317 319 319 319 319 318 320 322 322 324 331
299 298 297 298 298 297 296 296 294 294 293 293 293 293 292 293 293 293 293 294 294 295 296 297 298 298 300 301 303 304 308 312 312 313 314 314 314 314 314 314 315 317 322
300 299 299 299 299 298 297 296 295 294 293 293 292 292 292 292 292 292 292 292 292 292 293 293 295 296 297 298 298 298 302 305 308 309 309 309 310 310 310 311 312 313 315
301 300 299 299 299 299 299 298 296 295 294 293 292 292 292 292 291 291 291 291 291 291 291 292 293 294 295 295 296 298 300 302 305 307 306 305 306 306 307 308 310 311 311
302 301 300 300 300 300 300 299 298 296 294 293 292 292 291 291 291 290 290 290 290 290 290 290 290 291 292 293 294 294 296 297 299 300 302 302 302 302 303 304 304 306 308
303 302 301 300 300 300 300 300 299 297 295 294 293 292 291 290 290 290 290 289 289 289 289 289 289 289 289 290 291 292 294 294 295 296 298 299 300 300 299 300 301 303 306
304 303 301 301 300 300 300 300 300 299 296 295 293 291 291 291 291 290 289 289 289 288 288 287 288 288 289 289 290 290 291 292 293 294 295 296 297 298 298 298 298 299 301
306 305 303 301 300 300 300 300 300 300 298 296 294 292 291 291 290 290 289 289 288 288 287 287 287 287 288 288 289 289 289 290 291 291 292 292 292 293 294 295 296 297 298

GFSGL_925_thetae_096.txt.gz
Theta_e
346 345 345 346 349 349 348 348 349 349 349 348 348 348 348 349 350 350 350 350 349 350 349 349 349 349 348 348 349 350 348 349 348 348 348 345 343 342 342 344 347 349 349
347 346 347 346 346 349 348 347 348 348 345 348 348 349 349 349 349 349 350 350 348 349 348 349 348 349 348 347 347 349 350 348 349 348 347 347 345 343 347 348 350 350 345
347 347 349 350 349 348 348 347 346 348 348 347 346 349 348 348 348 349 349 349 349 350 349 349 349 349 350 350 350 350 348 349 349 349 349 349 350 349 348 346 346 346 347
343 345 347 347 348 348 348 348 348 347 348 349 349 350 351 349 348 348 347 348 349 350 350 350 350 350 349 349 349 350 351 351 352 352 351 351 350 350 350 349 350 351 350
343 341 341 341 342 343 345 345 346 348 349 350 351 351 351 350 350 350 350 350 351 351 352 352 352 351 352 351 351 350 351 351 351 351 352 351 351 352 351 351 351 351 349
342 342 341 341 340 341 341 342 343 344 345 346 348 350 350 350 351 352 352 352 353 353 353 353 353 352 352 352 352 352 352 352 352 352 351 352 352 351 351 351 351 350 351
340 340 341 341 340 339 340 340 339 340 340 340 341 342 345 348 349 349 351 352 352 352 352 351 351 351 352 351 351 351 352 352 353 353 352 353 352 353 353 352 352 351 350
331 333 335 336 336 336 337 337 337 337 338 337 336 339 341 343 347 348 348 349 350 350 350 350 350 350 350 350 351 352 352 352 351 351 351 351 351 350 350 350 350 350 350
324 325 326 327 328 330 331 332 334 335 335 336 336 342 337 329 330 339 344 346 346 346 345 345 345 344 340 345 348 350 351 351 352 352 351 351 351 351 350 349 349 349 351
318 319 320 321 322 323 325 324 325 328 331 334 337 330 327 326 324 323 322 325 323 322 326 324 323 322 324 327 331 339 340 343 345 347 348 348 350 351 351 351 351 349 351
315 317 317 318 319 320 321 322 325 333 335 330 324 319 319 319 319 320 321 321 320 320 320 320 319 318 318 319 319 321 324 324 328 329 332 337 340 345 347 348 348 349 350
312 313 315 316 316 317 317 317 317 319 319 316 315 314 314 314 315 316 316 317 317 317 318 319 319 319 317 317 317 318 321 325 326 328 328 330 334 338 340 345 349 348 348
310 310 310 312 313 314 315 314 314 314 313 312 312 311 311 312 313 314 315 316 316 316 316 316 317 317 317 317 317 317 320 329 332 333 335 337 338 340 341 340 341 341 345
307 306 307 308 309 309 309 309 310 309 308 307 306 306 306 307 308 309 310 313 314 315 315 316 316 316 316 316 317 318 321 327 330 331 334 336 338 341 342 344 344 346 347
305 304 304 304 305 305 305 305 305 303 303 302 301 302 301 300 298 299 300 302 305 306 309 311 313 313 313 314 315 317 319 320 322 326 331 332 333 334 335 341 344 343 345
302 302 302 303 302 301 301 300 300 299 298 298 298 297 297 296 297 297 298 299 301 301 303 303 306 308 310 311 313 315 317 318 322 327 327 328 330 331 329 332 336 339 342
301 301 301 299 298 297 297 297 297 297 296 296 296 295 295 295 296 296 297 297 298 299 299 301 302 304 305 308 311 313 313 313 314 315 320 321 321 321 321 323 324 325 326
300 300 298 297 296 296 296 295 295 295 295 294 294 294 295 295 295 295 296 297 297 297 297 298 299 299 300 301 301 302 303 304 306 308 312 314 316 316 317 318 318 319 319
299 297 297 297 296 296 295 295 294 294 294 294 294 294 293 293 294 294 294 294 294 295 295 295 296 296 297 297 298 299 300 300 302 308 311 311 312 312 313 313 313 313 313
297 297 298 297 297 296 296 295 294 294 294 293 293 293 292 293 292 292 292 292 292 292 292 292 293 294 295 295 296 296 296 297 299 301 303 305 307 306 307 308 309 310 311
297 297 298 298 297 297 297 296 295 294 294 293 293 292 292 292 292 292 291 291 291 291 291 291 291 291 292 293 294 294 295 295 295 296 297 298 305 306 305 305 305 305 306
299 298 298 299 299 299 298 297 296 295 294 294 293 293 292 292 291 291 291 291 291 290 290 290 290 290 290 290 291 291 292 293 294 294 295 297 299 300 301 302 302 302 303
301 299 299 299 299 299 299 299 299 297 296 295 294 293 292 292 291 291 290 290 290 289 289 289 289 289 289 289 289 290 290 291 291 292 293 293 294 295 297 299 300 301 300
302 301 300 299 300 300 300 300 300 300 299 297 295 294 293 292 292 291 291 290 289 289 289 288 288 288 288 289 288 288 289 289 289 289 289 290 290 291 292 296 299 300 299
303 302 301 301 300 300 300 300 300 300 300 299 297 295 294 293 293 292 291 290 289 290 289 289 288 288 288 288 288 288 287 288 288 290 290 290 289 290 290 292 293 295 297
305 304 303 303 302 302 300 300 300 300 300 301 299 297 296 295 294 294 292 290 290 290 289 289 287 288 288 287 288 287 288 288 289 290 290 290 289 289 289 290 291 292 294

GFSGL_925_thetae_099.txt.gz
Theta_e
346 346 347 348 349 347 348 348 348 348 348 348 348 347 347 347 349 349 349 351 346 349 348 351 354 351 352 351 351 353 352 352 350 347 351 349 348 351 348 347 349 352 349
349 347 347 345 345 349 348 347 347 347 345 346 347 347 348 348 350 351 352 352 348 348 348 347 348 352 354 352 351 352 352 353 351 352 352 352 353 354 352 353 351 351 352
346 348 346 345 346 350 351 351 348 346 345 348 347 347 347 347 347 348 348 350 348 347 347 348 350 348 348 352 350 348 352 353 354 354 354 354 354 354 353 354 355 354 351
342 344 346 345 346 350 348 347 348 347 345 348 349 349 349 349 349 348 348 350 348 349 347 348 348 349 349 349 351 350 351 349 352 350 352 352 353 354 355 354 353 350 350
341 341 343 344 346 346 347 347 347 348 348 348 349 351 351 351 350 350 350 351 350 353 351 351 352 350 350 350 350 348 350 350 351 350 351 352 352 351 353 353 352 350 350
342 341 341 341 342 343 343 344 344 345 346 346 347 348 349 351 350 350 351 353 354 355 356 352 355 351 352 351 351 351 351 351 354 350 351 353 356 356 353 353 353 352 352
342 342 340 339 339 339 339 339 339 339 340 342 344 345 343 344 346 348 349 350 349 351 353 352 352 352 351 351 353 351 351 351 351 351 354 355 355 355 355 355 354 354 354
339 339 338 338 338 337 337 337 337 337 337 340 344 339 337 338 345 347 347 348 350 349 349 348 348 345 343 344 346 351 353 353 354 354 354 354 355 355 355 355 355 353 353
332 333 334 333 334 334 334 334 333 334 336 341 338 331 328 327 331 338 340 342 339 336 337 336 334 332 331 340 341 337 342 347 347 347 347 347 348 349 349 350 352 353 354
321 322 323 324 326 326 329 328 330 332 335 333 329 325 321 320 322 322 325 327 327 324 324 320 319 318 318 319 320 326 330 331 329 329 331 336 339 344 346 348 350 353 353
316 317 318 320 321 321 322 326 329 332 330 324 319 318 319 318 319 321 322 320 319 324 321 323 320 318 318 317 317 323 322 321 326 330 331 333 334 336 339 343 348 352 352
314 315 315 316 316 317 320 323 327 323 318 318 317 315 313 312 313 315 316 316 316 316 316 316 317 317 317 317 319 318 318 326 331 333 333 335 337 339 340 342 343 344 348
312 312 313 313 314 314 315 315 316 315 315 313 314 314 310 310 311 312 313 314 314 314 315 315 315 316 316 319 316 316 322 325 327 330 332 334 335 337 337 338 342 344 346
310 310 310 311 310 310 311 311 311 311 312 312 310 309 306 304 304 304 304 305 305 307 309 313 312 314 316 317 318 319 320 322 323 325 327 329 331 334 337 337 337 337 344
308 308 308 308 308 307 306 307 304 302 305 306 305 303 303 301 298 297 299 300 301 302 305 308 309 310 312 312 314 316 317 318 320 321 322 324 325 327 327 328 330 330 331
307 306 306 305 305 305 303 300 298 298 298 298 298 299 297 296 296 297 298 298 299 300 305 306 305 306 307 308 309 310 310 309 310 310 313 316 319 320 322 321 323 326 327
305 304 303 303 302 302 302 302 300 296 295 295 295 295 295 296 296 297 297 298 298 301 302 302 302 302 302 302 303 303 304 304 305 307 309 311 313 314 315 316 317 318 319
303 301 301 300 300 300 300 300 300 300 300 298 295 295 294 294 295 295 297 300 300 299 300 300 300 300 300 301 301 301 301 301 301 302 303 305 308 309 310 311 311 312 313
302 300 299 299 299 299 299 298 298 298 298 298 298 296 295 295 295 295 296 298 298 298 297 297 297 298 298 299 299 299 299 299 299 300 301 302 304 306 307 308 308 308 307
300 299 299 299 298 299 298 298 298 298 298 298 297 297 297 297 297 297 296 296 296 296 296 296 295 295 295 295 296 296 297 297 298 298 298 298 299 301 302 303 305 306 306
299 299 299 300 299 299 299 298 298 298 298 297 297 294 294 297 296 296 296 296 295 295 295 294 294 294 294 293 293 294 294 295 295 295 295 296 297 298 298 297 298 301 303
300 300 300 300 300 300 300 299 299 298 298 298 297 295 294 296 296 296 295 295 294 293 293 293 293 293 293 292 291 291 291 292 292 293 293 293 293 293 294 294 295 296 298
301 301 301 301 301 301 300 301 301 300 299 298 297 296 296 296 296 295 295 294 293 293 292 292 291 291 291 290 290 290 290 290 290 289 289 290 290 291 292 292 293 295 295
302 301 300 301 301 301 302 302 302 301 301 300 298 297 297 296 296 296 295 294 294 293 292 291 290 290 290 289 289 289 289 289 288 288 288 288 288 289 290 290 291 292 293
303 302 302 301 301 301 302 302 302 302 302 302 301 299 298 297 297 296 296 295 294 293 293 291 290 289 289 288 288 288 288 287 287 288 288 287 288 289 289 290 290 291 291
304 303 303 302 302 302 302 302 302 302 302 302 302 301 299 298 298 297 297 296 295 294 293 292 290 290 289 289 288 288 288 288 288 288 289 289 290 290 290 290 290 290 291

GFSGL_925_thetae_102.txt.gz
Theta_e
351 349 349 350 349 350 350 348 351 350 349 353 351 355 354 352 353 355 354 353 353 351 352 353 353 355 349 347 346 347 347 347 347 343 344 344 352 353 352 353 348 346 345
351 351 350 347 349 348 350 349 351 350 352 352 352 350 353 352 352 354 353 351 352 351 350 351 352 350 354 352 350 350 348 350 349 348 348 348 349 351 352 355 352 347 348
352 351 351 347 347 349 350 350 351 350 351 352 353 354 351 353 349 352 353 353 352 351 350 351 351 351 352 350 353 351 348 350 351 351 349 347 348 350 350 349 350 350 346
350 351 349 349 349 349 350 352 351 353 350 350 351 353 352 351 352 351 352 353 353 351 352 351 351 351 352 352 351 352 351 351 349 350 349 347 347 348 349 348 346 346 346
345 345 349 351 351 351 351 352 353 353 350 352 352 354 354 352 350 355 355 355 355 353 354 352 352 353 351 350 350 352 352 351 350 349 348 347 347 353 350 348 347 346 347
342 342 343 341 344 350 351 352 352 353 354 354 355 355 354 352 351 350 350 354 355 354 353 354 352 353 354 354 353 352 351 352 353 353 351 349 351 351 349 349 351 351 352
341 342 341 342 343 345 346 348 350 350 351 351 352 352 345 341 346 347 349 352 355 353 354 355 354 349 350 349 350 350 352 353 353 354 354 354 355 354 354 356 354 355 355
344 342 342 340 340 340 340 340 343 345 346 348 345 341 336 337 344 347 348 354 353 350 347 349 348 346 344 344 345 349 352 353 353 354 355 354 354 353 352 352 353 354 355
339 339 338 338 338 338 337 337 339 342 343 345 340 334 328 329 336 342 346 345 344 341 336 334 335 330 325 333 337 339 341 343 342 337 334 335 339 341 342 346 350 352 354
330 332 333 335 339 340 339 335 335 340 340 334 328 322 320 320 322 332 336 338 337 336 333 329 320 318 317 317 328 331 332 330 328 331 335 338 338 340 339 345 351 351 352
323 326 326 327 329 330 330 333 336 335 333 324 320 320 321 319 321 323 322 323 330 328 327 325 322 317 317 317 320 324 322 317 331 334 335 336 338 340 342 344 345 345 345
323 324 324 324 323 326 329 330 327 326 323 322 320 317 314 313 315 316 317 318 317 317 318 317 317 316 316 317 319 316 317 323 327 328 331 333 335 335 336 338 340 342 345
320 321 321 321 321 323 326 323 323 325 325 324 323 320 314 312 310 311 312 314 314 315 316 315 315 315 317 320 318 318 322 323 323 324 326 329 330 331 333 336 335 335 337
318 318 318 318 318 319 319 320 322 322 322 321 320 318 314 309 306 306 305 308 306 310 310 315 313 314 316 316 317 319 320 320 322 324 323 322 323 325 326 326 326 326 328
315 315 315 315 315 314 310 311 310 305 311 316 314 312 312 310 301 299 300 301 301 302 309 310 310 311 311 312 314 313 314 311 312 312 313 314 316 318 319 320 319 320 322
313 313 312 313 312 311 308 303 299 299 301 302 304 305 300 298 298 298 298 299 300 306 308 309 307 307 307 308 306 307 308 308 308 308 309 310 313 315 316 315 317 318 319
311 310 309 309 310 310 308 306 302 296 296 296 297 298 299 297 297 297 298 300 302 305 307 307 307 306 306 306 306 306 305 305 304 304 306 307 308 309 310 311 312 312 313
309 306 307 306 306 306 307 307 305 304 304 300 296 296 295 296 296 298 301 304 305 304 305 305 305 304 304 305 304 304 304 304 304 304 305 305 305 305 306 307 308 309 310
306 304 304 304 304 304 304 304 304 304 304 303 301 298 297 298 299 299 301 303 304 303 303 302 302 302 302 302 302 302 302 302 301 303 303 303 303 303 304 304 305 305 305
306 303 303 304 302 303 303 303 303 303 303 303 303 302 302 301 303 302 302 302 302 302 301 301 301 300 300 300 299 299 300 300 300 300 300 300 300 300 301 301 302 302 302
304 302 302 303 303 303 303 303 303 303 303 302 301 297 299 302 302 302 301 301 301 301 300 300 299 299 299 298 298 298 297 297 298 297 297 297 297 297 297 298 298 299 299
303 303 302 303 304 303 303 303 303 303 302 302 301 296 297 301 301 301 300 300 299 299 298 298 298 298 297 297 296 295 295 295 295 294 293 293 293 294 294 295 295 296 297
304 303 303 303 304 303 302 303 303 303 303 302 301 301 300 300 300 300 299 299 299 298 298 297 297 297 296 295 294 294 293 293 292 291 290 290 291 291 292 292 293 293 294
305 304 304 304 303 304 303 304 304 304 304 303 302 301 301 300 300 300 300 299 298 298 297 297 296 296 296 294 293 292 292 291 290 289 289 289 289 290 290 291 292 292 294
306 306 305 304 304 303 304 304 305 305 304 304 303 302 301 301 301 301 300 300 299 298 298 297 297 296 295 294 293 292 291 290 289 289 289 290 291 291 291 292 292 292 293
305 306 306 305 304 304 303 304 304 305 305 305 304 303 302 302 301 301 301 301 301 300 299 298 297 296 295 294 294 292 290 290 290 290 291 291 291 292 292 292 292 292 293

GFSGL_925_thetae_105.txt.gz
Theta_e
351 350 349 348 348 349 348 350 351 352 352 354 355 354 353 355 355 355 356 353 354 353 352 352 351 352 351 349 349 347 345 345 346 346 346 344 346 351 351 352 350 350 346
351 351 351 350 349 347 348 349 352 353 353 354 355 354 352 354 354 355 356 351 352 352 352 352 352 349 353 353 351 350 347 348 347 350 347 350 346 350 350 352 349 348 347
353 353 353 351 350 348 347 348 350 352 353 353 353 353 354 353 353 354 355 352 352 351 350 351 352 352 352 353 354 352 349 352 351 350 347 346 347 347 350 348 349 350 346
347 353 353 353 350 350 350 348 350 353 352 352 353 353 354 353 354 352 354 354 354 352 352 352 351 352 353 354 353 354 353 352 349 350 349 348 347 352 351 347 346 344 347
344 348 349 351 352 352 352 353 349 350 350 351 351 352 352 352 350 352 353 354 355 353 352 353 351 352 352 351 350 352 355 353 351 351 349 347 348 353 348 348 348 347 349
346 347 349 350 353 353 352 353 352 352 351 351 352 353 353 351 348 349 349 354 354 356 355 352 351 353 354 353 353 350 351 355 355 354 352 350 353 352 352 353 355 353 354
347 346 346 346 343 344 349 351 352 352 352 353 352 353 352 348 347 348 349 349 353 355 355 355 355 350 351 352 352 351 351 351 351 352 355 354 354 355 356 356 354 355 355
348 345 345 342 341 342 343 345 348 349 350 350 349 346 340 335 344 346 346 352 354 354 354 353 351 348 343 342 342 349 350 351 352 353 354 351 348 347 345 347 349 351 353
347 347 346 345 343 341 341 341 342 344 345 343 342 338 332 332 341 344 348 351 349 346 342 340 339 330 322 324 339 341 342 343 337 333 333 335 338 339 339 341 347 349 353
340 340 340 341 339 339 339 338 338 340 340 340 333 328 323 323 332 338 341 345 346 340 332 326 321 319 318 318 332 331 331 328 329 335 340 340 340 342 342 340 347 347 348
330 333 334 334 336 337 337 339 336 337 334 330 326 323 322 322 323 324 331 333 333 336 335 331 324 317 317 317 318 325 317 316 325 333 333 337 338 339 337 338 340 342 341
327 328 328 327 328 331 335 332 332 329 329 327 324 322 319 316 317 317 318 320 321 324 323 320 317 316 315 317 320 315 316 324 327 325 326 330 333 331 330 332 338 334 333
324 326 327 327 329 331 332 331 329 328 328 328 328 325 321 316 314 315 315 314 315 318 316 315 315 315 317 320 319 319 322 323 324 326 327 326 322 325 327 326 325 324 324
321 322 324 324 325 327 329 329 329 329 329 329 328 326 321 316 313 309 309 311 309 312 312 316 313 314 316 316 319 319 320 316 317 316 316 317 317 318 319 319 320 319 320
318 318 319 319 322 318 314 315 315 314 314 314 323 321 318 319 308 301 302 304 305 305 311 313 312 312 312 312 310 311 312 312 312 311 312 312 313 315 316 316 315 316 317
315 316 316 317 317 315 313 307 305 305 309 310 311 309 306 306 300 299 299 300 302 309 312 312 311 310 311 309 309 308 309 308 307 307 308 309 310 311 311 312 313 314 315
313 312 312 313 314 314 312 311 307 298 297 298 300 302 303 299 298 298 300 302 306 308 311 310 310 310 310 310 309 309 308 308 307 308 308 308 308 307 307 308 308 309 310
312 310 311 310 311 311 312 311 309 307 307 303 297 297 297 297 298 300 303 305 308 307 308 308 308 308 307 308 307 307 307 306 305 306 306 306 306 306 306 306 307 307 306
310 308 308 309 309 308 309 309 309 309 309 307 301 298 298 299 299 302 305 307 308 307 307 306 306 306 306 305 305 305 305 304 303 304 304 304 303 303 303 303 303 303 303
309 306 306 306 306 306 307 306 307 307 307 307 307 307 304 301 305 306 306 306 306 306 306 305 305 304 304 304 303 303 303 302 302 302 302 301 300 300 300 300 300 301 301
307 306 303 304 305 305 306 305 306 306 306 306 306 304 303 305 306 305 305 305 305 305 304 304 304 303 303 302 302 301 301 301 300 300 299 298 297 297 297 298 298 298 299
307 305 303 304 305 305 305 305 305 305 305 305 304 300 299 302 304 304 304 304 303 303 302 302 302 301 301 300 300 299 299 299 298 297 296 295 295 295 296 296 296 296 296
308 306 305 304 305 305 305 305 305 305 305 305 304 303 300 304 304 303 303 303 302 302 301 301 301 300 300 299 298 298 297 297 296 295 294 293 293 294 293 293 293 293 294
310 308 307 306 306 306 305 305 305 305 306 305 305 304 303 303 303 303 302 302 301 301 301 301 300 300 300 299 298 297 297 296 293 293 292 292 292 292 293 293 293 294 294
310 310 308 307 307 306 306 306 306 306 306 306 306 305 304 303 303 303 303 303 302 302 302 301 300 300 299 299 298 297 296 293 292 291 291 292 292 293 294 294 294 294 294
312 310 309 308 307 307 307 306 306 307 307 306 306 306 305 304 304 304 304 303 303 303 303 302 301 300 299 298 298 297 294 293 292 291 290 291 293 294 294 293 293 293 293

GFSGL_925_thetae_108.txt.gz
Theta_e
354 354 354 351 352 350 351 350 352 349 353 348 352 355 354 354 354 355 353 350 354 353 352 352 351 349 351 349 348 349 347 348 351 349 346 348 350 346 351 349 349 350 348
350 351 351 349 349 350 349 350 348 353 354 352 353 354 353 354 354 355 354 353 353 351 352 352 352 352 352 353 353 353 351 351 352 350 352 348 345 348 352 349 350 349 348
353 353 351 350 352 348 349 347 348 352 353 353 354 352 353 353 353 355 354 352 353 352 351 351 352 353 352 351 352 353 352 352 352 353 352 349 348 350 350 351 343 349 350
347 350 346 351 350 349 349 350 349 350 351 352 353 352 353 350 353 354 354 354 353 354 352 351 350 351 352 352 353 352 353 351 351 352 352 351 351 354 350 354 353 355 351
351 352 352 352 353 351 351 349 349 352 352 351 352 352 353 353 352 352 353 353 352 352 354 354 352 352 350 350 351 349 350 355 355 354 354 352 354 355 356 356 357 355 354
346 344 342 344 346 350 350 351 352 352 350 350 350 351 351 352 349 347 351 352 352 354 349 350 353 352 354 352 352 350 350 350 352 354 355 355 355 355 354 354 354 356 355
349 347 347 347 346 348 347 351 352 349 348 350 351 353 353 351 348 348 348 349 349 352 354 353 352 352 351 352 351 350 352 353 352 351 352 353 353 352 350 347 347 349 352
349 349 348 347 345 344 344 345 345 347 347 350 348 344 341 338 342 342 343 346 348 350 353 354 351 345 338 340 344 346 346 347 344 340 337 339 339 337 337 340 343 347 351
349 347 347 346 343 342 343 343 344 344 344 345 343 340 335 334 339 343 346 354 350 347 345 341 338 329 321 328 337 336 336 335 330 330 334 339 339 339 338 338 345 347 349
347 346 345 345 344 342 340 341 341 342 342 341 338 336 336 329 334 338 340 346 345 336 325 325 320 319 318 319 322 324 319 316 318 330 332 335 342 340 338 340 344 344 343
340 342 342 341 341 339 339 340 338 338 336 334 332 330 325 324 325 329 333 336 332 332 336 326 321 317 316 316 318 316 314 321 325 327 327 333 333 329 330 329 335 329 333
330 332 333 335 336 336 336 337 336 334 331 330 329 324 323 320 320 324 329 330 330 326 325 322 317 316 316 320 317 319 322 324 325 326 322 321 321 323 325 325 323 322 322
327 328 327 331 332 333 332 331 331 331 330 328 327 325 322 319 316 315 315 316 317 320 317 315 314 315 318 319 318 319 319 319 317 317 318 317 317 318 319 319 319 318 319
323 324 326 327 325 329 326 328 328 322 327 329 331 327 323 319 315 314 312 312 311 312 312 314 313 315 316 315 315 314 313 313 312 312 313 313 313 314 314 313 315 315 316
319 320 320 323 322 318 314 313 313 314 315 317 317 320 321 319 314 309 305 308 308 308 310 314 313 313 312 311 310 309 308 307 307 307 309 309 309 309 309 310 311 311 313
317 317 318 320 318 316 315 310 308 308 310 313 313 314 313 312 309 303 301 301 302 308 312 314 312 312 311 311 310 311 310 309 308 309 309 309 309 309 308 309 309 309 308
314 312 312 313 318 315 314 312 309 302 300 302 306 308 306 303 300 300 300 302 306 309 311 312 312 311 311 310 310 309 309 307 308 308 308 307 306 306 306 306 306 305 305
311 311 311 311 311 312 314 313 311 308 307 304 298 299 299 299 299 300 301 305 308 308 310 310 309 309 309 308 308 307 307 305 306 306 305 305 304 304 304 304 303 303 303
312 309 308 310 309 309 309 310 311 310 311 306 300 298 298 298 300 304 305 307 309 309 308 308 307 307 307 307 306 306 305 304 304 304 303 302 301 301 301 301 301 301 301
311 308 307 307 308 307 308 308 308 308 309 309 307 307 301 300 304 306 308 308 308 308 307 307 306 306 306 305 304 304 303 303 303 302 301 300 299 299 299 299 299 299 299
310 308 305 305 307 306 306 307 307 307 307 307 307 306 306 306 307 308 307 307 307 306 306 306 305 305 304 304 303 302 302 301 301 300 298 298 297 297 297 297 297 297 297
308 308 306 304 306 306 306 306 306 306 307 307 305 304 303 302 305 306 306 305 305 304 304 305 304 303 303 302 301 301 300 300 299 298 297 296 296 296 296 295 295 295 295
310 309 308 306 305 306 306 306 306 306 305 306 306 304 302 299 305 305 305 305 303 303 303 303 302 302 301 301 300 299 299 298 297 295 295 295 295 294 294 295 295 295 295
313 311 308 307 307 307 307 306 306 306 306 306 306 304 304 303 304 304 304 303 303 303 302 302 301 301 301 300 300 299 298 297 294 294 294 294 294 294 294 294 295 295 295
313 312 312 310 309 308 307 307 307 306 307 306 307 306 304 304 304 304 303 303 303 302 302 302 302 301 301 300 300 299 298 295 293 293 293 294 293 294 294 295 295 295 295
315 314 312 312 311 310 309 308 307 307 307 307 306 307 307 305 304 304 304 304 304 303 303 303 302 302 301 301 300 299 298 296 295 293 292 292 292 294 295 294 294 294 294

GFSGL_925_thetae_111.txt.gz
Theta_e
355 352 351 352 351 352 347 347 347 340 347 347 347 353 353 353 352 353 352 349 352 350 351 348 350 351 351 352 352 352 351 353 351 349 349 348 348 348 351 351 351 350 350
351 354 352 348 349 351 351 350 350 342 351 346 346 351 352 352 354 352 352 353 352 351 351 351 351 349 352 350 351 351 350 352 350 350 350 350 351 350 347 349 354 353 351
351 355 352 351 349 350 348 350 349 351 352 351 352 351 352 353 353 352 354 351 351 353 351 351 351 351 352 350 349 352 350 351 349 352 353 351 351 351 350 350 349 350 348
353 352 353 351 351 351 350 346 349 352 351 350 353 353 350 351 352 354 353 353 351 352 353 353 351 350 350 351 350 352 350 350 353 351 351 352 352 354 352 352 351 350 350
351 352 351 348 350 352 350 350 350 349 351 350 352 352 350 351 351 352 353 353 353 350 349 350 352 352 351 350 350 349 348 348 348 349 351 352 353 352 353 352 349 348 344
349 348 349 347 348 349 349 351 350 350 350 349 350 351 350 350 349 347 348 353 352 351 351 351 350 351 350 352 351 351 350 352 352 350 351 352 352 352 348 339 340 345 349
348 348 346 343 344 346 346 347 349 347 346 346 349 349 350 349 348 348 347 348 350 351 351 351 351 350 349 348 346 348 347 347 347 348 346 339 337 335 336 338 344 348 349
347 347 347 345 346 345 346 346 346 346 346 347 346 346 344 343 341 342 342 344 348 349 348 350 348 344 340 341 343 344 340 339 331 330 332 334 337 338 337 336 342 343 343
348 349 348 347 345 343 342 342 344 344 345 346 344 339 335 337 338 341 346 350 348 346 343 341 337 328 325 336 336 334 334 325 322 329 331 334 337 340 340 341 339 340 339
348 347 346 344 343 342 342 342 343 343 343 341 338 336 335 330 333 336 342 347 338 333 328 322 320 319 318 318 319 316 315 319 326 328 335 330 329 329 329 334 328 327 324
347 346 346 344 342 340 339 339 341 340 339 338 337 332 327 324 327 331 336 339 335 329 327 320 317 316 317 318 317 318 321 324 324 324 322 321 320 322 321 320 320 320 324
338 339 340 341 339 339 340 339 338 338 335 332 330 324 321 320 321 325 327 328 326 329 323 318 316 316 318 319 318 320 322 322 320 318 316 315 316 317 317 316 317 317 319
328 331 332 335 334 334 336 336 333 331 331 329 325 323 322 318 316 317 318 317 319 318 316 315 314 316 319 317 317 318 320 318 316 315 313 313 313 313 314 315 314 315 316
327 326 325 324 326 326 329 329 329 328 326 327 328 323 319 316 316 315 315 315 315 314 313 313 314 315 315 315 315 315 313 312 311 310 310 309 309 309 309 309 309 309 310
321 322 322 322 319 317 318 314 312 314 316 315 317 324 319 318 316 311 308 309 310 309 310 312 312 312 311 310 309 308 307 307 308 309 309 309 308 308 307 307 307 306 305
317 319 321 319 316 315 316 314 312 307 312 311 311 312 313 313 311 308 304 302 303 305 313 312 311 312 310 310 310 309 307 308 309 308 307 306 306 306 305 305 304 303 302
313 315 315 314 317 314 313 311 308 302 303 305 309 310 309 307 304 302 301 301 304 309 312 314 311 311 309 310 309 307 306 307 306 305 305 304 303 303 303 302 301 301 301
310 310 310 311 315 315 314 313 311 309 307 306 304 301 300 300 299 300 301 304 307 308 312 310 309 309 308 307 307 306 305 305 304 304 303 302 301 301 300 300 300 299 299
310 309 308 311 308 308 310 310 311 309 309 308 304 300 299 299 299 301 304 306 308 310 308 308 308 307 307 306 306 305 304 303 303 302 301 300 299 299 298 298 298 298 297
309 308 307 307 308 308 308 308 308 309 309 308 304 303 300 299 301 304 307 308 309 308 307 307 306 306 306 305 304 303 303 302 301 300 299 298 297 297 297 297 297 296 296
311 310 307 305 307 306 306 307 307 307 307 308 308 308 305 306 308 307 308 307 307 306 306 306 305 305 305 304 303 302 301 300 300 299 297 296 296 296 296 295 295 295 295
311 309 308 306 304 306 306 306 306 306 306 306 306 306 305 305 305 306 307 306 306 306 305 305 305 304 303 303 301 300 300 299 299 297 296 295 295 295 294 295 295 295 295
312 309 308 307 305 304 306 305 305 306 306 306 305 305 304 304 302 305 305 305 305 304 303 304 303 302 301 300 300 299 299 299 297 294 295 295 294 294 294 294 295 295 295
311 310 310 308 307 306 305 306 306 306 306 306 306 306 305 304 300 304 305 304 303 303 303 302 302 301 301 300 299 299 298 298 295 293 293 294 294 294 294 294 295 295 295
315 314 313 310 308 307 307 307 307 306 306 306 306 306 305 304 304 304 304 304 303 303 302 302 302 301 301 300 300 299 299 297 296 294 293 293 293 293 294 294 295 295 295
317 316 314 313 312 310 308 307 307 307 307 306 306 306 306 305 304 304 304 303 303 302 302 302 302 301 301 300 300 300 299 298 298 296 295 293 293 293 294 294 295 295 296

GFSGL_925_thetae_114.txt.gz
Theta_e
347 351 350 350 351 351 350 347 344 343 337 338 346 350 351 352 351 351 352 349 349 352 350 349 348 350 351 352 351 350 351 350 347 348 349 351 349 346 346 352 352 350 350
349 352 352 350 351 350 351 347 346 343 344 347 346 350 351 353 352 351 351 352 347 349 349 350 351 350 352 349 350 350 350 349 348 348 350 350 350 350 349 347 347 345 346
349 352 352 349 352 351 350 349 348 347 347 348 346 348 349 351 350 349 349 349 351 351 350 351 351 350 349 350 349 350 349 349 351 351 350 349 352 351 348 348 348 345 344
352 352 353 351 352 349 348 350 350 348 348 348 348 348 350 350 349 350 350 351 350 350 349 351 351 351 351 349 350 349 350 348 348 347 348 350 351 349 351 347 342 342 349
350 351 352 350 349 349 350 350 349 349 350 351 350 351 349 348 348 348 348 350 351 350 349 350 350 350 349 350 349 349 348 347 347 348 349 350 351 351 344 338 343 346 349
345 348 351 349 350 349 349 348 349 349 347 348 349 350 351 349 349 347 348 350 352 349 349 348 348 350 349 349 350 349 349 351 351 350 350 349 344 335 336 340 345 346 346
347 348 349 348 348 347 349 347 347 347 347 348 347 348 348 348 348 347 347 346 350 350 348 347 349 347 347 347 346 347 345 346 344 341 337 335 334 336 336 337 343 343 345
346 345 346 347 347 346 346 346 347 347 347 346 345 345 344 343 342 340 342 342 345 348 349 347 346 343 342 343 342 341 336 329 327 327 330 332 333 337 339 340 341 340 341
344 345 347 346 346 344 343 345 345 345 346 345 345 343 337 333 337 339 344 346 345 344 342 340 336 331 335 335 336 333 321 325 336 335 332 332 334 337 330 331 330 330 329
347 347 347 346 344 344 343 342 344 344 344 344 340 332 328 333 336 337 343 343 339 334 328 323 321 319 319 319 318 316 322 329 329 327 327 328 329 325 322 322 322 323 325
347 347 346 344 343 342 341 342 343 342 338 332 330 328 329 329 332 335 342 334 330 324 321 318 316 317 318 317 317 320 324 322 321 322 320 320 319 318 317 320 319 319 316
342 343 342 342 341 340 340 340 340 338 335 330 327 324 323 323 325 328 328 334 330 329 321 317 316 317 319 318 319 321 320 320 319 319 317 315 314 314 314 317 317 314 310
334 335 334 337 338 338 338 336 335 334 332 329 326 320 318 317 315 316 322 323 325 324 318 315 315 318 318 317 317 318 318 317 316 315 311 309 309 309 310 311 312 309 306
327 327 330 330 329 329 331 330 329 329 329 327 325 322 318 315 315 315 315 314 314 315 314 313 314 315 315 314 314 313 312 310 310 309 308 308 308 307 307 307 306 306 303
323 322 322 324 325 324 321 319 320 319 318 320 326 322 318 316 314 310 311 311 311 310 313 313 312 312 311 310 308 307 308 308 308 308 307 306 306 305 304 303 302 302 302
321 320 317 316 317 318 320 318 318 318 317 313 315 321 319 317 313 311 308 305 303 304 312 312 311 310 309 309 308 307 308 308 307 306 305 304 304 303 302 301 300 300 300
315 314 316 318 315 312 310 309 308 304 307 311 314 313 314 312 308 304 303 301 302 309 313 311 312 311 311 310 307 307 306 305 305 304 303 302 301 300 300 299 299 299 298
311 309 310 314 318 315 313 311 309 305 303 302 301 300 301 301 300 300 301 303 306 307 312 311 309 308 308 307 306 305 305 304 303 302 301 300 299 299 298 298 297 297 296
309 308 309 309 308 311 313 313 313 309 308 306 301 299 299 299 299 300 303 306 307 310 310 309 308 307 307 306 305 304 304 303 302 301 299 298 298 297 297 297 296 296 295
309 308 307 307 307 307 307 307 307 309 309 307 304 302 300 299 301 305 307 307 309 308 308 307 307 306 306 305 304 303 302 302 301 299 297 297 296 296 296 295 295 295 295
311 310 308 306 306 307 305 306 307 306 307 308 306 306 302 303 303 306 307 307 307 307 306 306 306 306 305 304 302 302 301 300 300 298 296 296 296 295 295 295 295 295 295
310 310 309 308 306 305 306 305 306 306 306 306 307 307 304 306 305 305 308 307 306 306 306 306 305 305 304 303 302 301 300 300 299 296 295 295 295 295 295 295 295 295 295
311 311 309 308 308 305 304 304 305 305 305 305 305 306 305 304 303 303 307 306 306 305 305 305 304 303 303 301 301 300 300 299 297 294 294 295 295 295 295 295 295 295 296
316 312 311 309 308 307 307 305 306 306 306 305 306 305 305 304 303 302 306 305 305 304 304 303 303 302 301 301 300 299 298 298 296 294 293 294 294 294 294 295 295 295 295
317 315 312 311 312 311 308 307 306 306 306 306 305 305 305 306 303 302 303 305 304 303 303 303 302 301 301 301 300 299 299 298 297 295 294 293 293 293 294 294 295 295 295
318 318 316 315 314 313 312 308 307 307 307 307 306 306 306 306 304 303 303 304 304 303 303 302 302 302 301 301 301 300 299 298 298 298 297 296 294 293 293 295 295 295 295

GFSGL_925_thetae_117.txt.gz
Theta_e
346 345 346 346 347 348 348 345 347 346 345 343 347 349 347 349 351 351 351 351 349 350 351 350 349 350 350 351 351 350 351 349 344 347 348 349 349 349 348 347 345 345 344
346 346 346 347 347 349 348 348 347 344 344 338 338 345 350 350 351 351 351 350 351 348 349 349 349 350 350 350 349 350 349 349 348 347 348 349 348 349 348 347 345 343 346
347 347 347 351 349 350 349 349 348 345 343 342 347 345 349 350 351 352 349 349 348 348 349 348 349 350 350 350 349 349 348 348 350 349 347 348 349 348 348 345 342 349 347
349 348 348 350 351 350 349 349 349 347 347 344 348 347 347 348 349 350 350 349 348 349 348 349 350 351 350 349 349 349 349 348 347 346 345 348 349 350 342 340 344 348 346
350 349 349 349 351 350 350 351 349 349 349 347 347 349 349 350 349 348 347 346 338 349 349 349 347 349 349 348 349 349 348 346 346 347 348 349 349 340 338 343 346 347 346
351 350 349 350 352 351 350 350 350 349 347 348 348 350 350 348 348 347 346 346 348 348 349 348 348 346 347 347 349 349 347 348 349 349 349 346 339 335 337 338 342 344 340
349 349 349 350 349 348 347 348 348 347 345 347 346 347 347 348 348 347 347 346 346 346 347 347 347 346 346 347 347 347 346 347 345 344 340 335 334 337 337 337 341 342 329
346 346 347 348 348 347 346 347 347 346 345 346 346 345 344 343 344 341 341 344 343 346 348 347 345 345 344 344 344 341 339 334 332 330 329 330 332 334 337 339 340 338 343
344 345 347 347 347 347 346 346 345 346 346 346 345 344 343 343 340 337 341 343 343 344 342 340 337 337 339 339 339 337 328 330 333 334 335 337 337 337 336 333 328 327 329
344 344 345 345 346 345 343 342 342 344 344 344 343 342 342 337 336 336 340 343 342 341 340 336 326 326 330 325 326 322 329 326 328 330 329 328 325 324 324 325 323 323 324
341 345 345 345 344 343 343 342 343 342 341 339 336 329 327 327 331 338 341 339 339 334 332 321 318 318 318 318 317 320 326 322 322 323 321 318 318 320 320 319 319 318 315
341 343 342 342 342 341 341 341 340 338 333 328 324 321 319 323 327 333 333 331 326 323 318 316 317 318 318 318 321 322 322 320 319 318 317 314 314 316 315 313 311 310 308
336 336 335 339 340 339 339 337 334 332 330 324 321 319 318 317 320 325 328 328 325 322 317 316 318 318 318 318 319 319 318 318 317 315 312 311 310 310 312 310 306 305 304
330 328 329 331 329 331 332 331 330 330 329 326 323 320 317 315 315 315 320 320 320 317 315 314 316 316 315 315 314 313 313 312 312 311 309 308 307 306 306 305 305 303 302
323 324 325 325 326 325 325 323 322 321 322 323 322 320 317 315 313 314 314 314 314 314 313 313 313 312 311 309 309 308 308 309 308 307 306 305 304 303 302 301 301 301 300
317 316 317 319 321 321 320 319 321 321 318 321 322 320 317 316 314 309 307 307 305 306 312 312 312 311 309 308 308 308 308 306 306 305 304 303 302 301 300 300 299 299 298
313 313 318 314 312 310 310 311 311 313 317 318 318 315 315 314 312 309 304 303 302 305 310 312 311 309 308 307 307 307 306 305 304 303 302 301 300 299 298 298 297 297 297
309 310 312 317 316 314 312 311 307 305 303 302 304 304 303 303 301 300 300 302 303 305 310 311 311 310 309 307 306 306 304 303 303 302 300 299 299 298 297 297 296 296 296
308 308 308 308 310 313 313 312 312 310 308 306 304 302 300 299 299 300 302 304 307 308 309 311 310 310 308 306 305 305 304 302 301 300 298 298 297 297 296 296 295 295 296
309 307 307 307 307 306 306 307 306 308 309 307 305 303 300 299 300 304 307 307 308 309 309 308 307 307 307 306 305 304 302 302 300 299 297 296 296 296 295 295 295 295 296
310 310 308 307 305 306 305 305 306 305 306 307 307 305 303 300 301 305 306 307 308 308 308 308 307 306 305 305 304 303 302 301 299 297 296 296 295 295 295 295 295 296 296
313 310 309 308 307 304 305 305 305 305 306 306 306 306 306 303 306 306 305 306 307 307 307 306 306 305 305 304 303 302 301 300 298 296 295 295 295 295 295 295 295 296 296
317 313 310 309 308 307 305 304 304 304 304 305 305 305 306 305 305 304 303 305 306 306 306 305 305 305 304 303 302 301 300 299 298 295 294 295 295 295 295 295 295 296 296
318 316 312 311 309 308 308 307 306 305 305 305 305 305 305 305 305 303 302 306 306 305 305 305 304 304 303 302 301 300 299 298 297 294 294 294 295 294 295 295 295 295 295
319 317 315 314 311 310 312 311 309 307 306 306 306 306 305 305 305 305 303 305 305 305 304 303 303 302 302 301 301 300 298 298 297 295 295 294 293 293 293 294 295 295 295
319 318 317 316 314 313 313 313 313 311 309 307 307 306 306 306 305 306 304 302 303 304 304 303 303 302 302 301 301 300 299 298 298 298 298 297 295 294 293 294 294 295 295

GFSGL_925_thetae_120.txt.gz
Theta_e
343 344 346 346 347 347 347 347 347 345 344 345 345 345 348 348 349 350 351 351 351 349 350 349 348 349 349 349 350 349 349 349 346 345 347 349 349 348 347 346 344 345 348
343 344 344 344 346 346 346 347 347 345 346 342 343 345 345 349 349 350 349 350 351 350 348 349 349 348 349 350 350 349 349 349 347 345 346 348 348 347 347 342 346 348 349
344 344 344 345 345 345 346 347 347 347 344 344 337 337 340 348 350 350 349 350 350 349 349 348 348 349 350 350 350 349 349 349 349 348 346 348 348 348 345 342 347 345 345
345 345 344 345 345 346 347 348 349 348 347 345 341 346 345 346 348 349 349 349 349 348 349 349 348 347 349 349 348 348 349 348 348 346 345 347 348 349 339 344 346 339 343
347 346 345 345 346 346 348 348 348 348 348 347 346 344 348 348 347 347 349 348 348 342 342 349 348 347 348 348 348 348 349 347 345 346 347 348 348 337 339 342 344 345 334
348 348 348 348 347 347 349 350 349 349 349 348 348 346 349 348 348 347 345 346 346 340 345 349 348 347 347 346 347 347 348 345 347 348 348 347 340 336 337 338 343 345 338
349 349 349 349 349 348 347 350 349 350 349 346 344 345 346 347 347 346 346 345 345 346 347 349 347 346 345 346 346 346 347 347 347 347 346 340 334 335 337 337 340 335 327
346 347 347 348 349 347 346 346 347 347 347 344 344 344 344 344 343 342 340 342 343 344 345 346 346 345 345 344 343 341 337 336 336 335 332 330 331 333 335 337 338 339 336
343 343 344 343 344 345 346 345 346 346 345 346 345 344 345 343 341 341 339 341 341 343 344 345 344 343 342 342 338 334 330 332 333 332 332 335 336 337 338 337 329 333 332
344 342 342 341 345 345 345 345 345 344 343 343 343 343 340 341 342 342 340 339 341 339 337 336 333 335 336 336 336 333 328 327 329 330 330 326 326 325 325 325 324 324 324
339 337 343 344 344 344 343 342 342 343 342 341 340 337 334 334 339 340 337 338 339 339 333 328 323 322 322 321 318 320 326 325 325 324 322 321 321 321 321 320 320 319 316
337 342 342 342 342 342 342 341 340 338 336 331 323 318 321 325 331 337 338 337 336 333 330 320 318 318 318 319 320 321 323 320 320 319 317 316 317 315 313 313 312 312 310
336 336 338 340 339 339 339 338 337 333 330 322 318 317 316 318 324 330 328 325 321 319 317 316 317 318 318 319 320 318 318 317 317 316 314 312 312 309 308 308 306 305 304
326 325 325 326 331 330 331 332 329 327 325 322 319 316 314 316 317 318 324 323 324 321 321 317 318 317 316 317 317 317 317 316 314 312 310 308 306 308 308 304 303 302 300
323 321 322 321 323 322 322 322 323 321 323 322 320 317 314 312 312 313 313 315 315 314 314 314 314 313 312 312 311 310 310 309 309 308 307 305 304 303 302 301 301 302 299
315 315 317 318 320 320 320 318 319 320 321 323 322 318 317 315 308 307 308 306 308 310 312 312 311 310 309 309 308 307 307 307 306 305 304 303 302 301 300 299 299 298 298
313 316 313 311 310 308 308 310 312 311 315 316 320 320 320 320 316 314 312 308 305 303 309 312 311 310 309 308 308 307 305 304 304 303 303 301 300 299 299 298 298 297 297
310 313 316 316 314 312 311 308 307 305 303 302 304 304 307 305 304 302 301 301 302 303 306 309 311 309 308 308 307 306 305 304 303 302 301 299 298 298 297 296 297 297 297
308 308 308 309 311 313 311 310 310 309 307 305 302 300 299 299 300 300 301 304 304 307 308 309 310 309 308 307 306 305 304 303 302 301 299 298 297 297 296 296 296 296 296
308 307 307 307 307 307 306 306 306 307 308 307 305 303 301 300 300 305 307 307 307 307 309 311 310 310 309 307 306 305 303 302 301 299 298 297 297 296 296 296 296 296 297
310 308 307 306 305 305 305 305 306 305 306 306 307 306 304 301 301 305 305 306 306 308 309 309 308 308 307 306 305 304 302 301 300 299 297 296 296 295 295 296 296 296 296
313 309 309 307 307 304 305 305 304 304 305 305 305 306 306 304 305 306 305 304 306 307 308 308 307 306 306 305 305 303 302 301 300 298 296 296 295 295 295 295 296 296 296
317 315 311 309 308 307 305 304 304 304 304 304 304 305 305 306 304 305 304 303 304 306 307 306 306 305 305 304 303 303 302 301 300 298 295 295 295 295 295 295 296 296 296
320 318 316 312 310 309 308 307 307 306 306 306 305 305 305 305 305 305 305 304 303 306 306 306 305 304 304 304 303 301 301 300 299 296 294 294 295 295 295 295 295 295 295
320 318 316 315 314 313 310 310 310 310 308 307 306 306 306 305 305 305 305 305 303 305 306 305 305 304 303 303 302 300 300 299 297 295 294 294 294 294 294 294 295 295 295
319 318 317 316 316 314 312 312 313 313 312 309 308 307 306 306 306 306 305 305 304 303 305 305 304 303 303 302 301 301 300 298 297 296 295 295 294 293 293 293 294 295 295

GFSGL_925_thetae_123.txt.gz
Theta_e
346 348 349 350 347 347 347 347 347 346 346 341 344 347 347 351 352 349 348 350 353 352 353 352 354 352 351 352 353 351 352 352 351 350 350 352 349 351 352 349 351 352 344
347 348 347 348 348 349 347 346 346 347 345 346 345 344 344 348 351 349 350 351 352 352 353 353 353 351 352 350 351 350 352 352 351 352 350 350 347 348 349 351 350 350 338
347 348 348 348 348 348 349 347 345 347 346 346 343 342 343 344 346 350 350 349 350 351 352 353 350 353 352 351 350 352 350 353 352 352 351 351 351 352 348 349 347 347 345
348 348 348 348 348 348 348 345 345 347 347 347 344 341 340 345 348 349 350 348 348 350 347 346 348 348 347 347 349 348 348 348 351 351 350 349 351 353 346 349 347 344 346
348 347 346 349 349 348 350 347 345 347 348 348 347 345 343 349 349 348 348 348 347 351 352 349 351 347 346 347 348 348 347 348 347 350 349 350 351 347 346 347 350 342 341
347 348 349 349 348 350 351 351 349 348 349 349 348 347 347 348 348 347 347 347 349 350 348 348 348 347 347 347 346 347 348 348 350 351 352 352 351 344 343 344 348 347 341
349 350 349 349 349 348 347 347 346 350 348 348 349 350 347 346 347 347 346 345 346 348 350 346 347 346 347 345 346 346 346 346 345 349 351 351 345 342 342 343 346 343 336
347 347 347 348 348 348 348 347 347 346 347 348 349 345 343 345 344 344 344 341 342 345 344 347 347 344 343 344 341 339 338 337 338 336 339 339 338 338 340 343 346 336 333
345 345 345 345 345 345 344 346 347 346 346 345 344 344 345 344 343 343 340 340 340 340 342 343 342 341 341 342 340 335 332 333 335 334 332 332 334 334 334 340 340 342 340
344 342 339 340 343 342 342 343 345 345 345 344 343 343 343 343 341 340 339 339 338 338 338 336 336 335 334 336 338 336 330 329 326 329 326 326 328 329 332 332 331 332 332
342 341 340 341 342 342 344 344 344 343 342 341 339 339 338 335 336 337 337 340 339 339 337 336 334 332 327 325 321 325 326 326 326 323 322 322 320 320 320 320 320 322 322
337 338 340 341 341 341 342 340 339 338 335 332 333 332 330 330 332 335 336 337 338 338 335 335 333 329 319 319 318 319 323 323 322 319 319 317 315 313 313 313 312 312 311
332 332 335 336 338 337 336 336 334 333 330 324 326 320 316 321 326 330 333 332 331 330 325 320 318 318 318 320 320 319 318 318 317 317 316 315 314 310 309 309 308 306 304
326 326 328 329 330 331 329 329 328 325 322 320 317 316 316 318 320 324 322 319 317 316 316 317 317 317 319 320 320 319 320 318 317 314 312 310 310 310 309 308 308 307 305
322 322 323 322 323 324 323 321 323 322 323 322 320 317 314 311 310 310 313 315 315 315 316 315 313 312 313 313 314 314 313 313 314 312 312 310 309 308 307 306 306 306 306
315 316 319 321 321 319 320 319 320 321 323 322 319 319 317 318 317 312 314 315 314 312 312 312 312 311 312 313 314 313 311 310 310 309 309 308 307 306 305 304 303 303 302
314 311 309 309 308 309 311 312 312 314 317 318 318 320 320 320 317 317 317 317 311 310 305 310 311 310 309 309 309 307 306 306 305 306 307 306 305 303 303 302 302 302 302
315 316 315 314 313 313 310 308 306 305 305 302 306 311 309 307 304 301 301 301 302 302 303 306 308 311 310 308 308 307 306 305 304 304 303 304 303 303 302 302 302 302 302
309 308 309 310 312 311 311 311 310 310 308 304 302 300 299 300 300 301 302 305 304 306 307 308 311 310 309 309 308 307 306 304 304 304 303 302 301 301 301 301 300 300 300
308 307 307 307 307 308 308 308 309 309 310 309 307 304 302 302 305 308 307 309 309 310 309 310 311 311 310 310 309 306 305 304 303 302 302 301 300 300 300 300 300 301 301
311 309 307 308 307 307 307 307 307 308 308 308 308 305 303 304 306 308 307 307 308 309 311 311 311 311 310 309 307 306 306 304 302 301 301 300 299 299 299 299 299 300 300
314 312 310 309 308 307 307 307 307 307 307 308 307 306 305 306 306 308 307 306 306 308 309 310 310 310 309 308 307 306 305 304 303 301 300 299 298 298 298 298 299 299 299
318 316 313 311 310 307 306 307 307 307 307 307 307 307 307 307 307 306 307 306 305 307 308 309 309 308 307 306 306 305 304 304 303 301 300 299 298 298 298 298 299 299 299
320 319 318 315 311 310 310 310 309 308 307 308 308 308 308 307 307 307 307 307 306 307 308 308 308 307 307 305 305 304 303 303 302 301 299 298 298 297 298 298 298 299 299
320 320 318 316 314 312 312 311 311 312 312 312 311 310 308 308 308 308 307 306 306 306 307 308 308 308 307 306 304 304 303 300 301 299 298 297 298 298 298 297 298 298 298
321 320 319 318 317 317 316 314 312 313 314 314 313 311 309 309 307 307 308 308 307 306 306 307 307 308 307 306 305 304 302 300 299 297 297 297 298 297 297 297 297 298 298

GFSGL_925_thetae_126.txt.gz
Theta_e
348 348 348 349 349 352 352 353 352 354 354 354 353 352 354 354 354 355 354 352 353 354 353 352 353 353 350 348 348 348 347 348 346 343 348 352 352 353 351 352 353 348 343
348 348 349 349 350 350 352 352 352 353 354 354 353 353 353 353 354 355 354 351 352 352 352 352 353 351 353 353 349 348 349 350 349 350 350 349 351 352 353 353 351 345 336
350 349 350 350 350 350 349 351 351 352 353 353 353 352 351 350 351 353 354 352 352 352 352 353 353 353 353 350 351 351 350 351 353 352 350 351 350 350 352 352 351 348 338
351 350 351 351 350 349 350 351 351 352 353 353 353 352 350 349 349 350 352 353 353 352 352 352 352 352 353 353 351 352 351 353 351 352 352 348 348 352 350 351 350 347 339
351 352 352 352 352 352 351 351 353 352 351 352 354 353 351 351 351 352 352 353 353 352 352 352 350 352 351 350 350 351 350 350 349 350 347 347 349 350 348 349 349 347 349
347 349 351 352 351 351 351 353 353 353 352 353 353 353 352 350 349 349 348 352 352 353 353 352 352 350 346 347 347 347 347 350 352 350 347 348 351 351 347 346 350 347 344
352 350 349 350 352 352 352 351 350 351 351 351 352 352 351 351 350 348 347 347 350 351 352 352 352 350 348 352 349 345 346 346 346 350 351 350 351 349 346 347 349 350 348
352 351 353 354 352 350 351 352 352 347 346 348 350 350 350 352 348 345 345 345 345 348 351 351 352 352 350 350 348 347 345 342 343 343 344 348 347 346 346 347 349 346 338
350 351 350 351 351 351 347 349 350 349 345 344 345 344 348 348 344 344 344 343 342 344 343 343 347 349 346 342 346 345 343 334 337 337 334 332 333 330 337 342 345 343 344
348 346 345 343 344 343 343 343 343 346 347 345 343 344 345 344 343 343 343 341 339 337 335 335 337 336 334 337 344 342 340 338 328 330 330 328 329 331 335 336 339 337 336
345 345 345 346 347 347 346 343 344 345 345 344 343 340 340 338 339 339 337 336 337 337 335 330 330 332 328 324 323 330 332 330 327 327 327 327 324 325 322 322 322 325 330
340 336 338 339 339 341 341 340 338 337 334 330 332 330 330 327 332 336 335 333 335 336 335 333 333 333 331 325 320 319 321 324 324 324 323 321 321 319 316 315 314 315 315
333 335 335 336 336 336 337 334 331 329 327 324 321 319 320 323 326 326 327 328 327 328 327 325 323 322 322 321 320 319 320 323 324 324 324 321 317 316 314 312 310 309 307
327 323 326 328 329 330 330 329 326 325 324 323 324 321 318 320 323 323 321 321 317 317 317 317 316 317 318 319 320 320 319 319 319 318 316 314 312 312 314 312 312 311 311
322 321 321 322 322 323 323 322 323 323 323 323 321 320 318 316 315 315 315 315 315 316 316 317 319 318 316 316 315 316 317 318 318 318 317 316 315 314 313 312 312 313 312
321 320 320 320 319 320 320 319 321 321 321 320 318 319 317 316 317 316 316 317 317 316 314 314 313 313 314 315 315 315 314 314 314 314 313 313 312 311 311 309 309 309 309
314 312 310 310 312 313 314 315 315 316 320 320 320 320 317 316 314 313 314 312 313 313 312 311 311 311 311 311 311 309 308 307 307 307 308 308 308 307 306 308 307 307 307
319 317 317 316 316 314 313 311 311 312 312 311 314 314 312 309 303 301 301 302 305 303 307 308 311 310 310 310 309 309 308 307 308 307 306 306 305 305 305 305 305 305 306
314 314 315 315 314 314 314 314 314 313 312 309 305 302 301 301 301 303 305 310 310 310 310 310 312 312 312 311 311 309 309 307 306 307 307 306 305 306 305 305 304 302 303
311 310 311 312 312 312 312 312 312 313 313 312 311 310 308 307 311 312 312 311 311 311 312 312 313 314 314 313 313 311 310 309 309 308 307 306 305 303 304 304 303 303 303
314 312 310 312 312 312 311 312 312 312 312 311 311 309 307 309 310 310 310 309 309 310 312 313 314 315 314 313 312 311 310 309 308 307 306 305 304 303 303 302 302 302 303
317 315 314 314 313 313 312 312 312 312 312 312 311 308 305 307 309 310 310 309 309 309 310 313 314 314 313 312 311 310 309 308 308 307 305 304 303 302 301 301 302 302 302
320 319 318 317 314 312 311 313 313 313 313 312 312 312 311 310 310 310 310 309 309 309 309 311 312 311 310 309 308 307 307 307 306 306 305 304 302 301 301 302 302 302 302
319 319 318 318 318 316 315 314 314 312 312 313 313 313 313 312 311 311 310 310 309 309 309 309 310 309 309 308 307 307 307 306 305 305 304 303 302 301 301 302 302 302 302
319 319 319 318 319 318 317 315 315 315 316 316 316 315 315 314 312 312 311 310 310 310 309 309 309 310 309 309 308 307 306 304 303 303 303 301 301 301 301 301 301 301 301
318 319 319 318 319 318 318 318 318 317 317 317 316 315 315 314 313 312 311 311 311 311 310 309 309 309 309 309 309 308 305 304 301 300 301 301 301 301 301 301 301 301 301

GFSGL_925_thetae_129.txt.gz
Theta_e
351 348 348 349 351 354 352 354 354 354 355 355 355 356 354 354 356 356 354 355 354 355 353 352 352 352 350 346 352 346 345 345 349 343 350 356 355 353 354 354 352 345 344
351 350 349 349 350 350 353 353 354 354 355 355 355 355 355 355 354 355 356 355 353 353 352 352 353 351 353 354 351 348 345 350 349 353 350 350 353 353 353 355 350 342 338
352 351 350 350 350 350 350 351 352 353 354 353 354 355 356 353 353 354 355 355 354 353 351 351 352 353 353 352 353 353 352 351 353 351 350 351 350 350 354 353 353 347 335
352 352 352 352 351 350 350 351 352 353 354 354 353 354 354 354 352 352 352 353 354 354 353 353 354 354 353 353 353 351 351 351 354 350 349 351 351 348 350 350 352 351 341
353 353 353 354 354 353 352 353 353 354 353 354 353 353 354 354 351 351 353 353 355 354 353 353 354 353 352 352 352 352 352 352 351 350 351 348 348 350 350 350 350 351 348
352 352 355 355 355 357 355 353 355 354 355 355 354 354 354 352 348 348 350 350 352 354 354 355 354 353 350 348 346 347 347 345 349 351 348 351 349 354 349 349 350 350 350
354 353 352 354 356 355 354 353 352 353 354 354 354 355 354 353 351 350 350 349 350 351 351 352 354 352 351 352 349 347 346 346 346 350 352 351 354 355 352 350 349 352 351
353 353 354 353 351 353 354 355 355 354 354 353 355 351 349 350 351 350 348 347 350 350 351 352 352 353 353 352 352 352 351 346 345 345 348 350 348 348 349 348 349 352 347
353 354 353 355 355 354 354 354 353 354 353 353 352 351 347 346 348 350 344 345 347 347 347 348 345 350 350 347 345 350 348 342 333 337 337 337 335 333 339 341 345 346 345
351 350 348 348 348 345 346 345 347 347 348 349 350 349 347 345 345 345 343 342 343 343 338 337 340 340 338 339 345 348 347 344 337 336 333 331 330 330 333 336 333 337 340
349 347 346 347 348 347 347 346 344 344 345 344 341 337 337 335 336 339 339 338 338 338 335 330 332 334 331 329 330 337 339 337 332 330 329 326 326 324 323 326 323 324 328
342 339 339 337 338 339 339 337 337 336 335 331 330 327 326 327 330 334 331 335 333 333 332 331 331 334 333 331 329 321 321 325 328 328 326 324 321 321 320 317 316 316 315
331 331 329 330 332 334 335 334 335 334 330 326 324 323 321 324 322 323 328 331 331 330 326 324 322 322 323 325 322 322 323 323 324 325 324 323 321 319 316 314 313 312 312
326 325 325 327 325 325 328 332 333 331 331 332 329 324 320 320 321 323 322 319 318 319 318 317 317 317 319 320 321 321 320 320 321 321 318 317 314 314 316 314 316 314 314
323 323 324 322 324 324 324 323 322 324 325 326 327 325 323 318 317 318 319 319 318 318 317 316 317 316 316 315 316 317 318 318 319 319 319 319 318 317 316 314 314 314 314
324 323 323 321 321 325 323 319 321 321 321 321 320 320 317 318 317 318 317 318 317 316 316 315 315 315 316 316 316 315 315 314 314 313 313 312 313 312 312 311 310 310 310
319 317 316 317 317 319 321 322 321 319 320 321 319 318 316 315 316 316 316 314 313 313 315 312 312 312 312 312 313 311 309 308 308 308 308 309 308 306 305 308 308 307 308
319 317 318 317 316 313 314 315 317 318 317 315 315 315 312 307 302 302 302 304 309 307 311 312 314 313 314 314 312 311 309 307 309 310 308 309 308 307 307 307 306 307 307
319 319 319 317 317 317 317 318 317 316 313 310 305 302 302 302 304 307 310 313 314 314 314 313 313 313 314 314 313 312 311 311 310 310 310 310 308 308 309 307 307 305 304
315 314 315 316 315 316 316 316 316 316 315 315 314 313 310 309 311 314 314 313 313 313 313 314 314 315 315 315 315 314 313 312 311 311 310 309 308 307 306 306 306 305 305
315 313 313 315 315 314 314 315 315 314 314 314 314 309 307 310 312 313 313 312 311 311 312 314 315 316 316 316 316 314 313 312 311 310 309 308 307 306 305 305 305 305 305
318 317 317 317 316 315 315 315 315 315 315 315 314 310 307 309 312 313 313 312 311 311 311 313 314 315 315 315 315 313 312 311 310 310 309 308 307 306 305 304 304 304 304
321 320 320 318 317 315 314 316 316 316 316 316 315 314 313 314 313 313 312 312 312 311 311 311 312 313 313 312 311 310 309 308 308 308 308 307 306 305 304 304 304 304 304
320 320 319 318 319 318 317 316 316 315 315 316 316 316 315 315 314 314 313 312 312 312 311 311 311 311 312 311 310 309 309 309 308 307 307 306 305 304 303 303 304 304 304
320 319 320 319 319 319 317 317 317 317 317 317 316 316 316 316 315 314 313 313 312 312 312 312 311 311 311 312 311 310 309 307 305 304 304 305 304 303 304 303 303 304 304
318 319 319 319 319 319 318 317 317 318 318 318 317 316 316 314 313 313 313 313 312 312 312 312 312 311 311 310 310 310 309 308 305 303 302 303 303 303 303 303 303 303 303